[[{"header":{"parameterUnit":"m.s-1","parameterCategory":1,"la1":31.0,"la2":29.5877,"lo1":-88.7671,"lo2":-86.6584,"dy":0.0162,"dx":0.0185,"nx":115,"ny":88,"refTime":"2026-05-14T00:00:00:Z","depth":0,"parameterNumber":2,"parameterNumberName":"U-component_of_WINDS"},"data":[0.0,0.0,0.0,0.0,0.0,0.0,0.0,0.0,0.0,0.0,0.0,0.0,0.0,0.0,0.0,0.0,0.0,0.0,0.0,0.0,0.0,0.0,0.0,0.0,0.0,0.0,0.0,0.0,0.0,0.0,0.0,0.0,0.0,0.0,0.0,0.0,0.0,0.0,0.0,0.0,0.0,0.0,0.0,0.0,0.0,0.0,0.0,0.0,0.0,0.0,0.0,0.0,0.0,0.0,0.0,0.0,0.0,0.0,0.0,0.0,0.0,0.0,0.0,0.0,0.0,0.0,0.0,0.0,0.0,0.0,0.0,0.0,0.0,0.0,0.0,0.0,0.0,0.0,0.0,0.0,0.0,0.0,0.0,0.0,0.0,0.0,0.0,0.0,0.0,0.0,0.0,0.0,0.0,0.0,0.0,0.0,0.0,0.0,0.0,0.0,0.0,0.0,0.0,0.0,0.0,0.0,0.0,0.0,0.0,0.0,0.0,0.0,0.0,0.0,0.0,0.0,0.0,0.0,0.0,0.0,0.0,0.0,0.0,0.0,0.0,0.0,0.0,0.0,0.0,0.0,0.0,0.0,0.0,0.0,0.0,0.0,0.0,0.0,0.0,0.0,0.0,0.0,0.0,0.0,0.0,0.0,0.0,0.0,0.0,0.0,0.0,0.0,0.0,0.0,0.0,0.0,0.0,0.0,0.0,0.0,0.0,0.0,0.0,0.0,0.0,0.0,0.0,0.0,0.0,0.0,0.0,0.0,0.0,0.0,0.0,0.0,0.0,0.0,0.0,0.0,0.0,0.0,0.0,0.0,0.0,0.0,0.0,0.0,0.0,0.0,0.0,0.0,0.0,0.0,0.0,0.0,0.0,0.0,0.0,0.0,0.0,0.0,0.0,0.0,0.0,0.0,0.0,0.0,0.0,0.0,0.0,0.0,0.0,0.0,0.0,0.0,0.0,0.0,0.0,0.0,0.0,0.0,0.0,0.0,0.0,0.0,0.0,0.0,0.0,0.0,0.0,0.0,0.0,0.0,0.0,0.0,0.0,0.0,0.0,0.0,0.0,0.0,0.0,0.0,0.0,0.0,0.0,0.0,0.0,0.0,0.0,0.0,0.0,0.0,0.0,0.0,0.0,0.0,0.0,0.0,0.0,0.0,0.0,0.0,0.0,0.0,0.0,0.0,0.0,0.0,0.0,0.0,0.0,0.0,0.0,0.0,0.0,0.0,0.0,0.0,0.0,0.0,0.0,0.0,0.0,0.0,0.0,0.0,0.0,0.0,0.0,0.0,0.0,0.0,0.0,0.0,0.0,0.0,0.0,0.0,0.0,0.0,0.0,0.0,0.0,0.0,0.0,0.0,0.0,0.0,0.0,0.0,0.0,0.0,0.0,0.0,0.0,0.0,0.0,0.0,0.0,0.0,0.0,0.0,0.0,0.0,0.0,0.0,0.0,0.0,0.0,0.0,0.0,0.0,0.0,0.0,0.0,0.0,0.0,0.0,0.0,0.0,0.0,0.0,0.0,0.0,0.0,0.0,0.0,0.0,0.0,0.0,0.0,0.0,0.0,0.0,0.0,0.0,0.0,0.0,0.0,0.0,0.0,0.0,0.0,0.0,0.0,0.0,0.0,0.0,0.0,0.0,0.0,0.0,0.0,0.0,0.0,0.0,0.0,0.0,0.0,0.0,0.0,0.0,0.0,0.0,0.0,0.0,0.0,0.0,0.0,0.0,0.0,0.0,0.0,0.0,0.0,0.0,0.0,0.0,0.0,0.0,0.0,0.0,0.0,0.0,0.0,0.0,0.0,0.0,0.0,0.0,0.0,0.0,0.0,0.0,0.0,0.0,0.0,0.0,0.0,0.0,0.0,0.0,0.0,0.0,0.0,0.0,0.0,0.0,0.0,0.0,0.0,0.0,0.0,0.0,0.0,0.0,0.0,0.0,0.0,0.0,0.0,0.0,0.0,0.0,0.0,0.0,0.0,0.0,0.0,0.0,0.0,0.0,0.0,0.0,0.0,0.0,0.0,0.0,0.0,0.0,0.0,0.0,0.0,0.0,0.0,0.0,0.0,0.0,0.0,0.0,0.0,0.0,0.0,0.0,0.0,0.0,0.0,0.0,0.0,0.0,0.0,0.0,0.0,0.0,0.0,0.0,0.0,0.0,0.0,0.0,0.0,0.0,0.0,0.0,0.0,0.0,0.0,0.0,0.0,0.0,0.0,0.0,0.0,0.0,0.0,0.0,0.0,0.0,0.0,0.0,0.0,0.0,0.0,0.0,0.0,0.0,0.0,0.0,0.0,0.0,0.0,0.0,0.0,0.0,0.0,0.0,0.0,0.0,0.0,0.0,0.0,0.0,0.0,0.0,0.0,0.0,0.0,0.0,0.0,0.0,0.0,0.0,0.0,0.0,0.0,0.0,0.0,0.0,0.0,0.0,0.0,0.0,0.0,0.0,0.0,0.0,0.0,0.0,0.0,0.0,0.0,0.0,0.0,0.0,0.0,0.0,0.0,0.0,0.0,0.0,0.0,0.0,0.0,0.0,0.0,0.0,0.0,0.0,0.0,0.0,0.0,0.0,0.0,0.0,0.0,0.0,0.0,0.0,0.0,0.0,0.0,0.0,0.0,0.0,0.0,0.0,0.0,0.0,0.0,0.0,0.0,0.0,0.0,0.0,0.0,0.0,0.0,0.0,0.0,0.0,0.0,0.0,0.0,0.0,0.0,0.0,0.0,0.0,0.0,0.0,0.0,0.0,0.0,0.0,0.0,0.0,0.0,0.0,0.0,0.0,0.0,0.0,0.0,0.0,0.0,0.0,0.0,0.0,0.0,0.0,0.0,0.0,0.0,0.0,0.0,0.0,0.0,0.0,0.0,0.0,0.0,0.0,0.0,0.0,0.0,0.0,0.0,0.0,0.0,0.0,0.0,0.0,0.0,0.0,0.0,0.0,0.0,0.0,0.0,0.0,0.0,0.0,0.0,0.0,0.0,0.0,0.0,0.0,0.0,0.0,0.0,0.0,0.0,0.0,0.0,0.0,0.0,0.0,0.0,0.0,0.0,0.0,0.0,0.0,0.0,0.0,0.0,0.0,0.0,0.0,0.0,0.0,0.0,0.0,0.0,0.0,0.0,0.0,0.0,0.0,0.0,0.0,0.0,0.0,0.0,0.0,0.0,0.0,0.0,0.0,0.0,0.0,0.0,0.0,0.0,0.0,0.0,0.0,0.0,0.0,0.0,0.0,0.0,0.0,0.0,0.0,0.0,0.0,0.0,0.0,0.0,0.0,0.0,0.0,0.0,0.0,0.0,0.0,0.0,0.0,0.0,0.0,0.0,0.0,0.0,0.0,0.0,0.0,0.0,0.0,0.0,0.0,0.0,0.0,0.0,0.0,0.0,0.0,0.0,0.0,0.0,0.0,0.0,0.0,0.0,0.0,0.0,0.0,0.0,0.0,0.0,0.0,0.0,0.0,0.0,0.0,0.0,0.0,0.0,0.0,0.0,0.0,0.0,0.0,0.0,0.0,0.0,0.0,0.0,0.0,0.0,0.0,0.0,0.0,0.0,0.0,0.0,0.0,0.0,0.0,0.0,0.0,0.0,0.0,0.0,0.0,0.0,0.0,0.0,0.0,0.0,0.0,0.0,0.0,0.0,0.0,0.0,0.0,0.0,0.0,0.0,0.0,0.0,0.0,0.0,0.0,0.0,0.0,0.0,0.0,0.0,0.0,0.0,0.0,0.0,0.0,0.0,0.0,0.0,0.0,0.0,0.0,0.0,0.0,0.0,0.0,0.0,0.0,0.0,0.0,0.0,0.0,0.0,0.0,0.0,0.0,0.0,0.0,0.0,0.0,0.0,0.0,0.0,0.0,0.0,0.0,0.0,0.0,0.0,0.0,0.0,0.0,0.0,0.0,0.0,0.0,0.0,0.0,0.0,0.0,0.0,0.0,0.0,0.0,0.0,0.0,0.0,0.0,0.0,0.0,0.0,0.0,0.0,0.0,0.0,0.0,0.0,0.0,0.0,0.0,0.0,0.0,0.0,0.0,0.0,0.0,0.0,0.0,0.0,0.0,0.0,0.0,0.0,0.0,0.0,0.0,0.0,0.0,0.0,0.0,0.0,0.0,0.0,0.0,0.0,0.0,0.0,0.0,0.0,0.0,0.0,0.0,0.0,0.0,0.0,0.0,0.0,0.0,0.0,0.0,0.0,0.0,0.0,0.0,0.0,0.0,0.0,0.0,0.0,0.0,0.0,0.0,0.0,0.0,-0.351,0.0,0.0,0.0,0.0,0.0,0.0,0.0,0.0,0.0,0.0,0.0,0.0,0.0,0.0,0.0,0.0,0.0,0.0,0.0,0.0,0.0,0.0,0.0,0.0,0.0,0.0,0.0,0.0,0.0,0.0,0.0,0.0,0.0,0.0,0.0,0.0,0.0,0.0,0.0,0.0,0.0,0.0,0.0,0.0,0.0,0.0,0.0,0.0,0.0,0.0,0.0,0.0,0.0,0.0,0.0,0.0,0.0,0.0,0.0,0.0,0.0,0.0,0.0,0.0,0.0,0.0,0.0,0.0,0.0,0.0,0.0,0.0,0.0,0.0,0.0,0.0,0.0,0.0,0.0,0.0,0.0,0.0,0.0,0.0,0.0,0.0,0.0,0.0,0.0,0.0,0.0,0.0,0.0,0.0,0.0,0.0,0.0,0.0,0.0,0.0,0.0,0.0,0.0,0.0,0.0,0.0,0.0,0.0,0.0,0.0,-0.3793,-0.3934,-0.4048,-0.4058,-0.3952,0.0,0.0,0.0,0.0,0.0,0.0,0.0,0.0,0.0,0.0,0.0,0.0,0.0,0.0,0.0,0.0,0.0,0.0,0.0,0.0,0.0,0.0,0.0,0.0,0.0,0.0,0.0,0.0,0.0,0.0,0.0,0.0,0.0,0.0,0.0,0.0,0.0,0.0,0.0,0.0,0.0,0.0,0.0,0.0,0.0,0.0,0.0,0.0,0.0,0.0,0.0,0.0,0.0,0.0,0.0,0.0,0.0,0.0,0.0,0.0,0.0,0.0,0.0,0.0,0.0,0.0,0.0,0.0,0.0,0.0,0.0,0.0,0.0,0.0,0.0,0.0,0.0,0.0,0.0,0.0,0.0,0.0,0.0,0.0,0.0,0.0,0.0,0.0,0.0,0.0,0.0,0.0,0.0,0.0,0.0,0.0,0.0,0.0,0.0,0.0,0.0,0.0,0.0,0.0,0.0,0.0,0.0,0.0,0.0,0.0,0.0,0.0,-0.4426,-0.4491,-0.4541,0.0,0.0,0.0,0.0,0.0,0.0,0.0,0.0,0.0,0.0,0.0,0.0,0.0,0.0,0.0,0.0,0.0,0.0,0.0,0.0,0.0,0.0,0.0,0.0,0.0,0.0,0.0,0.0,0.0,0.0,0.0,0.0,0.0,0.0,0.0,0.0,0.0,0.0,0.0,0.0,0.0,0.0,0.0,0.0,0.0,0.0,0.0,0.0,0.0,0.0,0.0,0.0,0.0,0.0,0.0,0.0,0.0,0.0,0.0,0.0,0.0,0.0,0.0,0.0,0.0,0.0,0.0,0.0,0.0,0.0,0.0,0.0,0.0,0.0,0.0,0.0,0.0,0.0,0.0,0.0,0.0,0.0,0.0,0.0,0.0,0.0,0.0,0.0,0.0,0.0,0.0,0.0,0.0,0.0,0.0,0.0,0.0,0.0,0.0,0.0,0.0,0.0,0.0,0.0,0.0,0.0,0.0,0.0,0.0,0.0,-0.4127,-0.4548,-0.4809,0.0,-0.5272,0.0,0.0,0.0,0.0,0.0,0.0,0.0,0.0,0.0,0.0,0.0,0.0,0.0,0.0,0.0,0.0,0.0,0.0,0.0,0.0,0.0,0.0,0.0,0.0,0.0,0.0,0.0,0.0,0.0,0.0,0.0,0.0,0.0,0.0,0.0,0.0,0.0,0.0,0.0,0.0,0.0,0.0,0.0,0.0,0.0,0.0,0.0,0.0,0.0,0.0,0.0,0.0,0.0,0.0,0.0,0.0,0.0,0.0,0.0,0.0,0.0,0.0,0.0,0.0,0.0,0.0,0.0,0.0,0.0,0.0,0.0,0.0,0.0,0.0,0.0,0.0,0.0,0.0,0.0,0.0,0.0,0.0,0.0,0.0,0.0,0.0,0.0,0.0,0.0,0.0,0.0,0.0,0.0,0.0,0.0,0.0,0.0,0.0,0.0,0.0,0.0,0.0,0.0,0.0,0.0,0.0,0.0,0.0,0.0,0.0,-0.471,-0.5287,-0.5419,-0.5441,0.0,0.0,0.0,0.0,0.0,0.0,0.0,0.0,0.0,0.0,0.0,0.0,0.0,0.0,0.0,0.0,0.0,0.0,0.0,0.0,0.0,0.0,0.0,0.0,0.0,0.0,0.0,0.0,0.0,0.0,0.0,0.0,0.0,0.0,0.0,0.0,0.0,0.0,0.0,0.0,0.0,0.0,0.0,0.0,0.0,0.0,0.0,0.0,0.0,0.0,0.0,0.0,0.0,0.0,0.0,0.0,0.0,0.0,0.0,0.0,0.0,0.0,0.0,0.0,0.0,0.0,0.0,0.0,0.0,0.0,0.0,0.0,0.0,0.0,0.0,0.0,0.0,0.0,0.0,0.0,0.0,0.0,0.0,0.0,0.0,0.0,0.0,0.0,0.0,0.0,0.0,0.0,0.0,0.0,0.0,0.0,0.0,0.0,0.0,0.0,0.0,0.0,0.0,0.0,0.0,0.0,0.0,0.0,0.0,0.0,-0.4999,-0.5262,-0.5823,-0.5857,-0.5753,-0.5519,0.0,0.0,0.0,0.0,0.0,0.0,0.0,0.0,0.0,0.0,0.0,0.0,0.0,0.0,0.0,0.0,0.0,0.0,0.0,0.0,0.0,0.0,0.0,0.0,0.0,0.0,0.0,0.0,0.0,0.0,0.0,0.0,0.0,0.0,0.0,0.0,0.0,0.0,0.0,0.0,0.0,0.0,0.0,0.0,0.0,0.0,0.0,0.0,0.0,0.0,0.0,0.0,0.0,0.0,0.0,0.0,0.0,0.0,0.0,0.0,0.0,0.0,0.0,0.0,0.0,0.0,0.0,0.0,0.0,0.0,0.0,0.0,0.0,0.0,0.0,0.0,0.0,0.0,0.0,0.0,0.0,0.0,0.0,0.0,0.0,0.0,0.0,0.0,0.0,0.0,0.0,0.0,0.0,0.0,0.0,0.0,0.0,0.0,0.0,0.0,0.0,0.0,0.0,0.0,0.0,0.0,0.0,0.0,0.0,-0.5559,-0.5579,-0.5981,-0.5991,-0.5935,0.0,0.0,0.0,0.0,0.0,0.0,0.0,0.0,0.0,0.0,0.0,0.0,0.0,0.0,0.0,0.0,0.0,0.0,0.0,0.0,0.0,0.0,0.0,0.0,0.0,0.0,0.0,0.0,0.0,0.0,0.0,0.0,0.0,0.0,0.0,0.0,0.0,0.0,0.0,0.0,0.0,0.0,0.0,0.0,0.0,0.0,0.0,0.0,0.0,0.0,0.0,0.0,0.0,0.0,0.0,0.0,0.0,0.0,0.0,0.0,0.0,0.0,0.0,0.0,0.0,0.0,0.0,0.0,0.0,0.0,0.0,0.0,0.0,0.0,0.0,0.0,0.0,0.0,0.0,0.0,0.0,0.0,0.0,0.0,0.0,0.0,0.0,0.0,0.0,0.0,0.0,0.0,0.0,0.0,0.0,0.0,0.0,0.0,0.0,0.0,0.0,0.0,0.0,0.0,0.0,0.0,0.0,0.0,0.0,-0.5396,-0.5553,-0.5871,-0.6293,-0.6026,-0.5882,0.0,0.0,0.0,0.0,0.0,0.0,0.0,0.0,0.0,0.0,0.0,0.0,0.0,0.0,0.0,0.0,0.0,0.0,0.0,0.0,0.0,0.0,0.0,0.0,0.0,0.0,0.0,0.0,0.0,0.0,0.0,0.0,0.0,0.0,0.0,0.0,0.0,0.0,0.0,0.0,0.0,0.0,0.0,0.0,0.0,0.0,0.0,0.0,0.0,0.0,0.0,0.0,0.0,0.0,0.0,0.0,0.0,0.0,0.0,0.0,0.0,0.0,0.0,0.0,0.0,0.0,0.0,0.0,0.0,0.0,0.0,0.0,0.0,0.0,0.0,0.0,0.0,0.0,0.0,0.0,0.0,0.0,0.0,0.0,0.0,0.0,0.0,0.0,0.0,0.0,0.0,0.0,0.0,0.0,0.0,0.0,0.0,0.0,0.0,0.0,0.0,0.0,0.0,0.0,0.0,0.0,0.0,0.0,0.0,-0.5495,0.0,-0.6307,0.0,-0.6148,-0.5907,0.0,0.0,0.0,0.0,0.0,0.0,0.0,0.0,0.0,0.0,0.0,0.0,0.0,0.0,0.0,0.0,0.0,0.0,0.0,0.0,0.0,0.0,0.0,0.0,0.0,0.0,0.0,0.0,0.0,0.0,0.0,0.0,0.0,0.0,0.0,0.0,0.0,0.0,0.0,0.0,0.0,0.0,0.0,0.0,0.0,0.0,0.0,0.0,0.0,0.0,0.0,0.0,0.0,0.0,0.0,0.0,0.0,0.0,0.0,0.0,0.0,0.0,0.0,0.0,0.0,0.0,0.0,0.0,0.0,0.0,0.0,0.0,0.0,0.0,0.0,0.0,0.0,0.0,0.0,0.0,0.0,0.0,0.0,0.0,0.0,0.0,0.0,0.0,0.0,0.0,0.0,0.0,0.0,0.0,0.0,0.0,0.0,0.0,0.0,0.0,0.0,0.0,0.0,0.0,0.0,0.0,0.0,0.0,-0.5536,-0.6336,-0.6804,-0.6833,-0.6433,-0.6406,-0.5985,0.0,0.0,0.0,0.0,0.0,0.0,0.0,0.0,0.0,0.0,0.0,0.0,0.0,0.0,0.0,0.0,0.0,0.0,0.0,0.0,0.0,0.0,0.0,0.0,0.0,0.0,0.0,0.0,0.0,0.0,0.0,0.0,0.0,0.0,0.0,0.0,0.0,0.0,0.0,0.0,0.0,0.0,0.0,0.0,0.0,0.0,0.0,0.0,0.0,0.0,0.0,0.0,0.0,0.0,0.0,0.0,0.0,0.0,0.0,0.0,0.0,0.0,0.0,0.0,0.0,0.0,0.0,0.0,0.0,0.0,0.0,0.0,0.0,0.0,0.0,0.0,0.0,0.0,0.0,0.0,0.0,0.0,0.0,0.0,0.0,0.0,0.0,0.0,0.0,0.0,0.0,0.0,0.0,0.0,0.0,0.0,0.0,0.0,0.0,0.0,0.0,0.0,0.0,0.0,0.0,0.0,0.0,0.0,0.0,-0.5988,-0.6396,-0.6833,-0.7242,-0.6445,-0.6144,0.0,0.0,0.0,0.0,0.0,0.0,0.0,0.0,0.0,0.0,0.0,0.0,0.0,0.0,0.0,0.0,0.0,0.0,0.0,0.0,0.0,0.0,0.0,0.0,0.0,0.0,0.0,0.0,0.0,0.0,0.0,0.0,0.0,0.0,0.0,0.0,0.0,0.0,0.0,0.0,0.0,0.0,0.0,0.0,0.0,0.0,0.0,0.0,0.0,0.0,0.0,0.0,0.0,0.0,0.0,0.0,0.0,0.0,0.0,0.0,0.0,0.0,0.0,0.0,0.0,0.0,0.0,0.0,0.0,0.0,0.0,0.0,0.0,0.0,0.0,0.0,0.0,0.0,0.0,0.0,0.0,0.0,0.0,0.0,0.0,0.0,0.0,0.0,0.0,0.0,0.0,0.0,0.0,0.0,0.0,0.0,0.0,0.0,0.0,0.0,0.0,0.0,0.0,0.0,0.0,0.0,0.0,0.0,0.0,-0.6744,-0.7002,-0.731,-0.7686,-0.692,-0.6614,-0.6807,0.0,0.0,0.0,0.0,0.0,0.0,0.0,0.0,0.0,0.0,0.0,0.0,0.0,0.0,0.0,0.0,0.0,0.0,0.0,0.0,0.0,0.0,0.0,0.0,0.0,0.0,0.0,0.0,0.0,0.0,0.0,0.0,0.0,0.0,0.0,0.0,0.0,0.0,0.0,0.0,0.0,0.0,0.0,0.0,0.0,0.0,0.0,0.0,0.0,0.0,0.0,0.0,0.0,0.0,0.0,0.0,0.0,0.0,0.0,0.0,0.0,0.0,0.0,0.0,0.0,0.0,0.0,0.0,0.0,0.0,0.0,0.0,0.0,0.0,0.0,0.0,0.0,0.0,0.0,0.0,0.0,0.0,0.0,0.0,0.0,0.0,0.0,0.0,0.0,0.0,0.0,0.0,0.0,0.0,0.0,0.0,0.0,0.0,0.0,0.0,0.0,0.0,0.0,0.0,0.0,0.0,0.0,0.0,-0.841,-0.8506,-0.832,-0.7817,-0.7715,-0.7306,0.0,0.0,0.0,0.0,0.0,0.0,0.0,0.0,0.0,0.0,0.0,0.0,0.0,0.0,0.0,0.0,0.0,0.0,0.0,0.0,0.0,0.0,0.0,0.0,0.0,0.0,0.0,0.0,0.0,0.0,0.0,0.0,0.0,0.0,0.0,0.0,0.0,0.0,0.0,0.0,0.0,0.0,0.0,0.0,0.0,0.0,0.0,0.0,0.0,0.0,0.0,0.0,0.0,0.0,0.0,0.0,0.0,0.0,0.0,0.0,0.0,0.0,0.0,0.0,0.0,0.0,0.0,0.0,0.0,0.0,0.0,0.0,0.0,0.0,0.0,0.0,0.0,0.0,0.0,0.0,0.0,0.0,0.0,0.0,0.0,0.0,0.0,0.0,0.0,0.0,0.0,0.0,0.0,0.0,0.0,0.0,0.0,0.0,0.0,0.0,0.0,0.0,0.0,0.0,0.0,0.0,0.0,0.0,0.0,-0.9715,-1.0195,-0.9843,-0.8705,-0.8036,-0.7588,0.0,0.0,0.0,0.0,0.0,0.0,0.0,0.0,0.0,0.0,0.0,0.0,0.0,0.0,0.0,0.0,0.0,0.0,0.0,0.0,0.0,0.0,0.0,0.0,0.0,0.0,0.0,0.0,0.0,0.0,0.0,0.0,0.0,0.0,0.0,0.0,0.0,0.0,0.0,0.0,0.0,0.0,0.0,0.0,0.0,0.0,0.0,0.0,0.0,0.0,0.0,0.0,0.0,0.0,0.0,0.0,0.0,0.0,0.0,0.0,0.0,0.0,0.0,0.0,0.0,0.0,0.0,0.0,0.0,0.0,0.0,0.0,0.0,0.0,0.0,0.0,0.0,0.0,0.0,0.0,0.0,0.0,0.0,0.0,0.0,0.0,0.0,0.0,0.0,0.0,0.0,0.0,0.0,0.0,0.0,0.0,0.0,0.0,0.0,0.0,0.0,0.0,0.0,0.0,0.0,0.0,0.0,0.0,-0.9349,-1.0496,-1.107,-1.0806,-0.9626,-0.9103,-0.8569,0.0,0.0,0.0,0.0,0.0,0.0,0.0,0.0,0.0,0.0,0.0,0.0,0.0,0.0,0.0,0.0,0.0,0.0,0.0,0.0,0.0,0.0,0.0,0.0,0.0,0.0,0.0,0.0,0.0,0.0,0.0,0.0,0.0,0.0,0.0,0.0,0.0,0.0,0.0,0.0,0.0,0.0,0.0,0.0,0.0,0.0,0.0,0.0,0.0,0.0,0.0,0.0,0.0,0.0,0.0,0.0,0.0,0.0,0.0,0.0,0.0,0.0,0.0,0.0,0.0,0.0,0.0,0.0,0.0,0.0,0.0,0.0,0.0,0.0,0.0,0.0,0.0,0.0,0.0,0.0,0.0,0.0,0.0,0.0,0.0,0.0,0.0,0.0,0.0,0.0,0.0,0.0,0.0,0.0,0.0,0.0,0.0,0.0,0.0,0.0,0.0,0.0,0.0,0.0,0.0,0.0,0.0,0.0,-1.0132,-1.0955,-1.1595,-1.1514,-1.0645,-1.0474,-0.9764,0.0,0.0,0.0,0.0,0.0,0.0,0.0,0.0,0.0,0.0,0.0,0.0,0.0,0.0,0.0,0.0,0.0,0.0,0.0,0.0,0.0,0.0,0.0,0.0,0.0,0.0,0.0,0.0,0.0,0.0,0.0,0.0,0.0,0.0,0.0,0.0,0.0,0.0,0.0,0.0,0.0,0.0,0.0,0.0,0.0,0.0,0.0,0.0,0.0,0.0,0.0,0.0,0.0,0.0,0.0,0.0,0.0,0.0,0.0,0.0,0.0,0.0,0.0,0.0,0.0,0.0,0.0,0.0,0.0,0.0,0.0,0.0,0.0,0.0,0.0,0.0,0.0,0.0,0.0,0.0,0.0,0.0,0.0,0.0,0.0,0.0,0.0,0.0,0.0,0.0,0.0,0.0,0.0,0.0,0.0,0.0,0.0,0.0,0.0,0.0,0.0,0.0,0.0,0.0,0.0,0.0,0.0,0.0,-1.0979,-1.2028,-1.2628,-1.2637,-1.2059,-1.0972,-0.9764,0.0,0.0,0.0,0.0,0.0,0.0,0.0,0.0,0.0,0.0,0.0,0.0,0.0,0.0,0.0,0.0,0.0,0.0,0.0,0.0,0.0,0.0,0.0,0.0,0.0,0.0,0.0,0.0,0.0,0.0,0.0,0.0,0.0,0.0,0.0,0.0,0.0,0.0,0.0,0.0,0.0,0.0,0.0,0.0,0.0,0.0,0.0,0.0,-0.1587,0.0,0.0,0.0,0.0,0.0,0.0,0.0,0.0,0.0,0.0,0.0,0.0,0.0,0.0,0.0,0.0,0.0,0.0,0.0,0.0,0.0,0.0,0.0,0.0,0.0,0.0,0.0,0.0,0.0,0.0,0.0,0.0,0.0,0.0,0.0,0.0,0.0,0.0,0.0,0.0,0.0,0.0,0.0,0.0,0.0,0.0,0.0,0.0,0.0,0.0,0.0,0.0,0.0,0.0,0.0,0.0,0.0,0.0,0.0,-1.155,-1.2375,-1.291,-1.2978,-1.2496,-1.1784,-1.0649,0.0,0.0,0.0,0.0,0.0,0.0,0.0,0.0,0.0,0.0,0.0,0.0,0.0,0.0,0.0,0.0,0.0,0.0,0.0,0.0,0.0,0.0,0.0,0.0,0.0,0.0,0.0,0.0,0.0,0.0,0.0,0.0,0.0,0.0,0.0,0.0,0.0,0.0,0.0,0.0,0.0,0.0,0.0,0.0,0.0,0.0,0.0,0.0,0.0,0.0,0.0,0.0,0.0,0.0,0.0,0.0,0.0,0.0,0.0,0.0,0.0,0.0,0.0,0.0,0.0,0.0,0.0,0.0,0.0,0.0,0.0,0.0,0.0,0.0,0.0,0.0,0.0,0.0,0.0,0.0,0.0,0.0,0.0,0.0,0.0,0.0,0.0,0.0,0.0,0.0,0.0,0.0,0.0,0.0,0.0,0.0,0.0,0.0,0.0,0.0,0.0,0.0,0.0,0.0,0.0,0.0,0.0,-1.0748,-1.1814,-1.25,-1.2977,-1.3025,-1.2615,-1.2526,-1.1664,-0.989,0.0,0.0,0.0,0.0,0.0,0.0,0.0,0.0,0.0,0.0,0.0,0.0,0.0,0.0,0.0,0.0,0.0,0.0,0.0,0.0,0.0,0.0,0.0,0.0,0.0,0.0,0.0,0.0,0.0,0.0,0.0,0.0,0.0,0.0,0.0,0.0,0.0,0.0,-0.2771,-0.3175,0.0,0.0,0.0,0.0,0.0,0.0,0.0,0.0,-0.254,0.0,0.0,0.0,0.0,0.0,0.0,0.0,0.0,0.0,0.0,0.0,0.0,0.0,0.0,0.0,0.0,0.0,0.0,0.0,0.0,0.0,0.0,0.0,0.0,0.0,0.0,0.0,0.0,0.0,0.0,0.0,0.0,0.0,0.0,0.0,0.0,0.0,0.0,0.0,0.0,0.0,0.0,0.0,0.0,0.0,0.0,0.0,0.0,0.0,0.0,0.0,0.0,0.0,0.0,0.0,0.0,-1.0406,-1.0694,-1.1573,-1.304,-1.3148,-1.3163,-1.3077,-1.272,-1.1837,-1.0404,0.0,0.0,0.0,0.0,0.0,0.0,0.0,0.0,0.0,0.0,0.0,0.0,0.0,0.0,0.0,0.0,0.0,0.0,0.0,0.0,0.0,0.0,0.0,0.0,0.0,0.0,0.0,0.0,0.0,0.0,0.0,0.0,0.0,0.0,0.0,0.0,0.0,0.0,0.0,-0.3365,-0.3318,0.0,0.0,0.0,0.0,0.0,0.0,0.0,0.0,-0.2818,0.0,0.0,0.0,0.0,0.0,0.0,0.0,0.0,0.0,0.0,0.0,0.0,0.0,0.0,0.0,0.0,0.0,0.0,0.0,0.0,0.0,0.0,0.0,0.0,0.0,0.0,0.0,0.0,0.0,0.0,0.0,0.0,0.0,0.0,0.0,0.0,0.0,0.0,0.0,0.0,0.0,0.0,0.0,0.0,0.0,0.0,0.0,0.0,0.0,0.0,0.0,0.0,0.0,0.0,0.0,-1.027,-1.1339,-1.2321,-1.3178,-1.321,-1.321,-1.3198,-1.2707,-1.1913,0.0,0.0,0.0,0.0,0.0,0.0,0.0,0.0,0.0,0.0,0.0,0.0,0.0,0.0,0.0,0.0,0.0,0.0,0.0,0.0,0.0,0.0,0.0,0.0,0.0,0.0,0.0,0.0,0.0,0.0,0.0,0.0,0.0,0.0,0.0,0.0,0.0,0.0,0.0,0.0,-0.4289,-0.4456,-0.49,0.0,0.0,0.0,0.0,0.0,0.0,-0.3638,-0.3444,0.0,0.0,0.0,0.0,0.0,0.0,0.0,0.0,0.0,0.0,0.0,0.0,0.0,0.0,0.0,0.0,0.0,0.0,0.0,0.0,0.0,0.0,0.0,0.0,0.0,0.0,0.0,0.0,0.0,0.0,0.0,0.0,0.0,0.0,0.0,0.0,0.0,0.0,0.0,0.0,0.0,0.0,0.0,0.0,0.0,0.0,0.0,0.0,0.0,0.0,0.0,0.0,0.0,0.0,0.0,-1.0341,-1.2049,-1.3095,-1.3319,-1.3323,-1.3301,-1.3198,-1.2772,-1.2077,0.0,0.0,0.0,0.0,0.0,0.0,0.0,0.0,0.0,0.0,0.0,0.0,0.0,0.0,0.0,0.0,0.0,0.0,0.0,0.0,0.0,0.0,0.0,0.0,0.0,0.0,0.0,0.0,0.0,0.0,0.0,0.0,0.0,0.0,0.0,0.0,0.0,0.0,0.0,0.0,0.0,-0.5752,-0.564,-0.5376,0.0,0.0,0.0,0.0,-0.4583,-0.4514,0.0,0.0,0.0,0.0,0.0,0.0,0.0,0.0,0.0,0.0,0.0,0.0,0.0,0.0,0.0,0.0,0.0,0.0,0.0,0.0,0.0,0.0,0.0,0.0,0.0,0.0,0.0,0.0,0.0,0.0,0.0,0.0,0.0,0.0,0.0,0.0,0.0,0.0,0.0,0.0,0.0,0.0,0.0,0.0,0.0,0.0,0.0,0.0,0.0,0.0,0.0,0.0,0.0,0.0,0.0,0.0,-1.1617,-1.2429,-1.3138,-1.3786,-1.3818,-1.3632,-1.3215,-1.3135,-1.2461,0.0,0.0,0.0,0.0,0.0,0.0,0.0,0.0,0.0,0.0,0.0,0.0,0.0,0.0,0.0,0.0,0.0,0.0,0.0,0.0,0.0,0.0,0.0,0.0,0.0,0.0,0.0,0.0,0.0,0.0,0.0,0.0,0.0,0.0,0.0,0.0,0.0,0.0,0.0,0.0,0.0,-0.6585,-0.6089,-0.6104,-0.5952,0.0,0.0,-0.5974,-0.6326,-0.6046,0.0,0.0,0.0,0.0,0.0,0.0,0.0,0.0,0.0,0.0,0.0,0.0,0.0,0.0,0.0,0.0,0.0,0.0,0.0,0.0,0.0,0.0,0.0,0.0,0.0,0.0,0.0,0.0,0.0,0.0,0.0,0.0,0.0,0.0,0.0,0.0,0.0,0.0,0.0,0.0,0.0,0.0,0.0,0.0,0.0,0.0,0.0,0.0,0.0,0.0,0.0,0.0,0.0,0.0,0.0,-1.0954,-1.191,-1.3347,-1.4159,-1.4235,-1.423,-1.4049,-1.3598,-1.3275,-1.2529,0.0,0.0,0.0,0.0,0.0,0.0,0.0,0.0,0.0,0.0,0.0,0.0,0.0,0.0,0.0,0.0,0.0,0.0,0.0,0.0,0.0,0.0,0.0,0.0,0.0,0.0,0.0,0.0,0.0,0.0,0.0,0.0,0.0,0.0,0.0,0.0,0.0,0.0,0.0,0.0,0.0,0.0,-0.7038,-0.7234,0.0,0.0,0.0,-0.6864,-0.7413,0.0,0.0,0.0,0.0,0.0,0.0,0.0,0.0,0.0,0.0,0.0,0.0,0.0,0.0,0.0,0.0,0.0,0.0,0.0,0.0,0.0,0.0,0.0,0.0,0.0,0.0,0.0,0.0,0.0,0.0,0.0,0.0,0.0,0.0,0.0,0.0,0.0,0.0,0.0,0.0,0.0,0.0,0.0,0.0,0.0,0.0,0.0,0.0,0.0,0.0,0.0,0.0,0.0,0.0,0.0,0.0,0.0,-1.2633,-1.4385,-1.5232,-1.514,-1.4812,-1.4475,-1.4133,-1.3531,0.0,0.0,0.0,0.0,0.0,0.0,0.0,0.0,0.0,0.0,0.0,0.0,0.0,0.0,0.0,0.0,0.0,0.0,0.0,0.0,0.0,0.0,0.0,0.0,0.0,0.0,0.0,-0.187,0.0,0.0,0.0,0.0,0.0,0.0,0.0,0.0,0.0,0.0,0.0,0.0,0.0,0.0,-0.8426,-0.8399,-0.8473,-0.902,0.0,0.0,-0.8353,-0.8651,-0.8161,-0.7439,0.0,0.0,0.0,0.0,0.0,0.0,0.0,0.0,0.0,0.0,0.0,0.0,0.0,0.0,0.0,0.0,0.0,0.0,0.0,0.0,0.0,0.0,0.0,0.0,0.0,0.0,0.0,0.0,0.0,0.0,0.0,0.0,0.0,0.0,0.0,0.0,0.0,0.0,0.0,0.0,0.0,0.0,0.0,0.0,0.0,0.0,0.0,0.0,0.0,0.0,0.0,0.0,0.0,0.0,0.0,-1.4563,-1.5353,-1.6142,-1.6841,-1.5708,-1.494,-1.4738,-1.4143,-1.3144,0.0,0.0,0.0,0.0,0.0,0.0,0.0,0.0,0.0,0.0,0.0,0.0,0.0,0.0,0.0,0.0,0.0,0.0,0.0,0.0,0.0,0.0,0.0,0.0,0.0,0.0,0.0,0.0,0.0,0.0,0.0,0.0,0.0,0.0,0.0,0.0,0.0,0.0,0.0,0.0,0.0,-0.9777,-1.0221,-0.9866,-0.9753,0.0,-1.0861,-1.0951,-1.0407,-0.9569,-0.8693,-0.7817,0.0,0.0,0.0,0.0,0.0,0.0,0.0,0.0,0.0,0.0,0.0,0.0,0.0,0.0,0.0,0.0,0.0,0.0,0.0,0.0,0.0,0.0,0.0,0.0,0.0,0.0,0.0,0.0,0.0,0.0,0.0,0.0,0.0,0.0,0.0,0.0,0.0,0.0,0.0,0.0,0.0,0.0,0.0,0.0,0.0,0.0,0.0,0.0,0.0,0.0,0.0,0.0,0.0,-1.2792,-1.4781,-1.583,-1.6709,-1.7412,-1.6968,-1.6342,-1.5616,-1.5145,-1.3987,0.0,0.0,0.0,0.0,0.0,0.0,0.0,0.0,0.0,0.0,0.0,0.0,0.0,0.0,0.0,0.0,0.0,0.0,0.0,0.0,0.0,0.0,0.0,0.0,0.0,0.0,0.0,0.0,-0.3522,-0.3922,-0.3793,0.0,0.0,0.0,0.0,0.0,0.0,0.0,0.0,0.0,0.0,-1.0503,-1.0498,-1.1249,0.0,0.0,-1.2355,-1.2324,-1.1806,-1.0656,-0.9627,-0.9011,-0.7917,0.0,0.0,0.0,0.0,0.0,0.0,0.0,0.0,0.0,0.0,0.0,0.0,0.0,0.0,0.0,0.0,0.0,0.0,0.0,0.0,0.0,0.0,0.0,0.0,0.0,0.0,0.0,0.0,0.0,0.0,0.0,0.0,0.0,0.0,0.0,0.0,0.0,0.0,0.0,0.0,0.0,0.0,0.0,0.0,0.0,0.0,0.0,0.0,0.0,0.0,0.0,0.0,-1.2882,-1.5079,-1.6159,-1.7234,-1.8281,-1.7908,-1.7297,-1.6436,-1.5943,-1.4735,0.0,0.0,0.0,0.0,0.0,0.0,0.0,0.0,0.0,0.0,0.0,0.0,0.0,0.0,0.0,0.0,0.0,0.0,0.0,0.0,0.0,0.0,0.0,0.0,0.0,0.0,0.0,0.0,-0.4261,-0.4833,-0.4828,0.0,0.0,0.0,0.0,0.0,0.0,0.0,0.0,0.0,0.0,-1.1256,-1.1305,-1.2396,-1.321,-1.321,-1.321,-1.3015,-1.2537,-1.1507,-1.0504,-0.9741,0.0,0.0,0.0,0.0,0.0,0.0,0.0,0.0,0.0,0.0,0.0,0.0,0.0,0.0,0.0,0.0,0.0,0.0,0.0,0.0,0.0,0.0,0.0,0.0,0.0,0.0,0.0,-0.8298,0.0,0.0,-0.8631,0.0,0.0,0.0,0.0,0.0,0.0,0.0,0.0,0.0,0.0,0.0,0.0,0.0,0.0,0.0,0.0,0.0,0.0,0.0,0.0,0.0,0.0,-1.3148,-1.5739,-1.6428,-1.7669,-1.951,-1.8388,-1.7533,-1.7093,-1.6434,-1.531,-1.3678,0.0,0.0,0.0,0.0,0.0,0.0,0.0,0.0,0.0,0.0,0.0,0.0,0.0,0.0,0.0,0.0,0.0,0.0,0.0,0.0,0.0,0.0,0.0,0.0,0.0,0.0,-0.3975,-0.4099,-0.4592,0.0,0.0,0.0,0.0,0.0,0.0,0.0,0.0,0.0,-1.0925,-1.1524,-1.2108,-1.2992,-1.3173,-1.3215,-1.3245,-1.3228,-1.3023,-1.2509,-1.2111,-1.1355,0.0,0.0,0.0,0.0,0.0,0.0,0.0,0.0,0.0,0.0,0.0,0.0,0.0,0.0,0.0,0.0,0.0,0.0,0.0,0.0,0.0,0.0,0.0,0.0,0.0,0.0,0.0,-1.243,-1.1428,0.0,0.0,0.0,0.0,0.0,0.0,0.0,0.0,0.0,0.0,0.0,-1.6726,-1.708,0.0,0.0,0.0,0.0,0.0,0.0,0.0,0.0,0.0,0.0,0.0,0.0,-1.4201,-1.6323,-1.7489,-1.8583,-1.9648,-1.9256,-1.8738,-1.8172,-1.7255,-1.5489,-1.2791,0.0,0.0,0.0,0.0,0.0,0.0,0.0,0.0,0.0,0.0,0.0,0.0,0.0,0.0,0.0,0.0,0.0,0.0,0.0,0.0,0.0,0.0,0.0,0.0,0.0,-0.5773,0.0,0.0,0.0,0.0,0.0,0.0,0.0,0.0,0.0,0.0,0.0,-1.034,-1.1459,-1.1834,-1.2295,-1.311,-1.321,-1.3408,0.0,0.0,0.0,0.0,0.0,0.0,0.0,0.0,0.0,0.0,0.0,0.0,0.0,0.0,-0.9569,-0.7491,-0.6719,-0.6523,-0.6847,0.0,0.0,0.0,0.0,0.0,0.0,0.0,0.0,0.0,0.0,0.0,0.0,0.0,0.0,-1.5266,-1.4636,-1.4055,0.0,0.0,0.0,0.0,0.0,0.0,0.0,0.0,-1.7903,-1.8794,-1.8743,-1.9211,-1.9163,-1.873,-1.8057,-1.6398,0.0,0.0,0.0,0.0,0.0,0.0,0.0,0.0,-1.5098,-1.698,-1.8132,-1.9031,-1.9678,-1.9723,-1.9375,-1.8717,-1.7556,-1.5695,-1.3021,-1.1733,-1.0648,0.0,0.0,0.0,0.0,0.0,0.0,0.0,0.0,0.0,0.0,0.0,0.0,0.0,0.0,0.0,0.0,0.0,0.0,0.0,0.0,0.0,0.0,0.0,-0.6614,0.0,0.0,0.0,0.0,0.0,0.0,0.0,0.0,0.0,-1.158,-1.1666,-1.2098,-1.328,-1.3329,-1.3359,-1.3609,0.0,0.0,0.0,0.0,0.0,0.0,0.0,-1.3229,-1.299,-1.265,-1.2256,-1.1841,-1.0977,-1.0723,-1.1921,0.0,0.0,-0.9047,-0.8513,-0.8499,-0.8537,-0.831,-0.8323,-0.8997,-0.9082,-0.9032,0.0,0.0,0.0,0.0,-1.7038,0.0,0.0,0.0,-1.7124,-1.7441,0.0,-1.7241,0.0,0.0,0.0,0.0,-1.5141,-1.7594,0.0,0.0,-2.0554,-2.144,-2.0853,-2.0838,-2.0808,-2.0733,-2.0109,-1.9076,-1.7669,-1.5262,0.0,0.0,0.0,0.0,0.0,0.0,-1.5815,-1.7667,-1.8418,-1.9046,-1.9678,-1.9723,-1.9378,-1.8702,-1.7428,-1.5995,-1.4442,-1.3897,-1.2775,-1.0782,-0.9693,0.0,0.0,0.0,0.0,0.0,0.0,0.0,0.0,0.0,0.0,0.0,0.0,0.0,0.0,0.0,0.0,0.0,0.0,0.0,0.0,-0.6768,0.0,0.0,0.0,0.0,0.0,0.0,0.0,0.0,0.0,0.0,-1.4269,-1.4189,-1.4671,-1.6254,0.0,0.0,0.0,0.0,-1.4905,-1.9043,-1.858,-1.7259,-1.5872,-1.6089,-1.5875,-1.4342,0.0,0.0,-1.3539,-1.3185,-1.3118,-1.3203,-1.3881,-1.3927,-1.2019,-1.0986,-1.07,-1.1322,-1.087,-1.0892,-1.184,-1.1725,-1.1537,-2.4408,0.0,0.0,0.0,0.0,-2.0996,-2.1528,-2.2366,-2.2366,-2.1686,-2.0562,-2.0385,0.0,0.0,0.0,0.0,0.0,0.0,-2.1011,-2.1355,-2.3011,-2.3663,-2.3483,-2.3483,-2.3229,-2.2757,-2.2134,-2.1141,-1.9851,-1.9089,-1.7101,-1.4004,0.0,0.0,0.0,0.0,-1.737,-1.8386,-1.9076,-1.9513,-1.9675,-1.9723,-1.9393,-1.8717,-1.7878,-1.6822,-1.5628,-1.4644,-1.3728,-1.2816,-1.1119,0.0,0.0,0.0,0.0,0.0,0.0,0.0,0.0,0.0,0.0,0.0,0.0,0.0,0.0,0.0,0.0,0.0,0.0,0.0,-0.7787,-0.82,-0.8446,0.0,0.0,0.0,0.0,0.0,0.0,0.0,0.0,0.0,-1.6139,-1.6056,-1.5962,0.0,0.0,-1.6135,-1.5965,-1.7014,-1.8284,-1.9516,-1.9375,0.0,-1.6908,-1.6219,-1.5842,-1.5775,-1.618,-1.5757,-1.3582,-1.321,-1.321,-1.3245,-1.4436,-1.5109,-1.4154,-1.2948,-1.2179,-1.2058,-1.2052,-1.2197,-1.2554,-1.2853,-1.2806,-2.8053,-2.5368,-2.4425,-2.4275,-2.4635,-2.4635,-2.5084,-2.5794,-2.5794,-2.5121,-2.4036,-2.3744,-2.2458,-2.0419,-1.9896,0.0,0.0,0.0,-2.3071,-2.3505,-2.45,-2.4993,-2.4993,-2.4993,-2.4807,-2.4358,-2.3475,-2.2637,-2.1859,-2.135,-1.9779,-1.7221,0.0,0.0,-1.7761,-1.8523,-1.9208,-1.9869,-2.0019,-2.0109,-2.0079,-1.9842,-1.9375,-1.8717,-1.8057,-1.7272,-1.6354,-1.5226,-1.4414,-1.394,-1.2595,-1.1464,0.0,0.0,0.0,0.0,0.0,0.0,0.0,0.0,0.0,0.0,0.0,-0.4497,-0.3729,0.0,0.0,0.0,-0.7299,-0.8616,-0.919,-0.9767,0.0,0.0,0.0,0.0,0.0,0.0,0.0,-1.3147,-1.4227,-1.5608,-1.7731,-1.8104,-1.8076,-1.7816,-1.7773,-1.7755,-1.7773,0.0,-1.9723,-1.9723,-1.9723,-1.9334,-1.8305,-1.7626,-1.7358,-1.7683,-1.7188,-1.6721,-1.5992,-1.5104,-1.4478,-1.4468,-1.5506,-1.6278,-1.5417,-1.492,-1.4354,-1.3344,-1.3294,-1.3513,-1.3671,-1.3879,-1.3823,-3.0971,-2.9816,-2.8573,-2.7929,-2.775,-2.7764,-2.775,-2.7764,-2.7764,-2.7735,-2.763,-2.7046,-2.6048,-2.4769,-2.3631,0.0,-2.3191,-2.4321,-2.4874,-2.4933,-2.5501,-2.5764,-2.5764,-2.5696,-2.5651,-2.5644,-2.4373,-2.3759,-2.3699,-2.2532,-2.162,-2.1002,-2.0352,-2.0243,-2.0658,-2.0733,-2.1096,-2.168,-2.1096,-2.0748,-2.0673,-2.0094,-1.945,-1.8807,-1.8087,-1.7413,-1.6801,-1.5739,-1.4934,-1.4442,-1.3983,-1.2858,-1.0923,0.0,0.0,0.0,0.0,0.0,0.0,0.0,0.0,0.0,0.0,0.0,0.0,0.0,0.0,0.0,-0.8978,0.0,-1.0783,-1.1322,0.0,0.0,0.0,-1.1842,-1.1977,-1.2824,-1.3852,-1.5016,0.0,0.0,-1.914,-2.0163,-2.0572,-1.9932,-1.9768,-1.9723,-1.9723,-1.9675,-1.9723,-1.9723,-1.9723,-1.9723,-1.9537,-1.9504,-1.9456,-1.9453,-1.8473,-1.807,-1.903,-1.8035,-1.6682,-1.6231,-1.7041,-1.74,-1.6203,-1.6876,-1.7086,-1.5121,-1.4711,-1.4794,-1.5002,-1.4836,-1.482,-3.2841,-3.2572,-3.2213,-3.0969,-2.9142,-2.9142,-2.9142,-2.9101,-2.9142,-2.8843,-2.8353,-2.8203,-2.7675,-2.6881,-2.6566,-2.6716,-2.7186,-2.7001,-2.7156,-2.7619,-2.726,-2.7121,-2.7081,-2.6626,-2.6348,-2.6303,-2.5525,-2.5136,-2.5091,-2.4306,-2.3842,-2.3648,-2.2996,-2.2009,-2.0763,-2.1201,-2.1545,-2.1695,-2.153,-2.1216,-2.0718,-2.0543,-2.0139,-1.9483,-1.8311,-1.7623,-1.7459,-1.6278,-1.5565,-1.543,-1.4615,-1.3697,-1.2684,-1.066,0.0,0.0,0.0,0.0,0.0,0.0,0.0,0.0,0.0,-0.7001,-0.5663,0.0,-0.848,0.0,-0.9567,-1.0906,-1.1899,-1.2112,0.0,0.0,-1.3582,-1.3949,-1.5192,-1.5138,-1.5806,-1.7835,-1.8444,-1.929,-2.0892,-2.1292,-2.141,-2.1235,-2.0352,-1.9723,-1.9723,-1.9723,-1.9723,-1.9723,-1.9723,-1.9723,-1.9723,-1.9723,-1.9723,-1.9708,-1.9363,-1.9298,-1.9624,-1.931,-1.8901,-1.8745,-1.842,-1.8135,-1.7791,-1.7775,-1.7575,-1.701,-1.6535,-1.6051,-1.5728,-1.5566,-1.5551,-3.3754,-3.3499,-3.3499,-3.2647,-3.13,-3.1016,-3.0717,-3.0462,-3.0462,-3.0073,-2.943,-2.916,-2.8858,-2.8513,-2.8483,-2.8693,-2.9022,-2.8663,-2.8693,-2.8996,-2.8364,-2.8049,-2.7993,-2.736,-2.7061,-2.7031,-2.6363,-2.6048,-2.6019,-2.5367,-2.5038,-2.5023,-2.4365,-2.3498,-2.2482,-2.2517,-2.2547,-2.2547,-2.2263,-2.1829,-2.1171,-2.0853,-2.0378,-1.969,-1.8702,-1.7878,-1.7279,-1.6577,-1.6069,-1.5784,-1.4973,-1.429,-1.376,-1.1978,-1.0533,0.0,0.0,0.0,0.0,0.0,0.0,0.0,0.0,0.0,0.0,0.0,-0.9541,-0.9755,-1.1208,-1.2414,-1.3074,-1.3799,-1.4605,-1.5548,-1.5748,-1.6332,-1.7604,-1.7395,-1.7871,-1.9686,-1.9904,-2.0459,-2.1918,-2.2149,-2.2248,-2.2488,-2.165,-2.0696,-1.9932,-2.0168,-2.0378,-1.9809,-1.9723,-1.9723,-1.9723,-1.9723,-1.9723,-1.9723,-1.9723,-1.9723,-1.9723,-1.9723,-1.9723,-1.9678,-1.9303,-1.8839,-1.8495,-1.8553,-1.8433,-1.7833,-1.7652,-1.725,-1.6398,-1.5994,-1.5814,-3.4294,-3.3754,-3.3754,-3.3709,-3.3589,-3.3006,-3.2377,-3.175,-3.1675,-3.1241,-3.0597,-3.0058,-2.9834,-2.9861,-2.9819,-2.9861,-2.9819,-2.9771,-2.9726,-2.9696,-2.9026,-2.8697,-2.8577,-2.8004,-2.769,-2.757,-2.7016,-2.6746,-2.6692,-2.6048,-2.5734,-2.5704,-2.5053,-2.4679,-2.4575,-2.4029,-2.3684,-2.3595,-2.3071,-2.2473,-2.1829,-2.1166,-2.0528,-1.9857,-1.9016,-1.8027,-1.689,-1.6741,-1.6428,-1.5844,-1.532,-1.4837,-1.4381,-1.3271,-1.2093,0.0,-1.0243,0.0,0.0,0.0,0.0,0.0,0.0,0.0,0.0,-1.0335,-1.0905,-1.2015,-1.3425,-1.4362,-1.4626,-1.5988,-1.6975,-1.724,-1.7978,-1.8763,-1.9492,-1.9493,-1.9877,-2.099,-2.1119,-2.1568,-2.264,-2.2808,-2.3032,-2.3385,-2.3062,-2.2149,-2.0741,-2.1126,-2.1276,-2.0109,-1.9962,-2.0112,-1.9932,-1.9872,-1.9842,-1.9753,-1.9723,-1.9723,-1.9723,-1.9723,-1.9723,-1.9723,-1.9678,-1.9423,-1.8689,-1.9199,-1.9241,-1.8267,-1.8356,-1.8192,-1.713,-1.6488,-1.6009,-3.5235,-3.513,-3.513,-3.4801,-3.4309,-3.4189,-3.3724,-3.308,-3.2557,-3.1929,-3.1316,-3.1197,-3.1137,-3.1137,-3.1137,-3.1152,-3.1092,-3.0582,-3.0328,-3.0298,-2.9684,-2.9116,-2.8607,-2.8472,-2.8113,-2.7615,-2.7465,-2.7405,-2.7405,-2.6746,-2.6408,-2.6393,-2.5749,-2.5128,-2.4634,0.0,0.0,0.0,-2.3475,-2.3137,-2.2508,-2.1864,-2.1201,-2.0494,-1.879,0.0,-1.7503,-1.6995,-1.6398,-1.5858,-1.6129,0.0,0.0,0.0,0.0,0.0,0.0,0.0,0.0,0.0,0.0,0.0,-1.3514,-1.3061,-1.1928,-1.2708,-1.3744,-1.4771,-1.5636,-1.6537,-1.7427,-1.8252,-1.9118,-1.9994,-2.0253,-2.0602,-2.1173,-2.1227,-2.1519,-2.2239,-2.2364,-2.2608,-2.3259,-2.343,-2.346,-2.3565,-2.349,-2.3295,-2.2877,-2.2398,-2.1964,-2.1425,-2.122,-2.1081,-2.0587,-2.0479,-2.0273,-1.9902,-1.9723,-1.9723,-1.9723,-1.9723,-1.9723,-1.9723,-1.9723,-1.9663,-1.9468,-1.9603,-1.9618,-1.9363,-1.8986,-1.8461,-1.7684,-1.7413,-1.7041,-3.5489,-3.5489,-3.5489,-3.531,0.0,-3.4981,-3.4786,-3.4427,-3.3425,-3.2632,-3.1974,-3.1645,-3.1496,-3.1496,-3.1496,-3.1496,-3.1496,-3.1137,-3.0987,-3.0971,-3.0342,-2.9864,-2.952,-2.8891,-2.8412,-2.8094,-2.7764,-2.7585,-2.757,-2.727,-2.7091,-2.7076,-2.6422,-2.5764,-2.5098,-2.4425,-2.3939,-2.3595,-2.3595,-2.3445,-2.3137,-2.2188,-2.138,-2.0707,-1.9405,0.0,0.0,0.0,0.0,0.0,0.0,0.0,0.0,0.0,0.0,-1.4761,-1.4342,-1.4098,-1.4056,-1.4642,-1.5096,-1.5283,-1.6229,-1.5988,-1.4047,-1.4983,-1.6036,-1.6848,-1.7762,-1.8522,-1.9141,-1.9731,-2.0426,-2.1281,-2.1336,-2.1626,-2.2431,-2.2388,-2.2463,-2.2996,-2.3152,-2.3266,-2.355,-2.3595,-2.3595,-2.3595,-2.3595,-2.3595,-2.3535,-2.2966,-2.2323,-2.1784,-2.1695,-2.1575,-2.1226,-2.0868,-2.0647,-2.0258,-1.9932,-1.9738,-1.9723,-1.9723,-1.9723,-1.9723,-1.9723,-1.9723,-1.9723,-1.9723,-1.9723,-1.9693,-1.9438,-1.9121,-1.8717,-1.8162,-1.7474,-3.5489,-3.5489,-3.5489,-3.5489,-3.5489,-3.5489,-3.5489,-3.5415,-3.4203,0.0,0.0,-3.1959,-3.1675,-3.166,-3.1555,-3.1496,-3.1496,-3.1496,-3.1496,-3.1481,-3.0928,-3.0627,-3.0447,-2.9325,-2.8712,-2.8577,-2.7929,-2.7585,-2.7585,-2.7585,-2.7585,-2.7555,-2.7046,-2.6378,-2.5561,-2.4388,-2.3714,-2.361,-2.3595,-2.3595,-2.3565,-2.2473,-2.1545,-2.0897,-2.0109,-1.9121,-1.7938,-1.8418,-1.8132,-1.695,-1.6503,-1.6473,-1.6846,-1.6413,-1.644,-1.7153,-1.7207,-1.6972,-1.6447,-1.7134,-1.7575,-1.7591,-1.851,-1.8327,-1.6468,-1.7226,-1.8107,-1.8841,-1.9744,-2.0352,-2.0543,-2.1054,-2.1588,-2.2155,-2.2111,-2.2473,-2.3385,-2.3182,-2.3026,-2.349,-2.3565,-2.3595,-2.3595,-2.3595,-2.3595,-2.3595,-2.3595,-2.3595,-2.3535,-2.3191,-2.2712,-2.2263,-2.2218,-2.2069,-2.1829,-2.15,-2.1006,-2.0707,-2.0228,-1.9872,-1.9738,-1.9723,-1.9723,-1.9723,-1.9723,-1.9723,-1.9723,-1.9723,-1.9723,-1.9723,-1.9723,-1.9723,-1.9633,-1.8852,-1.7984,-3.5504,-3.5489,-3.5489,-3.5489,-3.5489,-3.5489,-3.5489,-3.5444,-3.4666,-3.3994,-3.332,-3.2662,-3.2363,-3.2318,-3.175,-3.1496,-3.1496,-3.1496,-3.1496,-3.1496,-3.1406,-3.1047,-3.0477,-2.9789,-2.9172,-2.8577,-2.7929,-2.7585,-2.7585,-2.7585,-2.7585,-2.7585,-2.751,-2.6836,-2.5621,-2.4829,-2.4171,-2.361,-2.3595,-2.3595,-2.358,-2.2927,-2.2239,-2.1545,-2.0367,-1.9363,-1.8597,-1.8672,-1.8358,-1.7608,-1.8044,-1.8089,-1.7594,-1.7474,-1.7472,-1.7602,-1.7617,-1.7587,-1.7528,-1.8616,-1.9815,-2.0829,-2.0364,-1.9683,-1.9217,-1.9478,-2.0153,-2.1093,-2.1445,-2.182,-2.2283,-2.2819,-2.3152,-2.3308,-2.3327,-2.3415,-2.3595,-2.3505,-2.346,-2.358,-2.3595,-2.3595,-2.3595,-2.3595,-2.3595,-2.3595,-2.3595,-2.3595,-2.358,-2.352,-2.343,-2.334,-2.3325,-2.3101,-2.2658,-2.2508,-2.1904,-2.0872,-2.0658,-2.0348,-1.9783,-1.9723,-1.9723,-1.9723,-1.9723,-1.9723,-1.9723,-1.9723,-1.9723,-1.9723,-1.9723,-1.9723,-1.9723,-1.9435,-1.9094,-3.5833,-3.5504,-3.5489,-3.5489,-3.5489,-3.5489,-3.5489,-3.5474,-3.5175,-3.4698,-3.3993,-3.3335,-3.3051,-3.2991,-3.2333,-3.2034,-3.2019,-3.166,-3.1496,-3.1496,-3.1496,-3.1346,-3.0957,-3.0043,-2.943,-2.9071,-2.8094,-2.7585,-2.7585,-2.7585,-2.7585,-2.757,-2.7255,-2.6557,-2.563,-2.4933,-2.4261,-2.361,-2.3595,-2.3595,-2.358,-2.3017,-2.2553,-2.2254,-2.1276,-2.0647,-2.0333,-1.9989,-1.9462,-1.8822,-1.87,-1.8568,-1.8267,-1.8237,-1.8551,-1.9268,-1.9328,-1.9492,-1.9854,-2.0453,-2.1036,-2.165,-2.1586,-2.1459,-2.1346,-2.1162,-2.139,-2.2166,-2.2598,-2.2926,-2.3155,-2.343,-2.3595,-2.3595,-2.3595,-2.3595,-2.3595,-2.3595,-2.3595,-2.3595,-2.3595,-2.3595,-2.3595,-2.3595,-2.3595,-2.3595,-2.3595,-2.361,-2.3625,-2.361,-2.361,-2.3595,-2.3595,-2.349,-2.3206,-2.2897,-2.2463,-2.1844,-2.1485,-2.0857,-1.9992,-1.9723,-1.9723,-1.9723,-1.9723,-1.9723,-1.9723,-1.9723,-1.9723,-1.9723,-1.9723,-1.9723,-1.9723,-1.9723,-1.9318,-3.6207,-3.5729,-3.5564,-3.5489,-3.5489,-3.5489,-3.5489,-3.5489,-3.5489,-3.5205,-3.4651,-3.4008,-3.3724,-3.3634,-3.2871,-3.2497,-3.2392,-3.1809,-3.1496,-3.1496,-3.1496,-3.1496,-3.1391,-3.0328,-2.9789,-2.9666,-2.8442,-2.7824,-2.7809,-2.7675,-2.7585,-2.754,-2.7076,-2.6507,-2.5824,-2.5158,-2.4485,-2.3864,-2.367,-2.3595,-2.358,-2.3116,-2.2838,-2.2673,-2.2209,-2.1879,-2.168,-2.1201,-2.0692,-2.0172,-1.966,-1.9375,-1.9375,-1.9375,-1.9839,-2.0812,-2.0946,-2.1231,-2.1844,-2.1939,-2.1979,-2.2128,-2.2613,-2.2912,-2.2856,-2.253,-2.2444,-2.2873,-2.3289,-2.3558,-2.3565,-2.3595,-2.3595,-2.3595,-2.3595,-2.3595,-2.361,-2.3759,-2.3811,-2.3684,-2.3708,-2.3804,-2.364,-2.3595,-2.367,-2.3834,-2.3834,-2.3864,-2.3999,-2.3954,-2.3834,-2.3804,-2.3714,-2.3595,-2.358,-2.3251,-2.2882,-2.2748,-2.2283,-2.1505,-2.0561,-2.0007,-1.9723,-1.9723,-1.9723,-1.9723,-1.9723,-1.9723,-1.9723,-1.9723,-1.9723,-1.9723,-1.9723,-1.9723,-1.9453,-3.6462,-3.6312,-3.5774,-3.5489,-3.5489,-3.5489,-3.5489,-3.5489,-3.5489,-3.5489,-3.5295,-3.4696,-3.4414,-3.4249,-3.3095,-3.2527,-3.2467,-3.1809,-3.1496,-3.1496,-3.1496,-3.1496,-3.1436,-3.0746,-3.0417,-3.0238,-2.9101,-2.8487,-2.8397,-2.7884,-2.7585,-2.7585,-2.754,-2.7151,-2.6497,-2.5839,-2.5173,-2.4515,-2.3924,-2.3595,-2.3595,-2.355,-2.3236,-2.2718,-2.2658,-2.2328,-2.1799,-2.1635,-2.1575,-2.1515,-2.141,-2.1395,-2.1365,-2.1395,-2.1455,-2.159,-2.162,-2.1889,-2.2523,-2.2598,-2.2838,-2.334,-2.343,-2.3475,-2.349,-2.3447,-2.3462,-2.3505,-2.3535,-2.3595,-2.3595,-2.3595,-2.3595,-2.3595,-2.3595,-2.3595,-2.3684,-2.4365,-2.456,-2.367,-2.4156,-2.4291,-2.3864,-2.3774,-2.3909,-2.4335,-2.447,-2.4687,-2.5061,-2.4822,-2.4455,-2.4365,-2.4044,-2.367,-2.3595,-2.358,-2.3251,-2.2838,-2.2673,-2.2254,-2.158,-2.0666,-1.9723,-1.9753,-1.9872,-1.9902,-1.9723,-1.9723,-1.9738,-1.9723,-1.9723,-1.9723,-1.9723,-1.9723,-1.9558,-3.7165,-3.6477,-3.6193,-3.5863,-3.5534,-3.5489,-3.5489,-3.5489,-3.5489,-3.5489,-3.5474,-3.5205,-3.5085,-3.5011,-3.3694,-3.3095,-3.3021,-3.1989,-3.1496,-3.1496,-3.1496,-3.1496,-3.1436,-3.0808,-3.0492,-3.0432,-2.9594,-2.9007,-2.8532,-2.7929,-2.7585,-2.7585,-2.7585,-2.7255,-2.6641,-2.6318,-2.5674,-2.4634,-2.4335,-2.4014,-2.3655,-2.3595,-2.3475,-2.3251,-2.3257,-2.3137,-2.2817,-2.2508,-2.2298,-2.2269,-2.1904,-2.1695,-2.1695,-2.1695,-2.1874,-2.2269,-2.2622,-2.2936,-2.3191,-2.3221,-2.3325,-2.358,-2.3595,-2.3595,-2.3595,-2.3595,-2.3595,-2.3595,-2.3595,-2.3595,-2.3595,-2.3595,-2.3595,-2.3595,-2.3595,-2.361,-2.361,-2.4313,-2.456,-2.4276,-2.4769,-2.5121,-2.4844,-2.4777,-2.4732,-2.4754,-2.4903,-2.5337,-2.557,-2.5352,-2.5038,-2.4679,-2.435,-2.4044,-2.3714,-2.3595,-2.346,-2.3295,-2.3221,-2.3041,-2.2772,-2.2508,-2.162,-2.0097,-2.0471,-2.0471,-1.9783,-2.0064,-2.0213,-2.0004,-1.9738,-1.9723,-1.9723,-1.9723,-1.9723,-3.7749,-3.6761,-3.6387,-3.5953,-3.5504,-3.5489,-3.5489,-3.5489,-3.5489,-3.5489,-3.5489,-3.5489,-3.5489,-3.534,-3.4277,-3.3679,-3.3365,-3.2273,-3.1675,-3.1525,-3.1496,-3.1496,-3.1436,-3.1002,-3.0776,-3.0687,-3.0148,-2.9415,-2.8637,-2.8154,-2.7794,-2.763,-2.7585,-2.736,-2.6886,-2.6707,-2.6123,-2.5217,-2.4814,-2.435,-2.3902,-2.3699,-2.3595,-2.3595,-2.3595,-2.3595,-2.358,-2.3197,-2.2942,-2.2942,-2.2473,-2.2218,-2.2218,-2.2218,-2.2428,-2.2897,-2.334,-2.3595,-2.3595,-2.3595,-2.3595,-2.3595,-2.3595,-2.3595,-2.3595,-2.3595,-2.3595,-2.3595,-2.3595,-2.3595,-2.3595,-2.3595,-2.367,-2.3819,-2.3744,-2.3699,-2.4148,-2.4619,-2.4889,-2.4933,-2.5457,-2.5794,-2.5644,-2.554,-2.5397,-2.5322,-2.5615,-2.5989,-2.6048,-2.6019,-2.5659,-2.4978,-2.4754,-2.4306,-2.3744,-2.3595,-2.3595,-2.3595,-2.355,-2.3535,-2.3595,-2.3565,-2.3445,-2.1739,-2.2009,-2.1919,-2.1365,-2.1306,-2.0782,-2.0378,-2.0124,-2.0052,-2.0082,-1.9902,-1.9738,-3.7988,-3.7225,-3.6073,-3.5579,-3.5489,-3.5489,-3.5489,-3.5489,-3.5489,-3.5489,-3.5489,-3.5489,-3.5489,-3.5444,-3.4741,-3.4129,-3.3455,-3.2751,-3.2064,-3.154,-3.1496,-3.1496,-3.1496,-3.1466,-3.1436,-3.1316,-3.0776,-2.9849,-2.8697,-2.8562,-2.8218,-2.763,-2.7585,-2.7585,-2.742,-2.6941,-2.6572,-2.6288,-2.5315,-2.4619,-2.45,-2.3969,-2.3684,-2.367,-2.3595,-2.3595,-2.3595,-2.3565,-2.3535,-2.355,-2.346,-2.346,-2.3475,-2.346,-2.346,-2.3535,-2.3565,-2.3595,-2.3595,-2.3595,-2.3595,-2.3595,-2.3595,-2.3595,-2.3595,-2.3595,-2.3595,-2.3595,-2.3595,-2.3595,-2.3684,-2.3729,-2.3939,-2.438,-2.4014,-2.4268,-2.5315,-2.5435,-2.5555,-2.5659,-2.6153,-2.6288,-2.5749,-2.56,-2.5959,-2.6243,-2.6482,-2.6707,-2.7106,-2.6871,-2.6333,-2.5734,-2.5113,-2.4395,-2.3804,-2.3595,-2.3595,-2.3595,-2.3595,-2.3595,-2.3595,-2.3565,-2.3385,-2.3325,-2.3206,-2.3101,-2.3026,-2.2473,-2.156,-2.1051,-2.0842,-2.0737,-2.0662,-2.0064,-1.9798,-3.8407,-3.7345,-3.6492,-3.5893,-3.5519,-3.5489,-3.5489,-3.5489,-3.5489,-3.5489,-3.5489,-3.5489,-3.5489,-3.5489,-3.525,-3.4532,-3.3484,-3.2811,-3.2138,-3.1555,-3.1496,-3.1496,-3.1496,-3.1496,-3.1496,-3.1466,-3.1227,-3.0492,-2.9295,-2.8816,-2.8248,-2.7705,-2.7585,-2.7585,-2.7555,-2.7375,-2.7046,-2.6611,-2.6093,-2.5689,-2.5247,-2.5001,-2.4679,-2.4231,-2.3819,-2.3595,-2.3595,-2.3595,-2.3595,-2.3595,-2.3595,-2.3595,-2.3595,-2.3595,-2.3595,-2.3595,-2.3595,-2.3595,-2.3595,-2.3595,-2.3595,-2.3595,-2.3595,-2.3595,-2.3595,-2.3595,-2.3595,-2.361,-2.361,-2.3744,-2.4141,-2.4231,-2.4335,-2.4545,-2.4784,-2.5046,-2.554,-2.5959,-2.6228,-2.6333,-2.6797,-2.6971,-2.6512,-2.6587,-2.6797,-2.6647,-2.6956,-2.73,-2.748,-2.736,-2.7091,-2.6866,-2.6303,-2.5659,-2.4986,-2.4059,-2.361,-2.3595,-2.3595,-2.3595,-2.3595,-2.3595,-2.3475,-2.3445,-2.358,-2.3385,-2.3041,-2.2577,-2.1799,-2.168,-2.1485,-2.1395,-2.1335,-2.0647,-2.0082,-3.8571,-3.7674,-3.6821,-3.6237,-3.5818,-3.5594,-3.5489,-3.5489,-3.5489,-3.5489,-3.5489,-3.5489,-3.5489,-3.5489,-3.5489,-3.4906,-3.3844,-3.3335,-3.2691,-3.1854,-3.1824,-3.1705,-3.1511,-3.1496,-3.1496,-3.1496,-3.1496,-3.0866,-2.9696,-2.9146,-2.8457,-2.7645,-2.7585,-2.7585,-2.7585,-2.7585,-2.7345,-2.6971,-2.6707,-2.6348,-2.5959,-2.5719,-2.5405,-2.4903,-2.4276,-2.3819,-2.3625,-2.3595,-2.3595,-2.3595,-2.3595,-2.3595,-2.3595,-2.3595,-2.3595,-2.3595,-2.3595,-2.3595,-2.3595,-2.3595,-2.3595,-2.3595,-2.3595,-2.3595,-2.361,-2.3789,-2.3887,-2.3954,-2.4178,-2.4455,-2.4814,-2.5113,-2.5247,-2.5262,-2.56,-2.5959,-2.6213,-2.6656,-2.6896,-2.6986,-2.727,-2.7315,-2.7066,-2.7345,-2.733,-2.6971,-2.733,-2.757,-2.7585,-2.7585,-2.7585,-2.7555,-2.718,-2.6452,-2.5719,-2.4822,-2.4253,-2.4178,-2.3714,-2.367,-2.3595,-2.3595,-2.3595,-2.3595,-2.3475,-2.3251,-2.2921,-2.2517,-2.2338,-2.2263,-2.2128,-2.2044,-2.1699,-2.1156,-2.0711,-3.8422,-3.8167,-3.703,-3.6507,-3.6312,-3.5759,-3.5489,-3.5489,-3.5489,-3.5489,-3.5489,-3.5489,-3.5489,-3.5489,-3.5489,-3.5115,-3.4562,-3.4444,-3.3649,-3.2467,-3.2407,-3.2064,-3.1525,-3.1496,-3.1496,-3.1496,-3.1496,-3.0866,-2.9741,-2.952,-2.8888,-2.7854,-2.7615,-2.7585,-2.7585,-2.7585,-2.7585,-2.7405,-2.6971,-2.6671,-2.6527,-2.6078,-2.5734,-2.557,-2.5061,-2.4455,-2.3759,-2.364,-2.3595,-2.3595,-2.3595,-2.3595,-2.3595,-2.3595,-2.3595,-2.3595,-2.3595,-2.3595,-2.3595,-2.3595,-2.3595,-2.3625,-2.3625,-2.3699,-2.3797,-2.4246,-2.4605,-2.4679,-2.5068,-2.5516,-2.5644,-2.6063,-2.6408,-2.6542,-2.6402,-2.6686,-2.7255,-2.754,-2.757,-2.7525,-2.757,-2.7585,-2.757,-2.757,-2.7525,-2.751,-2.754,-2.7585,-2.7585,-2.7585,-2.7585,-2.7585,-2.745,-2.7016,-2.6258,-2.557,-2.5173,-2.4784,-2.4141,-2.3789,-2.364,-2.3595,-2.3595,-2.3595,-2.3595,-2.3385,-2.3385,-2.3056,-2.3146,-2.3071,-2.2897,-2.2673,-2.2388,-2.1964,-2.1505,-3.8826,-3.8317,-3.7494,-3.6866,-3.6417,-3.5789,-3.5489,-3.5489,-3.5489,-3.5489,-3.5489,-3.5489,-3.5489,-3.5489,-3.5489,-3.5385,-3.519,-3.513,-3.4218,-3.2751,-3.2512,-3.2153,-3.1615,-3.1496,-3.1496,-3.1496,-3.1496,-3.1062,-3.0283,-2.9831,-2.9142,-2.8393,-2.7824,-2.76,-2.7585,-2.7585,-2.7585,-2.757,-2.739,-2.73,-2.7285,-2.7091,-2.6752,-2.6363,-2.6522,-2.6138,-2.5031,-2.4103,-2.3625,-2.3625,-2.3595,-2.3595,-2.3595,-2.3595,-2.3595,-2.3595,-2.3595,-2.3595,-2.3595,-2.361,-2.3625,-2.3684,-2.4029,-2.4261,-2.435,-2.4903,-2.5262,-2.5277,-2.551,-2.5749,-2.6198,-2.6437,-2.6641,-2.6602,-2.6956,-2.7225,-2.751,-2.7585,-2.7585,-2.7585,-2.7585,-2.7585,-2.7585,-2.7585,-2.7585,-2.7585,-2.7585,-2.7585,-2.7585,-2.7585,-2.7585,-2.7585,-2.7525,-2.7495,-2.6926,-2.6393,-2.6033,-2.5486,-2.4814,-2.4148,-2.3924,-2.3595,-2.3595,-2.3595,-2.3595,-2.3595,-2.3595,-2.3595,-2.3595,-2.3595,-2.331,-2.3206,-2.3206,-2.2832,-2.2269,-3.917,-3.8691,-3.7793,-3.7195,-3.6716,-3.5908,-3.5489,-3.5489,-3.5489,-3.5489,-3.5489,-3.5489,-3.5489,-3.5489,-3.5489,-3.5489,-3.5489,-3.5489,-3.4711,-3.335,-3.2946,-3.2527,-3.1884,-3.16,-3.1496,-3.1496,-3.1496,-3.1152,-3.0507,-3.0088,-2.9475,-2.8652,-2.8158,-2.7824,-2.763,-2.7585,-2.7585,-2.7585,-2.7585,-2.7585,-2.7585,-2.7585,-2.7405,-2.7076,-2.7151,-2.6806,-2.5944,-2.4911,-2.4223,-2.3984,-2.3759,-2.361,-2.3595,-2.3595,-2.3595,-2.3595,-2.3595,-2.3595,-2.361,-2.3864,-2.3962,-2.4081,-2.459,-2.4963,-2.5083,-2.5576,-2.5944,-2.5974,-2.6243,-2.6512,-2.6896,-2.6961,-2.6971,-2.6961,-2.733,-2.757,-2.7585,-2.7585,-2.7585,-2.7585,-2.7585,-2.7585,-2.7585,-2.7585,-2.7585,-2.7585,-2.7585,-2.7585,-2.7585,-2.7585,-2.7585,-2.7585,-2.757,-2.7555,-2.7555,-2.7225,-2.6896,-2.6258,-2.5561,-2.4911,-2.4455,-2.3849,-2.3595,-2.3595,-2.3595,-2.3595,-2.3595,-2.3595,-2.3595,-2.3595,-2.3595,-2.352,-2.34,-2.3251,-2.2832,-3.9388,-3.9245,-3.7958,-3.7389,-3.718,-3.6028,-3.5489,-3.5489,-3.5489,-3.5489,-3.5489,-3.5489,-3.5489,-3.5489,-3.5489,-3.5489,-3.5489,-3.5489,-3.519,-3.4442,-3.3844,-3.3155,-3.2422,-3.178,-3.1511,-3.1496,-3.1496,-3.1167,-3.0702,-3.0477,-2.9909,-2.8951,-2.8652,-2.8278,-2.7839,-2.7645,-2.7585,-2.7585,-2.7585,-2.7585,-2.7585,-2.7585,-2.7585,-2.751,-2.7076,-2.6752,-2.6587,-2.5944,-2.5277,-2.4679,-2.4066,-2.3804,-2.3744,-2.3699,-2.3729,-2.3864,-2.3744,-2.3834,-2.3909,-2.4335,-2.4664,-2.4694,-2.527,-2.5636,-2.5749,-2.6243,-2.6647,-2.6677,-2.7121,-2.7465,-2.751,-2.751,-2.751,-2.757,-2.7555,-2.7585,-2.7585,-2.7585,-2.7585,-2.7585,-2.7585,-2.7645,-2.7705,-2.7705,-2.763,-2.772,-2.769,-2.7585,-2.7585,-2.7585,-2.7585,-2.7585,-2.76,-2.7585,-2.757,-2.7525,-2.7195,-2.6956,-2.6333,-2.5809,-2.4994,-2.4283,-2.361,-2.3595,-2.3699,-2.367,-2.361,-2.361,-2.361,-2.3595,-2.3595,-2.3595,-2.3535,-2.34,-2.334,-3.9388,-3.9239,-3.7973,-3.7404,-3.7225,-3.6058,-3.5489,-3.5489,-3.5489,-3.5489,-3.5489,-3.5489,-3.5489,-3.5489,-3.5489,-3.5489,-3.5489,-3.5489,-3.5459,-3.516,-3.4563,-3.3574,-3.2587,-3.1839,-3.1511,-3.1511,-3.1496,-3.1421,-3.1197,-3.0748,-3.0328,-2.9998,-2.9071,-2.8562,-2.8308,-2.7854,-2.76,-2.7585,-2.7585,-2.7585,-2.7585,-2.7585,-2.7585,-2.757,-2.7405,-2.7315,-2.727,-2.6677,-2.6033,-2.5375,-2.4694,-2.4575,-2.4911,-2.4612,-2.4522,-2.4896,-2.5016,-2.5046,-2.5061,-2.5202,-2.5322,-2.5367,-2.5959,-2.6318,-2.6348,-2.6956,-2.7285,-2.736,-2.754,-2.7585,-2.7585,-2.7585,-2.7585,-2.7585,-2.7645,-2.766,-2.7645,-2.7585,-2.7585,-2.7585,-2.76,-2.7959,-2.8259,-2.8094,-2.7899,-2.8143,-2.8004,-2.769,-2.7764,-2.76,-2.7615,-2.76,-2.76,-2.76,-2.7585,-2.7585,-2.7525,-2.7465,-2.7136,-2.6806,-2.5833,-2.4814,-2.4088,-2.3595,-2.3954,-2.4029,-2.3774,-2.364,-2.3625,-2.3894,-2.3834,-2.3924,-2.3714,-2.3565,-2.3565,-3.9388,-3.9269,-3.7973,-3.7404,-3.724,-3.6043,-3.5489,-3.5489,-3.5489,-3.5489,-3.5489,-3.5489,-3.5489,-3.5489,-3.5489,-3.5489,-3.5489,-3.5489,-3.5489,-3.5385,-3.4771,-3.3739,-3.2691,-3.2049,-3.1795,-3.1511,-3.1496,-3.1496,-3.1436,-3.1077,-3.0793,-3.0417,-2.9774,-2.916,-2.8547,-2.8248,-2.7869,-2.766,-2.7585,-2.7585,-2.7585,-2.7585,-2.7585,-2.7585,-2.7585,-2.7585,-2.7525,-2.7225,-2.6587,-2.5779,-2.5247,-2.5202,-2.5525,-2.5247,-2.5187,-2.56,-2.56,-2.5585,-2.5674,-2.5815,-2.6019,-2.6123,-2.6632,-2.6971,-2.7076,-2.7405,-2.7585,-2.7585,-2.7585,-2.7585,-2.7585,-2.7585,-2.7585,-2.7645,-2.7914,-2.8079,-2.8023,-2.8064,-2.7869,-2.7809,-2.8094,-2.8588,-2.9172,-2.8708,-2.8693,-2.8813,-2.8558,-2.8334,-2.8199,-2.7899,-2.7705,-2.7794,-2.766,-2.76,-2.7585,-2.7585,-2.7585,-2.7555,-2.7495,-2.7285,-2.6716,-2.5668,-2.5533,-2.5046,-2.4717,-2.4388,-2.4283,-2.4283,-2.4567,-2.4687,-2.4462,-2.4388,-2.4343,-2.4163,-2.4103,-3.9328,-3.9164,-3.7928,-3.7375,-3.7105,-3.6028,-3.5489,-3.5489,-3.5489,-3.5489,-3.5489,-3.5489,-3.5489,-3.5489,-3.5489,-3.5489,-3.5489,-3.5489,-3.5489,-3.534,-3.4876,-3.4038,-3.3021,-3.2512,-3.2153,-3.1735,-3.157,-3.1496,-3.1481,-3.1451,-3.1167,-3.0746,-3.0522,-2.9894,-2.916,-2.8786,-2.8364,-2.7884,-2.7809,-2.772,-2.763,-2.7585,-2.7585,-2.7585,-2.7585,-2.7585,-2.7585,-2.748,-2.7046,-2.5899,-2.5741,-2.5794,-2.5824,-2.5824,-2.5809,-2.5929,-2.6019,-2.5989,-2.5944,-2.6452,-2.6716,-2.6782,-2.724,-2.7585,-2.754,-2.757,-2.7585,-2.7585,-2.7585,-2.766,-2.7824,-2.7794,-2.7974,-2.8124,-2.8603,-2.8816,-2.8831,-2.8757,-2.8472,-2.8034,-2.9007,-2.9472,-2.9744,-2.9669,-2.9606,-2.949,-2.9187,-2.8783,-2.8678,-2.8558,-2.8334,-2.8199,-2.7959,-2.7585,-2.7585,-2.7585,-2.7585,-2.7585,-2.757,-2.748,-2.748,-2.6986,-2.7255,-2.7061,-2.6222,-2.557,-2.5211,-2.533,-2.5465,-2.536,-2.5061,-2.527,-2.5465,-2.5219,-2.5069,-3.911,-3.8542,-3.7734,-3.712,-3.6596,-3.5848,-3.5489,-3.5489,-3.5489,-3.5489,-3.5489,-3.5489,-3.5489,-3.5489,-3.5489,-3.5489,-3.5489,-3.5489,-3.5489,-3.5474,-3.54,-3.4846,-3.3918,-3.3125,-3.2482,-3.2138,-3.172,-3.1511,-3.1496,-3.1481,-3.1436,-3.1241,-3.0776,-3.0372,-3.0058,-2.952,-2.9041,-2.8487,-2.8368,-2.8053,-2.7705,-2.7615,-2.7585,-2.7585,-2.7585,-2.7585,-2.7585,-2.7585,-2.745,-2.7136,-2.6692,-2.6557,-2.6866,-2.6641,-2.6587,-2.6901,-2.7076,-2.7106,-2.7165,-2.721,-2.7375,-2.7345,-2.745,-2.7585,-2.7585,-2.7585,-2.7585,-2.7585,-2.76,-2.7884,-2.8323,-2.8888,-2.8992,-2.9067,-2.9277,-2.9609,-2.9879,-2.9654,-2.9415,-2.9579,-2.9624,-2.9968,-3.0851,-3.0088,-2.9983,-3.0088,-2.9789,-2.9262,-2.9217,-2.9292,-2.9187,-2.9041,-2.8408,-2.8109,-2.8049,-2.7989,-2.7854,-2.775,-2.7675,-2.7585,-2.7585,-2.7585,-2.7585,-2.757,-2.739,-2.6821,-2.6123,-2.5839,-2.5854,-2.5749,-2.5734,-2.5884,-2.6004,-2.5937,-2.5982,-3.8272,-3.7868,-3.724,-3.6791,-3.6417,-3.5789,-3.5489,-3.5489,-3.5489,-3.5489,-3.5489,-3.5489,-3.5489,-3.5489,-3.5489,-3.5489,-3.5489,-3.5489,-3.5489,-3.5489,-3.5474,-3.531,-3.4891,-3.3933,-3.32,-3.2557,-3.1809,-3.1525,-3.1496,-3.1496,-3.1496,-3.1496,-3.1107,-3.0791,-3.0537,-3.0178,-2.9684,-2.9127,-2.8742,-2.8397,-2.8098,-2.775,-2.7585,-2.7585,-2.7585,-2.7585,-2.7585,-2.7585,-2.7585,-2.751,-2.727,-2.7195,-2.748,-2.7285,-2.73,-2.7495,-2.7585,-2.7585,-2.7585,-2.7585,-2.757,-2.7585,-2.7585,-2.7585,-2.7585,-2.7585,-2.7585,-2.7675,-2.7929,-2.8338,-2.8981,-2.9295,-2.9606,-2.9681,-2.9891,-3.0163,-3.0372,-3.0208,-3.0238,-3.0599,-3.0629,-3.0853,-3.0943,-3.0582,-3.0627,-3.0836,-3.0838,-3.0387,-3.0477,-3.0507,-3.0342,-3.0013,-2.9172,-2.8693,-2.8603,-2.8453,-2.8203,-2.8049,-2.7839,-2.7705,-2.7585,-2.7585,-2.7585,-2.757,-2.754,-2.745,-2.6881,-2.6572,-2.6422,-2.6632,-2.6716,-2.6587,-2.6572,-2.6731,-2.6806,-3.736,-3.7225,-3.6701,-3.6432,-3.6252,-3.5729,-3.5489,-3.5489,-3.5489,-3.5489,-3.5489,-3.5489,-3.5489,-3.5489,-3.5489,-3.5489,-3.5489,-3.5489,-3.5489,-3.5489,-3.5489,-3.5459,-3.5205,-3.4607,-3.3754,-3.2677,-3.2034,-3.172,-3.154,-3.1496,-3.1496,-3.1496,-3.1496,-3.1182,-3.0748,-3.0642,-3.0342,-2.9744,-2.9146,-2.8712,-2.8427,-2.7944,-2.7615,-2.7585,-2.7585,-2.7585,-2.7585,-2.7585,-2.7585,-2.7585,-2.7585,-2.7585,-2.7585,-2.7585,-2.7585,-2.7585,-2.7585,-2.7585,-2.7585,-2.7585,-2.7585,-2.7585,-2.7585,-2.7585,-2.7585,-2.775,-2.7869,-2.8109,-2.8468,-2.916,-2.9681,-2.9998,-2.9983,-3.0043,-3.0417,-3.0612,-3.0672,-3.0657,-3.0928,-3.1241,-3.1212,-3.1301,-3.1391,-3.1227,-3.1391,-3.1496,-3.1496,-3.1496,-3.1496,-3.1436,-3.1107,-3.0972,-3.0223,-2.9367,-2.9172,-2.8996,-2.8757,-2.8397,-2.8139,-2.7854,-2.766,-2.7585,-2.7585,-2.7585,-2.7555,-2.7465,-2.745,-2.7225,-2.724,-2.757,-2.748,-2.7165,-2.727,-2.7555,-2.748,-3.7105,-3.6626,-3.6522,-3.6178,-3.5699,-3.5549,-3.5489,-3.5489,-3.5489,-3.5489,-3.5489,-3.5489,-3.5489,-3.5489,-3.5489,-3.5489,-3.5489,-3.5489,-3.5489,-3.5489,-3.5489,-3.5489,-3.537,-3.4921,-3.4083,-3.3365,-3.2662,-3.2079,-3.16,-3.1496,-3.1496,-3.1496,-3.1496,-3.1346,-3.1301,-3.1286,-3.0928,-3.0342,-2.9669,-2.9131,-2.8652,-2.8004,-2.7585,-2.7585,-2.7585,-2.7585,-2.7585,-2.7585,-2.7585,-2.7585,-2.7585,-2.7585,-2.7585,-2.7585,-2.7585,-2.7585,-2.7585,-2.7585,-2.7585,-2.7585,-2.7585,-2.7585,-2.766,-2.7675,-2.7794,-2.8139,-2.8427,-2.8771,-2.9415,-3.0193,-3.0342,-3.0717,-3.1077,-3.1182,-3.1137,-3.1256,-3.1271,-3.1271,-3.1271,-3.1466,-3.1496,-3.1496,-3.1496,-3.1496,-3.1496,-3.1496,-3.1496,-3.1496,-3.1496,-3.1496,-3.1391,-3.1361,-3.1301,-3.0447,-2.9699,-2.9535,-2.931,-2.8876,-2.8517,-2.8064,-2.7854,-2.766,-2.7585,-2.7585,-2.7585,-2.7555,-2.7555,-2.7585,-2.7585,-2.7585,-2.7585,-2.7585,-2.7585,-2.7585,-2.7585,-3.6267,-3.5968,-3.5968,-3.5804,-3.5519,-3.5489,-3.5489,-3.5489,-3.5489,-3.5489,-3.5489,-3.5489,-3.5489,-3.5489,-3.5489,-3.5489,-3.5489,-3.5489,-3.5489,-3.5489,-3.5489,-3.5489,-3.5489,-3.513,-3.4382,-3.3679,-3.3125,-3.2452,-3.1585,-3.1496,-3.1496,-3.1496,-3.1496,-3.1496,-3.1496,-3.1451,-3.1316,-3.0838,-3.0118,-2.9472,-2.9026,-2.8184,-2.766,-2.76,-2.76,-2.7585,-2.7585,-2.7585,-2.7585,-2.7585,-2.7585,-2.7585,-2.7585,-2.7585,-2.7585,-2.7585,-2.7585,-2.7585,-2.7585,-2.7615,-2.7735,-2.8068,-2.8124,-2.8319,-2.8588,-2.8978,-2.922,-2.9654,-2.9924,-3.0657,-3.0972,-3.1316,-3.1466,-3.1496,-3.1496,-3.1496,-3.1496,-3.1496,-3.1496,-3.1496,-3.1496,-3.1496,-3.1496,-3.1496,-3.1496,-3.1496,-3.1496,-3.1496,-3.1496,-3.1496,-3.1496,-3.1496,-3.1481,-3.1137,-3.0417,-3.0178,-2.9909,-2.9475,-2.8966,-2.8487,-2.7929,-2.766,-2.7585,-2.7585,-2.7585,-2.7585,-2.7585,-2.7585,-2.7585,-2.7585,-2.7585,-2.7585,-2.7585,-2.7585,-2.7585,-3.5489,-3.5489,-3.5489,-3.5489,-3.5489,-3.5489,-3.5489,-3.5489,-3.5489,-3.5489,-3.5489,-3.5489,-3.5489,-3.5489,-3.5489,-3.5489,-3.5489,-3.5489,-3.5489,-3.5489,-3.5489,-3.5489,-3.5489,-3.534,-3.4801,-3.3619,-3.344,-3.2811,-3.172,-3.1496,-3.1496,-3.1496,-3.1496,-3.1496,-3.1496,-3.1496,-3.1496,-3.1137,-3.0447,-2.9774,-2.9337,-2.8483,-2.7809,-2.775,-2.7675,-2.7585,-2.7585,-2.7585,-2.7585,-2.7585,-2.7585,-2.7585,-2.7585,-2.7585,-2.7585,-2.7585,-2.7585,-2.7585,-2.7615,-2.7839,-2.8083,-2.8442,-2.8697,-2.9071,-2.94,-2.9624,-3.0013,-3.0552,-3.0733,-3.0926,-3.1316,-3.1481,-3.1496,-3.1496,-3.1496,-3.1496,-3.1496,-3.1496,-3.1496,-3.1496,-3.1496,-3.1496,-3.1496,-3.1496,-3.1496,-3.1496,-3.1496,-3.1496,-3.1496,-3.1496,-3.1496,-3.1496,-3.1496,-3.1496,-3.1137,-3.0896,-3.0567,-3.0133,-2.9564,-2.9011,-2.8274,-2.76,-2.7645,-2.775,-2.7585,-2.7585,-2.7585,-2.76,-2.7585,-2.7585,-2.7585,-2.7585,-2.7585,-2.7585,-2.7585,-3.5489,-3.5489,-3.5489,-3.5489,-3.5489,-3.5489,-3.5489,-3.5489,-3.5489,-3.5489,-3.5489,-3.5489,-3.5489,-3.5489,-3.5489,-3.5489,-3.5489,-3.5489,-3.5489,-3.5489,-3.5489,-3.5489,-3.5489,-3.5489,-3.4711,-3.3709,-3.3499,-3.2736,-3.178,-3.1496,-3.1496,-3.1496,-3.1496,-3.1496,-3.1496,-3.1496,-3.1496,-3.1361,-3.0761,-3.0118,-2.9592,-2.8846,-2.8532,-2.8338,-2.8049,-2.7779,-2.7854,-2.7854,-2.7779,-2.7675,-2.7645,-2.7615,-2.7585,-2.7585,-2.7585,-2.7585,-2.7585,-2.76,-2.769,-2.8079,-2.8457,-2.8786,-2.9146,-2.9487,-2.9849,-3.0223,-3.0672,-3.1301,-3.1346,-3.1331,-3.1451,-3.1496,-3.1496,-3.1496,-3.1496,-3.1496,-3.1496,-3.1496,-3.1496,-3.1496,-3.1496,-3.1496,-3.1496,-3.1496,-3.1496,-3.1496,-3.1496,-3.1496,-3.1496,-3.1496,-3.1496,-3.1496,-3.1496,-3.1496,-3.1481,-3.1256,-3.1062,-3.0673,-3.0133,-2.9564,-2.9056,-2.8427,-2.7959,-2.7964,-2.7884,-2.7809,-2.7869,-2.7839,-2.7675,-2.7585,-2.7585,-2.7585,-2.7585,-2.7585,-2.7585,-3.5489,-3.5489,-3.5489,-3.5489,-3.5489,-3.5489,-3.5489,-3.5489,-3.5489,-3.5489,-3.5489,-3.5489,-3.5489,-3.5489,-3.5489,-3.5489,-3.5489,-3.5489,-3.5489,-3.5457,-3.5457,-3.5457,-3.5489,-3.5415,-3.4786,-3.3799,-3.3365,-3.2766,-3.1899,-3.1496,-3.1496,-3.1496,-3.1496,-3.1496,-3.1496,-3.1496,-3.1496,-3.1301,-3.0808,-3.0208,-2.9669,-2.9325,-2.916,-2.9172,-2.8858,-2.8708,-2.8678,-2.8738,-2.8513,-2.8319,-2.8158,-2.7959,-2.7705,-2.7585,-2.76,-2.763,-2.7979,-2.7964,-2.775,-2.8293,-2.8757,-2.9235,-2.9729,-3.0268,-3.0569,-3.0853,-3.1107,-3.1451,-3.1496,-3.1496,-3.1496,-3.1496,-3.1496,-3.1496,-3.1496,-3.1496,-3.1496,-3.1496,-3.1496,-3.1496,-3.1496,-3.1496,-3.1496,-3.1496,-3.1496,-3.1496,-3.1496,-3.1496,-3.1496,-3.1496,-3.1496,-3.1496,-3.1496,-3.1496,-3.1496,-3.1406,-3.1376,-3.1047,-3.0627,-3.0163,-3.0016,-2.9537,-2.9086,-2.8876,-2.8996,-2.8828,-2.8423,-2.7989,-2.7735,-2.7645,-2.7585,-2.7585,-2.7585,-2.7585,-2.7585,-3.5489,-3.5489,-3.5489,-3.5489,-3.5489,-3.5489,-3.5489,-3.5489,-3.5489,-3.5489,-3.5489,-3.5489,-3.5489,-3.5489,-3.5489,-3.5489,-3.5489,-3.5489,-3.5489,-3.5457,-3.5279,-3.5246,-3.5279,-3.5255,-3.4515,-3.3514,-3.3499,-3.2751,-3.1884,-3.1496,-3.1496,-3.1496,-3.1496,-3.1496,-3.1496,-3.1496,-3.1496,-3.1451,-3.1062,-3.0612,-3.0208,-2.9939,-2.9834,-2.9759,-2.9696,-2.9621,-2.9621,-2.9562,-2.9205,-2.8966,-2.8607,-2.8308,-2.8004,-2.7934,-2.7959,-2.8079,-2.8472,-2.8667,-2.8562,-2.8861,-2.928,-2.9804,-3.0372,-3.0941,-3.1271,-3.1496,-3.1496,-3.1496,-3.1496,-3.1496,-3.1496,-3.1496,-3.1496,-3.1496,-3.1496,-3.1496,-3.1496,-3.1496,-3.1496,-3.1496,-3.1496,-3.1496,-3.1496,-3.1496,-3.1496,-3.1496,-3.1496,-3.1496,-3.1496,-3.1496,-3.1496,-3.1496,-3.1496,-3.1496,-3.1496,-3.1496,-3.1496,-3.1406,-3.0957,-3.0748,-3.0629,-3.0539,-3.0225,-3.0163,-3.0088,-2.9774,-2.937,-2.8547,-2.7794,-2.7675,-2.7585,-2.7585,-2.7585,-2.7585,-2.7585,-3.5489,-3.5489,-3.5489,-3.5489,-3.5489,-3.5489,-3.5489,-3.5489,-3.5489,-3.5489,-3.5489,-3.5489,-3.5489,-3.5489,-3.5489,-3.5489,-3.5489,-3.5489,-3.5489,-3.5166,-3.4691,-3.4839,-3.4953,-3.4695,-3.4028,-3.3646,-3.3514,-3.2781,-3.1869,-3.172,-3.16,-3.1496,-3.154,-3.1511,-3.1496,-3.1496,-3.1496,-3.1496,-3.1316,-3.1316,-3.1017,-3.0733,-3.0447,-3.0313,-2.9939,-2.9621,-2.9609,-2.9774,-2.9699,-2.9547,-2.9131,-2.8771,-2.8577,-2.8532,-2.8558,-2.8693,-2.9172,-2.9382,-2.9457,-2.9729,-3.0238,-3.0569,-3.0943,-3.1316,-3.1481,-3.1496,-3.1496,-3.1496,-3.1496,-3.1496,-3.1496,-3.1496,-3.1496,-3.1496,-3.1496,-3.1496,-3.1496,-3.1496,-3.1496,-3.1496,-3.1496,-3.1496,-3.1496,-3.1496,-3.1496,-3.1496,-3.1496,-3.1496,-3.1496,-3.1496,-3.1496,-3.1496,-3.1496,-3.1496,-3.1496,-3.1496,-3.1496,-3.1496,-3.1256,-3.1241,-3.1271,-3.1182,-3.0957,-3.1017,-3.0838,-3.0584,-3.024,-2.9445,-2.8652,-2.7914,-2.763,-2.775,-2.7675,-2.7585,-2.7585,-3.5489,-3.5489,-3.5489,-3.5489,-3.5489,-3.5489,-3.5489,-3.5489,-3.5489,-3.5489,-3.5489,-3.5489,-3.5489,-3.5489,-3.5489,-3.5489,-3.5489,-3.5489,-3.5457,-3.5166,-3.4691,-3.4691,-3.4839,-3.4559,-3.4028,-3.3955,-3.3709,-3.338,-3.2841,-3.2303,-3.2123,-3.2034,-3.1662,-3.1525,-3.1496,-3.1496,-3.1496,-3.1496,-3.1496,-3.1496,-3.1451,-3.1316,-3.1107,-3.1062,-3.0987,-3.0763,-3.0793,-3.0791,-3.0537,-3.0193,-2.9864,-2.9535,-2.925,-2.922,-2.9205,-2.9292,-2.9819,-3.0103,-3.0148,-3.0432,-3.0629,-3.1092,-3.1346,-3.1496,-3.1496,-3.1496,-3.1496,-3.1496,-3.154,-3.1585,-3.1496,-3.1496,-3.1496,-3.1496,-3.154,-3.1585,-3.1675,-3.1765,-3.1795,-3.1929,-3.169,-3.1496,-3.1496,-3.1496,-3.1496,-3.1496,-3.1496,-3.1496,-3.1496,-3.1496,-3.1496,-3.1496,-3.1496,-3.1496,-3.1496,-3.1496,-3.1496,-3.1496,-3.1496,-3.1496,-3.1496,-3.1466,-3.1331,-3.1481,-3.1496,-3.1152,-3.0718,-3.0238,-2.9549,-2.8771,-2.8304,-2.8053,-2.7914,-2.7735,-2.7645,-3.5489,-3.5489,-3.5489,-3.5489,-3.5489,-3.5489,-3.5489,-3.5489,-3.5489,-3.5489,-3.5489,-3.5489,-3.5489,-3.5489,-3.5489,-3.5489,-3.5489,-3.5457,-3.5246,-3.4725,-3.4143,-3.4109,-3.4158,-3.4008,-3.3566,-3.3947,-3.4067,-3.3724,-3.3335,-3.2991,-3.2691,-3.2303,-3.1797,-3.1501,-3.1496,-3.1496,-3.1496,-3.1496,-3.1496,-3.1496,-3.1496,-3.1481,-3.1466,-3.1451,-3.1391,-3.1376,-3.1331,-3.1286,-3.1167,-3.0823,-3.0537,-3.0238,-3.0013,-2.9864,-2.9849,-3.0058,-3.0387,-3.0748,-3.0806,-3.0866,-3.1002,-3.1361,-3.1451,-3.1496,-3.1496,-3.1511,-3.1496,-3.1525,-3.163,-3.175,-3.166,-3.1675,-3.1645,-3.166,-3.2034,-3.2153,-3.2303,-3.2407,-3.2392,-3.2422,-3.2198,-3.2153,-3.1735,-3.1735,-3.1555,-3.154,-3.1496,-3.1496,-3.1496,-3.1496,-3.1496,-3.1496,-3.1496,-3.1496,-3.1496,-3.1496,-3.1496,-3.1496,-3.1496,-3.1496,-3.1496,-3.1496,-3.1496,-3.1496,-3.1496,-3.1496,-3.1241,-3.0793,-3.0253,-2.9624,-2.9175,-2.8712,-2.8592,-2.8453,-2.7929,-3.5489,-3.5489,-3.5489,-3.5489,-3.5489,-3.5489,-3.5489,-3.5489,-3.5489,-3.5424,-3.5344,-3.5359,-3.5359,-3.5344,-3.5246,-3.5311,-3.5489,-3.5472,-3.5067,-3.4211,-3.3602,-3.3017,-3.2912,-3.2982,-3.336,-3.3392,-3.3832,-3.4038,-3.3694,-3.3544,-3.3185,-3.2403,-3.1709,-3.1227,-3.1439,-3.1525,-3.1511,-3.1496,-3.1496,-3.1496,-3.1496,-3.1496,-3.1496,-3.1496,-3.1496,-3.1496,-3.1496,-3.1496,-3.1406,-3.1271,-3.0853,-3.0642,-3.0537,-3.0507,-3.0507,-3.0537,-3.1062,-3.1376,-3.1436,-3.1451,-3.1451,-3.1481,-3.1496,-3.1555,-3.1555,-3.157,-3.1735,-3.1959,-3.2183,-3.2138,-3.2049,-3.1974,-3.1914,-3.2093,-3.2482,-3.2647,-3.2796,-3.311,-3.314,-3.2931,-3.3125,-3.3185,-3.2497,-3.2019,-3.172,-3.1585,-3.1525,-3.1496,-3.1496,-3.1496,-3.1496,-3.1496,-3.1496,-3.1496,-3.1496,-3.1496,-3.1496,-3.1496,-3.1496,-3.1496,-3.1496,-3.1496,-3.1496,-3.1496,-3.1496,-3.1496,-3.1496,-3.1421,-3.0838,-3.0313,-2.9864,-2.949,-2.9382,-2.9022,-2.8393,-3.5489,-3.5489,-3.5489,-3.5489,-3.5489,-3.5489,-3.5489,-3.5489,-3.5457,-3.5133,-3.4576,-3.4495,-3.4509,-3.4509,-3.461,-3.4872,-3.5439,-3.5457,-3.4953,-3.4027,-3.3533,-3.3136,-3.2912,-3.3024,-3.3459,-3.3787,-3.426,-3.4741,-3.4876,-3.4397,-3.3627,-3.2826,-3.1607,-3.0842,-3.1036,-3.1397,-3.2004,-3.1585,-3.1496,-3.1496,-3.1511,-3.154,-3.1525,-3.154,-3.154,-3.1496,-3.1496,-3.1496,-3.1496,-3.1496,-3.1107,-3.1092,-3.1092,-3.1092,-3.1107,-3.1122,-3.1481,-3.1481,-3.1496,-3.1481,-3.1496,-3.1525,-3.157,-3.1765,-3.2049,-3.2153,-3.2392,-3.2691,-3.2946,-3.2946,-3.3006,-3.2557,-3.2482,-3.2826,-3.311,-3.3035,-3.3185,-3.3694,-3.3873,-3.3484,-3.3455,-3.3529,-3.3155,-3.2557,-3.2198,-3.1884,-3.1824,-3.1585,-3.1511,-3.1511,-3.1496,-3.1496,-3.1496,-3.1496,-3.1496,-3.1496,-3.1496,-3.1496,-3.1496,-3.1496,-3.1496,-3.1496,-3.1496,-3.1496,-3.1496,-3.1496,-3.1394,-3.1321,-3.1332,-3.0972,-3.0466,-3.0046,-2.9819,-2.9292,-2.8543,-3.5489,-3.5489,-3.5489,-3.5489,-3.5489,-3.5489,-3.5489,-3.5489,-3.5457,-3.4938,-3.4245,-3.4361,-3.4312,-3.4129,-3.4061,-3.4543,-3.5392,-3.5067,-3.4839,-3.3945,-3.3587,-3.2841,-3.2593,-3.3017,-3.3213,-3.3713,-3.4449,-3.5085,-3.534,-3.5026,-3.3965,-3.2616,-3.1513,-3.0732,-3.0632,-3.0945,-3.178,-3.1595,-3.1763,-3.196,-3.2095,-3.2079,-3.1884,-3.1809,-3.1675,-3.1496,-3.1496,-3.1496,-3.1496,-3.1496,-3.1496,-3.1496,-3.1496,-3.1496,-3.1496,-3.1496,-3.1496,-3.1496,-3.1496,-3.1839,-3.1899,-3.1914,-3.1839,-3.2049,-3.2482,-3.2691,-3.3006,-3.3335,-3.3679,-3.3649,-3.3499,-3.3021,-3.3245,-3.3604,-3.3544,-3.3514,-3.3829,-3.4307,-3.4607,-3.4218,-3.4083,-3.4023,-3.3784,-3.3245,-3.2736,-3.2422,-3.2138,-3.181,-3.1526,-3.1511,-3.1496,-3.1496,-3.1467,-3.1467,-3.1467,-3.1496,-3.1496,-3.1496,-3.1365,-3.1204,-3.1496,-3.1496,-3.1496,-3.1496,-3.1496,-3.1438,-3.1204,-3.1102,-3.1101,-3.1099,-3.0949,-3.0546,-3.027,-2.9819,-2.9265,-3.5489,-3.5489,-3.5489,-3.5489,-3.5489,-3.5489,-3.5489,-3.5489,-3.5489,-3.492,-3.3945,-3.4725,-3.4409,-3.3891,-3.3842,-3.4394,-3.5019,-3.4442,-3.4075,-3.3671,-3.3122,-3.2164,-3.1815,-3.22,-3.2607,-3.3255,-3.4071,-3.494,-3.5344,-3.4773,-3.3609,-3.2345,-3.1457,-3.0567,-3.018,-3.0323,-3.1207,-3.1704,-3.172,-3.2082,-3.2442,-3.2344,-3.2121,-3.1974,-3.1753,-3.1604,-3.1573,-3.1585,-3.1525,-3.1496,-3.1496,-3.1496,-3.1496,-3.1496,-3.1496,-3.1496,-3.1496,-3.1511,-3.172,-3.2153,-3.2467,-3.2527,-3.2647,-3.2617,-3.2841,-3.3305,-3.3649,-3.3963,-3.4262,-3.4023,-3.3784,-3.3918,-3.4099,-3.4129,-3.4023,-3.4203,-3.4532,-3.4891,-3.522,-3.5205,-3.5175,-3.4996,-3.4502,-3.3963,-3.335,-3.2841,-3.2408,-3.1738,-3.15,-3.1482,-3.1482,-3.1496,-3.1467,-3.1453,-3.1438,-3.1336,-3.1248,-3.1161,-3.0792,-3.0673,-3.1058,-3.1248,-3.1161,-3.1161,-3.1409,-3.1307,-3.0778,-3.0718,-3.0881,-3.0837,-3.0483,-3.0938,-3.0581,-3.0959,-3.0718,-3.5489,-3.5489,-3.5489,-3.5489,-3.5489,-3.5489,-3.5489,-3.5489,-3.5457,-3.4624,-3.3017,-3.3276,-3.308,-3.2105,-3.27,-3.3567,-3.4027,-3.4075,-3.3567,-3.3136,-3.2806,-3.1586,-3.1304,-3.1683,-3.201,-3.2464,-3.3359,-3.4509,-3.4245,-3.3925,-3.3401,-3.2372,-3.1083,-3.0167,-2.9905,-2.9918,-3.0932,-3.1567,-3.1447,-3.189,-3.2141,-3.1851,-3.185,-3.1975,-3.168,-3.1585,-3.1842,-3.1632,-3.1513,-3.1438,-3.1467,-3.1467,-3.1496,-3.1496,-3.1496,-3.1496,-3.154,-3.166,-3.2123,-3.2392,-3.2676,-3.3199,-3.3558,-3.3904,-3.4009,-3.4052,-3.4351,-3.4637,-3.4831,-3.4681,-3.4532,-3.4607,-3.4773,-3.4741,-3.4622,-3.4622,-3.4936,-3.519,-3.5489,-3.5489,-3.5489,-3.5415,-3.4951,-3.4622,-3.4008,-3.3365,-3.2661,-3.1901,-3.1368,-3.1323,-3.1292,-3.1278,-3.1248,-3.1161,-3.1102,-3.0999,-3.0911,-3.0748,-3.0269,-2.9813,-2.9752,-2.9981,-3.0434,-3.0777,-3.0955,-3.0644,-3.012,-3.0195,-3.0315,-2.9797,-2.9524,-3.033,-3.1014,-3.1278,-3.1467,-3.5489,-3.5489,-3.5489,-3.5489,-3.5489,-3.5489,-3.5489,-3.5424,-3.51,-3.4007,-3.27,-3.2629,-3.2092,-3.1462,-3.1888,-3.2749,-3.3959,-3.3567,-3.3276,-3.3415,-3.2629,-3.1719,-3.1365,-3.1341,-3.1573,-3.1997,-3.2749,-3.3891,-3.338,-3.2607,-3.2019,-3.1825,-3.0419,-2.996,-2.9793,-2.991,-3.0529,-3.1083,-3.1385,-3.1536,-3.1508,-3.1423,-3.1757,-3.2074,-3.1736,-3.177,-3.188,-3.1514,-3.1338,-3.1102,-3.1029,-3.1219,-3.1336,-3.1496,-3.175,-3.1795,-3.1959,-3.2303,-3.2796,-3.323,-3.333,-3.3591,-3.4282,-3.4486,-3.456,-3.4557,-3.4942,-3.528,-3.5385,-3.5415,-3.5295,-3.522,-3.5325,-3.5415,-3.5205,-3.4996,-3.5205,-3.5429,-3.5489,-3.5489,-3.5489,-3.5489,-3.5295,-3.4978,-3.4605,-3.3885,-3.2936,-3.1917,-3.1285,-3.0922,-3.085,-3.0807,-3.0837,-3.0807,-3.0673,-3.0464,-3.0299,-2.9919,-2.9192,-2.8798,-2.8575,-2.8652,-2.9066,-2.9782,-3.0495,-3.0013,-2.9417,-2.9538,-2.9566,-2.8971,-2.8748,-2.9535,-3.0419,-3.1131,-3.1336,-3.5489,-3.5489,-3.5489,-3.5489,-3.5489,-3.5489,-3.5424,-3.5246,-3.4293,-3.3429,-3.2664,-3.2486,-3.1852,-3.1082,-3.1291,-3.2272,-3.2996,-3.2912,-3.2947,-3.3705,-3.2321,-3.1378,-3.097,-3.1082,-3.097,-3.1646,-3.2415,-3.3066,-3.2558,-3.2105,-3.1719,-3.1167,-3.0266,-2.9818,-2.9779,-2.9779,-3.024,-3.0697,-3.0987,-3.1219,-3.1815,-3.1928,-3.1882,-3.2495,-3.2165,-3.1707,-3.1378,-3.1142,-3.0943,-3.0629,-3.0637,-3.104,-3.1575,-3.1869,-3.2168,-3.2377,-3.2542,-3.2976,-3.3469,-3.3918,-3.3741,-3.4027,-3.4548,-3.4633,-3.4648,-3.4925,-3.535,-3.5444,-3.5489,-3.5489,-3.54,-3.5355,-3.5444,-3.5474,-3.537,-3.5265,-3.5355,-3.5489,-3.5489,-3.5392,-3.51,-3.51,-3.489,-3.4497,-3.3775,-3.3651,-3.3083,-3.1872,-3.1016,-3.0475,-3.027,-3.0172,-3.0147,-3.0042,-2.9782,-2.9597,-2.9535,-2.9052,-2.8363,-2.8395,-2.8607,-2.8233,-2.769,-2.8446,-2.9164,-2.9118,-2.8821,-2.8816,-2.8588,-2.8051,-2.8051,-2.878,-2.9552,-3.0149,-3.1014,-3.5489,-3.5489,-3.5489,-3.5489,-3.5489,-3.5489,-3.5067,-3.4279,-3.3345,-3.282,-3.2486,-3.1815,-3.1082,-3.0381,-3.097,-3.196,-3.2522,-3.2415,-3.2272,-3.2213,-3.1549,-3.0884,-3.0241,-3.0305,-3.0241,-3.0495,-3.123,-3.2177,-3.2272,-3.2105,-3.1756,-3.1106,-3.0279,-2.9779,-2.9779,-2.9779,-2.9998,-3.0305,-3.0381,-3.0733,-3.1299,-3.088,-3.0637,-3.1198,-3.1126,-3.1227,-3.1012,-3.0943,-3.1251,-3.1486,-3.1645,-3.2178,-3.2945,-3.293,-3.305,-3.323,-3.3245,-3.3649,-3.4052,-3.4345,-3.4056,-3.4149,-3.4474,-3.4499,-3.4725,-3.5213,-3.5439,-3.5424,-3.5489,-3.5489,-3.5489,-3.5489,-3.5489,-3.5489,-3.5424,-3.5424,-3.5424,-3.5457,-3.5457,-3.5198,-3.4806,-3.4543,-3.4361,-3.3844,-3.3047,-3.2539,-3.2204,-3.1356,-3.0385,-2.9691,-2.9412,-2.9302,-2.9247,-2.9129,-2.8907,-2.8798,-2.8734,-2.8427,-2.7822,-2.8071,-2.8556,-2.7855,-2.7116,-2.7304,-2.7644,-2.7828,-2.7959,-2.7887,-2.755,-2.7209,-2.7129,-2.7756,-2.767,-2.8038,-2.9521,-3.5489,-3.5489,-3.5489,-3.5489,-3.5489,-3.5489,-3.492,-3.3945,-3.2982,-3.2357,-3.1852,-3.102,-3.0279,-2.996,-3.0796,-3.1683,-3.2307,-3.2092,-3.2285,-3.201,-3.1169,-3.0432,-2.9998,-2.9779,-2.9856,-2.9998,-3.0317,-3.102,-3.1779,-3.1365,-3.0809,-3.0595,-2.9998,-2.9779,-2.9779,-2.9779,-2.9779,-2.9818,-2.9779,-3.0101,-3.062,-3.0203,-3.0279,-3.0751,-3.0963,-3.0949,-3.0699,-3.068,-3.0966,-3.1495,-3.1732,-3.1699,-3.2168,-3.239,-3.2905,-3.333,-3.368,-3.4264,-3.4618,-3.4519,-3.4086,-3.3946,-3.3739,-3.3533,-3.3498,-3.3939,-3.4739,-3.4839,-3.5424,-3.5489,-3.5489,-3.5489,-3.5489,-3.5489,-3.4971,-3.4643,-3.4905,-3.5166,-3.5279,-3.5392,-3.4872,-3.4245,-3.3959,-3.3415,-3.2737,-3.2395,-3.1865,-3.1186,-3.0112,-2.9306,-2.891,-2.8564,-2.8631,-2.8446,-2.8214,-2.8084,-2.7986,-2.7637,-2.725,-2.7317,-2.7438,-2.6994,-2.6611,-2.6858,-2.6994,-2.6994,-2.7027,-2.7129,-2.704,-2.6794,-2.6658,-2.6679,-2.6487,-2.6487,-2.7723,-3.5489,-3.5489,-3.5489,-3.5489,-3.5489,-3.5489,-3.492,-3.3959,-3.2982,-3.2069,-3.123,-3.0292,-2.9856,-3.0101,-3.0582,-3.1549,-3.1974,-3.1573,-3.1974,-3.1997,-3.1291,-3.0419,-2.9921,-2.9779,-2.9779,-2.9934,-3.0216,-3.0482,-3.097,-3.0696,-3.0457,-2.9921,-2.9779,-2.9779,-2.9779,-2.9779,-2.9779,-2.9779,-2.9779,-2.9779,-2.9818,-2.9779,-3.0266,-3.072,-3.0992,-3.0745,-3.0443,-3.0352,-3.0481,-3.1137,-3.1733,-3.1842,-3.1808,-3.2179,-3.2762,-3.3318,-3.3921,-3.4587,-3.5041,-3.4526,-3.3668,-3.2982,-3.27,-3.2522,-3.2558,-3.2961,-3.3754,-3.4293,-3.4839,-3.5198,-3.5198,-3.5424,-3.5424,-3.5311,-3.4677,-3.4061,-3.4428,-3.4887,-3.518,-3.5407,-3.4773,-3.4061,-3.3484,-3.2947,-3.2374,-3.2041,-3.1577,-3.0931,-3.0233,-2.9585,-2.9057,-2.8566,-2.8263,-2.8002,-2.7691,-2.7451,-2.7351,-2.7129,-2.6803,-2.6611,-2.6487,-2.6487,-2.6487,-2.6521,-2.6577,-2.6658,-2.6624,-2.6714,-2.6555,-2.6499,-2.6499,-2.6487,-2.6487,-2.6487,-2.6487,-3.5489,-3.5489,-3.5489,-3.5489,-3.5489,-3.5489,-3.4905,-3.3945,-3.2996,-3.2069,-3.1156,-3.0279,-2.9792,-2.983,-2.9934,-3.0633,-3.1513,-3.1156,-3.1119,-3.1167,-3.0658,-3.0139,-2.9856,-2.9779,-2.9779,-2.996,-3.0254,-3.052,-3.052,-3.0633,-3.0495,-2.983,-2.9779,-2.9779,-2.9779,-2.9779,-2.9779,-2.9779,-2.9779,-2.9779,-2.9779,-2.9779,-2.9818,-3.0024,-3.0062,-2.9999,-2.9923,-2.9923,-3.0413,-3.1146,-3.1812,-3.2005,-3.2033,-3.2132,-3.279,-3.3412,-3.4026,-3.4717,-3.4942,-3.4327,-3.338,-3.2713,-3.2429,-3.1997,-3.2033,-3.2141,-3.2713,-3.3031,-3.3567,-3.4109,-3.4327,-3.492,-3.51,-3.5034,-3.4624,-3.4143,-3.4075,-3.4673,-3.518,-3.492,-3.4375,-3.3719,-3.3066,-3.2285,-3.1193,-3.0893,-3.0606,-3.0047,-3.0084,-2.9643,-2.9189,-2.8762,-2.826,-2.7756,-2.7487,-2.6977,-2.6769,-2.6589,-2.6524,-2.66,-2.66,-2.6499,-2.6537,-2.7102,-2.6763,-2.6568,-2.6499,-2.66,-2.6487,-2.6487,-2.6487,-2.6487,-2.6487,-2.6487,-2.6487]},{"header":{"parameterUnit":"m.s-1","parameterCategory":1,"la1":31.0,"la2":29.5877,"lo1":-88.7671,"lo2":-86.6584,"dy":0.0162,"dx":0.0185,"nx":115,"ny":88,"refTime":"2026-05-14T00:00:00:Z","depth":0,"parameterNumber":3,"parameterNumberName":"V-component_of_WINDS"},"data":[0.0,0.0,0.0,0.0,0.0,0.0,0.0,0.0,0.0,0.0,0.0,0.0,0.0,0.0,0.0,0.0,0.0,0.0,0.0,0.0,0.0,0.0,0.0,0.0,0.0,0.0,0.0,0.0,0.0,0.0,0.0,0.0,0.0,0.0,0.0,0.0,0.0,0.0,0.0,0.0,0.0,0.0,0.0,0.0,0.0,0.0,0.0,0.0,0.0,0.0,0.0,0.0,0.0,0.0,0.0,0.0,0.0,0.0,0.0,0.0,0.0,0.0,0.0,0.0,0.0,0.0,0.0,0.0,0.0,0.0,0.0,0.0,0.0,0.0,0.0,0.0,0.0,0.0,0.0,0.0,0.0,0.0,0.0,0.0,0.0,0.0,0.0,0.0,0.0,0.0,0.0,0.0,0.0,0.0,0.0,0.0,0.0,0.0,0.0,0.0,0.0,0.0,0.0,0.0,0.0,0.0,0.0,0.0,0.0,0.0,0.0,0.0,0.0,0.0,0.0,0.0,0.0,0.0,0.0,0.0,0.0,0.0,0.0,0.0,0.0,0.0,0.0,0.0,0.0,0.0,0.0,0.0,0.0,0.0,0.0,0.0,0.0,0.0,0.0,0.0,0.0,0.0,0.0,0.0,0.0,0.0,0.0,0.0,0.0,0.0,0.0,0.0,0.0,0.0,0.0,0.0,0.0,0.0,0.0,0.0,0.0,0.0,0.0,0.0,0.0,0.0,0.0,0.0,0.0,0.0,0.0,0.0,0.0,0.0,0.0,0.0,0.0,0.0,0.0,0.0,0.0,0.0,0.0,0.0,0.0,0.0,0.0,0.0,0.0,0.0,0.0,0.0,0.0,0.0,0.0,0.0,0.0,0.0,0.0,0.0,0.0,0.0,0.0,0.0,0.0,0.0,0.0,0.0,0.0,0.0,0.0,0.0,0.0,0.0,0.0,0.0,0.0,0.0,0.0,0.0,0.0,0.0,0.0,0.0,0.0,0.0,0.0,0.0,0.0,0.0,0.0,0.0,0.0,0.0,0.0,0.0,0.0,0.0,0.0,0.0,0.0,0.0,0.0,0.0,0.0,0.0,0.0,0.0,0.0,0.0,0.0,0.0,0.0,0.0,0.0,0.0,0.0,0.0,0.0,0.0,0.0,0.0,0.0,0.0,0.0,0.0,0.0,0.0,0.0,0.0,0.0,0.0,0.0,0.0,0.0,0.0,0.0,0.0,0.0,0.0,0.0,0.0,0.0,0.0,0.0,0.0,0.0,0.0,0.0,0.0,0.0,0.0,0.0,0.0,0.0,0.0,0.0,0.0,0.0,0.0,0.0,0.0,0.0,0.0,0.0,0.0,0.0,0.0,0.0,0.0,0.0,0.0,0.0,0.0,0.0,0.0,0.0,0.0,0.0,0.0,0.0,0.0,0.0,0.0,0.0,0.0,0.0,0.0,0.0,0.0,0.0,0.0,0.0,0.0,0.0,0.0,0.0,0.0,0.0,0.0,0.0,0.0,0.0,0.0,0.0,0.0,0.0,0.0,0.0,0.0,0.0,0.0,0.0,0.0,0.0,0.0,0.0,0.0,0.0,0.0,0.0,0.0,0.0,0.0,0.0,0.0,0.0,0.0,0.0,0.0,0.0,0.0,0.0,0.0,0.0,0.0,0.0,0.0,0.0,0.0,0.0,0.0,0.0,0.0,0.0,0.0,0.0,0.0,0.0,0.0,0.0,0.0,0.0,0.0,0.0,0.0,0.0,0.0,0.0,0.0,0.0,0.0,0.0,0.0,0.0,0.0,0.0,0.0,0.0,0.0,0.0,0.0,0.0,0.0,0.0,0.0,0.0,0.0,0.0,0.0,0.0,0.0,0.0,0.0,0.0,0.0,0.0,0.0,0.0,0.0,0.0,0.0,0.0,0.0,0.0,0.0,0.0,0.0,0.0,0.0,0.0,0.0,0.0,0.0,0.0,0.0,0.0,0.0,0.0,0.0,0.0,0.0,0.0,0.0,0.0,0.0,0.0,0.0,0.0,0.0,0.0,0.0,0.0,0.0,0.0,0.0,0.0,0.0,0.0,0.0,0.0,0.0,0.0,0.0,0.0,0.0,0.0,0.0,0.0,0.0,0.0,0.0,0.0,0.0,0.0,0.0,0.0,0.0,0.0,0.0,0.0,0.0,0.0,0.0,0.0,0.0,0.0,0.0,0.0,0.0,0.0,0.0,0.0,0.0,0.0,0.0,0.0,0.0,0.0,0.0,0.0,0.0,0.0,0.0,0.0,0.0,0.0,0.0,0.0,0.0,0.0,0.0,0.0,0.0,0.0,0.0,0.0,0.0,0.0,0.0,0.0,0.0,0.0,0.0,0.0,0.0,0.0,0.0,0.0,0.0,0.0,0.0,0.0,0.0,0.0,0.0,0.0,0.0,0.0,0.0,0.0,0.0,0.0,0.0,0.0,0.0,0.0,0.0,0.0,0.0,0.0,0.0,0.0,0.0,0.0,0.0,0.0,0.0,0.0,0.0,0.0,0.0,0.0,0.0,0.0,0.0,0.0,0.0,0.0,0.0,0.0,0.0,0.0,0.0,0.0,0.0,0.0,0.0,0.0,0.0,0.0,0.0,0.0,0.0,0.0,0.0,0.0,0.0,0.0,0.0,0.0,0.0,0.0,0.0,0.0,0.0,0.0,0.0,0.0,0.0,0.0,0.0,0.0,0.0,0.0,0.0,0.0,0.0,0.0,0.0,0.0,0.0,0.0,0.0,0.0,0.0,0.0,0.0,0.0,0.0,0.0,0.0,0.0,0.0,0.0,0.0,0.0,0.0,0.0,0.0,0.0,0.0,0.0,0.0,0.0,0.0,0.0,0.0,0.0,0.0,0.0,0.0,0.0,0.0,0.0,0.0,0.0,0.0,0.0,0.0,0.0,0.0,0.0,0.0,0.0,0.0,0.0,0.0,0.0,0.0,0.0,0.0,0.0,0.0,0.0,0.0,0.0,0.0,0.0,0.0,0.0,0.0,0.0,0.0,0.0,0.0,0.0,0.0,0.0,0.0,0.0,0.0,0.0,0.0,0.0,0.0,0.0,0.0,0.0,0.0,0.0,0.0,0.0,0.0,0.0,0.0,0.0,0.0,0.0,0.0,0.0,0.0,0.0,0.0,0.0,0.0,0.0,0.0,0.0,0.0,0.0,0.0,0.0,0.0,0.0,0.0,0.0,0.0,0.0,0.0,0.0,0.0,0.0,0.0,0.0,0.0,0.0,0.0,0.0,0.0,0.0,0.0,0.0,0.0,0.0,0.0,0.0,0.0,0.0,0.0,0.0,0.0,0.0,0.0,0.0,0.0,0.0,0.0,0.0,0.0,0.0,0.0,0.0,0.0,0.0,0.0,0.0,0.0,0.0,0.0,0.0,0.0,0.0,0.0,0.0,0.0,0.0,0.0,0.0,0.0,0.0,0.0,0.0,0.0,0.0,0.0,0.0,0.0,0.0,0.0,0.0,0.0,0.0,0.0,0.0,0.0,0.0,0.0,0.0,0.0,0.0,0.0,0.0,0.0,0.0,0.0,0.0,0.0,0.0,0.0,0.0,0.0,0.0,0.0,0.0,0.0,0.0,0.0,0.0,0.0,0.0,0.0,0.0,0.0,0.0,0.0,0.0,0.0,0.0,0.0,0.0,0.0,0.0,0.0,0.0,0.0,0.0,0.0,0.0,0.0,0.0,0.0,0.0,0.0,0.0,0.0,0.0,0.0,0.0,0.0,0.0,0.0,0.0,0.0,0.0,0.0,0.0,0.0,0.0,0.0,0.0,0.0,0.0,0.0,0.0,0.0,0.0,0.0,0.0,0.0,0.0,0.0,0.0,0.0,0.0,0.0,0.0,0.0,0.0,0.0,0.0,0.0,0.0,0.0,0.0,0.0,0.0,0.0,0.0,0.0,0.0,0.0,0.0,0.0,0.0,0.0,0.0,0.0,0.0,0.0,0.0,0.0,0.0,0.0,0.0,0.0,0.0,0.0,0.0,0.0,0.0,0.0,0.0,0.0,0.0,0.0,0.0,0.0,0.0,0.0,0.0,0.0,0.0,0.0,0.0,0.0,0.0,0.0,0.0,0.0,0.0,0.0,0.0,0.0,0.0,0.0,0.0,0.0,0.0,0.0,0.0,0.0,0.0,0.0,0.0,0.0,0.0,0.0,0.0,0.0,0.0,0.0,0.0,0.0,0.0,0.0,0.0,0.0,0.0,0.0,0.0,0.0,0.0,0.0,0.0,0.0,0.9676,0.0,0.0,0.0,0.0,0.0,0.0,0.0,0.0,0.0,0.0,0.0,0.0,0.0,0.0,0.0,0.0,0.0,0.0,0.0,0.0,0.0,0.0,0.0,0.0,0.0,0.0,0.0,0.0,0.0,0.0,0.0,0.0,0.0,0.0,0.0,0.0,0.0,0.0,0.0,0.0,0.0,0.0,0.0,0.0,0.0,0.0,0.0,0.0,0.0,0.0,0.0,0.0,0.0,0.0,0.0,0.0,0.0,0.0,0.0,0.0,0.0,0.0,0.0,0.0,0.0,0.0,0.0,0.0,0.0,0.0,0.0,0.0,0.0,0.0,0.0,0.0,0.0,0.0,0.0,0.0,0.0,0.0,0.0,0.0,0.0,0.0,0.0,0.0,0.0,0.0,0.0,0.0,0.0,0.0,0.0,0.0,0.0,0.0,0.0,0.0,0.0,0.0,0.0,0.0,0.0,0.0,0.0,0.0,0.0,0.0,0.9568,0.9469,0.9421,0.9417,0.9483,0.0,0.0,0.0,0.0,0.0,0.0,0.0,0.0,0.0,0.0,0.0,0.0,0.0,0.0,0.0,0.0,0.0,0.0,0.0,0.0,0.0,0.0,0.0,0.0,0.0,0.0,0.0,0.0,0.0,0.0,0.0,0.0,0.0,0.0,0.0,0.0,0.0,0.0,0.0,0.0,0.0,0.0,0.0,0.0,0.0,0.0,0.0,0.0,0.0,0.0,0.0,0.0,0.0,0.0,0.0,0.0,0.0,0.0,0.0,0.0,0.0,0.0,0.0,0.0,0.0,0.0,0.0,0.0,0.0,0.0,0.0,0.0,0.0,0.0,0.0,0.0,0.0,0.0,0.0,0.0,0.0,0.0,0.0,0.0,0.0,0.0,0.0,0.0,0.0,0.0,0.0,0.0,0.0,0.0,0.0,0.0,0.0,0.0,0.0,0.0,0.0,0.0,0.0,0.0,0.0,0.0,0.0,0.0,0.0,0.0,0.0,0.0,0.9573,0.9521,0.9519,0.0,0.0,0.0,0.0,0.0,0.0,0.0,0.0,0.0,0.0,0.0,0.0,0.0,0.0,0.0,0.0,0.0,0.0,0.0,0.0,0.0,0.0,0.0,0.0,0.0,0.0,0.0,0.0,0.0,0.0,0.0,0.0,0.0,0.0,0.0,0.0,0.0,0.0,0.0,0.0,0.0,0.0,0.0,0.0,0.0,0.0,0.0,0.0,0.0,0.0,0.0,0.0,0.0,0.0,0.0,0.0,0.0,0.0,0.0,0.0,0.0,0.0,0.0,0.0,0.0,0.0,0.0,0.0,0.0,0.0,0.0,0.0,0.0,0.0,0.0,0.0,0.0,0.0,0.0,0.0,0.0,0.0,0.0,0.0,0.0,0.0,0.0,0.0,0.0,0.0,0.0,0.0,0.0,0.0,0.0,0.0,0.0,0.0,0.0,0.0,0.0,0.0,0.0,0.0,0.0,0.0,0.0,0.0,0.0,0.0,0.9812,1.046,1.0343,0.0,1.0181,0.0,0.0,0.0,0.0,0.0,0.0,0.0,0.0,0.0,0.0,0.0,0.0,0.0,0.0,0.0,0.0,0.0,0.0,0.0,0.0,0.0,0.0,0.0,0.0,0.0,0.0,0.0,0.0,0.0,0.0,0.0,0.0,0.0,0.0,0.0,0.0,0.0,0.0,0.0,0.0,0.0,0.0,0.0,0.0,0.0,0.0,0.0,0.0,0.0,0.0,0.0,0.0,0.0,0.0,0.0,0.0,0.0,0.0,0.0,0.0,0.0,0.0,0.0,0.0,0.0,0.0,0.0,0.0,0.0,0.0,0.0,0.0,0.0,0.0,0.0,0.0,0.0,0.0,0.0,0.0,0.0,0.0,0.0,0.0,0.0,0.0,0.0,0.0,0.0,0.0,0.0,0.0,0.0,0.0,0.0,0.0,0.0,0.0,0.0,0.0,0.0,0.0,0.0,0.0,0.0,0.0,0.0,0.0,0.0,0.0,1.013,1.0239,1.0192,1.018,0.0,0.0,0.0,0.0,0.0,0.0,0.0,0.0,0.0,0.0,0.0,0.0,0.0,0.0,0.0,0.0,0.0,0.0,0.0,0.0,0.0,0.0,0.0,0.0,0.0,0.0,0.0,0.0,0.0,0.0,0.0,0.0,0.0,0.0,0.0,0.0,0.0,0.0,0.0,0.0,0.0,0.0,0.0,0.0,0.0,0.0,0.0,0.0,0.0,0.0,0.0,0.0,0.0,0.0,0.0,0.0,0.0,0.0,0.0,0.0,0.0,0.0,0.0,0.0,0.0,0.0,0.0,0.0,0.0,0.0,0.0,0.0,0.0,0.0,0.0,0.0,0.0,0.0,0.0,0.0,0.0,0.0,0.0,0.0,0.0,0.0,0.0,0.0,0.0,0.0,0.0,0.0,0.0,0.0,0.0,0.0,0.0,0.0,0.0,0.0,0.0,0.0,0.0,0.0,0.0,0.0,0.0,0.0,0.0,0.0,1.0165,1.0383,1.0372,1.0352,1.0299,1.0138,0.0,0.0,0.0,0.0,0.0,0.0,0.0,0.0,0.0,0.0,0.0,0.0,0.0,0.0,0.0,0.0,0.0,0.0,0.0,0.0,0.0,0.0,0.0,0.0,0.0,0.0,0.0,0.0,0.0,0.0,0.0,0.0,0.0,0.0,0.0,0.0,0.0,0.0,0.0,0.0,0.0,0.0,0.0,0.0,0.0,0.0,0.0,0.0,0.0,0.0,0.0,0.0,0.0,0.0,0.0,0.0,0.0,0.0,0.0,0.0,0.0,0.0,0.0,0.0,0.0,0.0,0.0,0.0,0.0,0.0,0.0,0.0,0.0,0.0,0.0,0.0,0.0,0.0,0.0,0.0,0.0,0.0,0.0,0.0,0.0,0.0,0.0,0.0,0.0,0.0,0.0,0.0,0.0,0.0,0.0,0.0,0.0,0.0,0.0,0.0,0.0,0.0,0.0,0.0,0.0,0.0,0.0,0.0,0.0,1.0538,1.0549,1.122,1.1237,1.0846,0.0,0.0,0.0,0.0,0.0,0.0,0.0,0.0,0.0,0.0,0.0,0.0,0.0,0.0,0.0,0.0,0.0,0.0,0.0,0.0,0.0,0.0,0.0,0.0,0.0,0.0,0.0,0.0,0.0,0.0,0.0,0.0,0.0,0.0,0.0,0.0,0.0,0.0,0.0,0.0,0.0,0.0,0.0,0.0,0.0,0.0,0.0,0.0,0.0,0.0,0.0,0.0,0.0,0.0,0.0,0.0,0.0,0.0,0.0,0.0,0.0,0.0,0.0,0.0,0.0,0.0,0.0,0.0,0.0,0.0,0.0,0.0,0.0,0.0,0.0,0.0,0.0,0.0,0.0,0.0,0.0,0.0,0.0,0.0,0.0,0.0,0.0,0.0,0.0,0.0,0.0,0.0,0.0,0.0,0.0,0.0,0.0,0.0,0.0,0.0,0.0,0.0,0.0,0.0,0.0,0.0,0.0,0.0,0.0,0.976,0.9941,1.0702,1.1961,1.1041,1.0585,0.0,0.0,0.0,0.0,0.0,0.0,0.0,0.0,0.0,0.0,0.0,0.0,0.0,0.0,0.0,0.0,0.0,0.0,0.0,0.0,0.0,0.0,0.0,0.0,0.0,0.0,0.0,0.0,0.0,0.0,0.0,0.0,0.0,0.0,0.0,0.0,0.0,0.0,0.0,0.0,0.0,0.0,0.0,0.0,0.0,0.0,0.0,0.0,0.0,0.0,0.0,0.0,0.0,0.0,0.0,0.0,0.0,0.0,0.0,0.0,0.0,0.0,0.0,0.0,0.0,0.0,0.0,0.0,0.0,0.0,0.0,0.0,0.0,0.0,0.0,0.0,0.0,0.0,0.0,0.0,0.0,0.0,0.0,0.0,0.0,0.0,0.0,0.0,0.0,0.0,0.0,0.0,0.0,0.0,0.0,0.0,0.0,0.0,0.0,0.0,0.0,0.0,0.0,0.0,0.0,0.0,0.0,0.0,0.0,0.9615,0.0,1.1175,0.0,1.0951,1.0414,0.0,0.0,0.0,0.0,0.0,0.0,0.0,0.0,0.0,0.0,0.0,0.0,0.0,0.0,0.0,0.0,0.0,0.0,0.0,0.0,0.0,0.0,0.0,0.0,0.0,0.0,0.0,0.0,0.0,0.0,0.0,0.0,0.0,0.0,0.0,0.0,0.0,0.0,0.0,0.0,0.0,0.0,0.0,0.0,0.0,0.0,0.0,0.0,0.0,0.0,0.0,0.0,0.0,0.0,0.0,0.0,0.0,0.0,0.0,0.0,0.0,0.0,0.0,0.0,0.0,0.0,0.0,0.0,0.0,0.0,0.0,0.0,0.0,0.0,0.0,0.0,0.0,0.0,0.0,0.0,0.0,0.0,0.0,0.0,0.0,0.0,0.0,0.0,0.0,0.0,0.0,0.0,0.0,0.0,0.0,0.0,0.0,0.0,0.0,0.0,0.0,0.0,0.0,0.0,0.0,0.0,0.0,0.0,0.9636,1.1001,1.1814,1.1865,1.1171,1.1096,1.0392,0.0,0.0,0.0,0.0,0.0,0.0,0.0,0.0,0.0,0.0,0.0,0.0,0.0,0.0,0.0,0.0,0.0,0.0,0.0,0.0,0.0,0.0,0.0,0.0,0.0,0.0,0.0,0.0,0.0,0.0,0.0,0.0,0.0,0.0,0.0,0.0,0.0,0.0,0.0,0.0,0.0,0.0,0.0,0.0,0.0,0.0,0.0,0.0,0.0,0.0,0.0,0.0,0.0,0.0,0.0,0.0,0.0,0.0,0.0,0.0,0.0,0.0,0.0,0.0,0.0,0.0,0.0,0.0,0.0,0.0,0.0,0.0,0.0,0.0,0.0,0.0,0.0,0.0,0.0,0.0,0.0,0.0,0.0,0.0,0.0,0.0,0.0,0.0,0.0,0.0,0.0,0.0,0.0,0.0,0.0,0.0,0.0,0.0,0.0,0.0,0.0,0.0,0.0,0.0,0.0,0.0,0.0,0.0,0.0,1.0345,1.1079,1.1865,1.2575,1.1164,1.0616,0.0,0.0,0.0,0.0,0.0,0.0,0.0,0.0,0.0,0.0,0.0,0.0,0.0,0.0,0.0,0.0,0.0,0.0,0.0,0.0,0.0,0.0,0.0,0.0,0.0,0.0,0.0,0.0,0.0,0.0,0.0,0.0,0.0,0.0,0.0,0.0,0.0,0.0,0.0,0.0,0.0,0.0,0.0,0.0,0.0,0.0,0.0,0.0,0.0,0.0,0.0,0.0,0.0,0.0,0.0,0.0,0.0,0.0,0.0,0.0,0.0,0.0,0.0,0.0,0.0,0.0,0.0,0.0,0.0,0.0,0.0,0.0,0.0,0.0,0.0,0.0,0.0,0.0,0.0,0.0,0.0,0.0,0.0,0.0,0.0,0.0,0.0,0.0,0.0,0.0,0.0,0.0,0.0,0.0,0.0,0.0,0.0,0.0,0.0,0.0,0.0,0.0,0.0,0.0,0.0,0.0,0.0,0.0,0.0,1.1169,1.1947,1.2694,1.3379,1.2017,1.1427,1.1789,0.0,0.0,0.0,0.0,0.0,0.0,0.0,0.0,0.0,0.0,0.0,0.0,0.0,0.0,0.0,0.0,0.0,0.0,0.0,0.0,0.0,0.0,0.0,0.0,0.0,0.0,0.0,0.0,0.0,0.0,0.0,0.0,0.0,0.0,0.0,0.0,0.0,0.0,0.0,0.0,0.0,0.0,0.0,0.0,0.0,0.0,0.0,0.0,0.0,0.0,0.0,0.0,0.0,0.0,0.0,0.0,0.0,0.0,0.0,0.0,0.0,0.0,0.0,0.0,0.0,0.0,0.0,0.0,0.0,0.0,0.0,0.0,0.0,0.0,0.0,0.0,0.0,0.0,0.0,0.0,0.0,0.0,0.0,0.0,0.0,0.0,0.0,0.0,0.0,0.0,0.0,0.0,0.0,0.0,0.0,0.0,0.0,0.0,0.0,0.0,0.0,0.0,0.0,0.0,0.0,0.0,0.0,0.0,1.3075,1.4052,1.4231,1.3574,1.343,1.2719,0.0,0.0,0.0,0.0,0.0,0.0,0.0,0.0,0.0,0.0,0.0,0.0,0.0,0.0,0.0,0.0,0.0,0.0,0.0,0.0,0.0,0.0,0.0,0.0,0.0,0.0,0.0,0.0,0.0,0.0,0.0,0.0,0.0,0.0,0.0,0.0,0.0,0.0,0.0,0.0,0.0,0.0,0.0,0.0,0.0,0.0,0.0,0.0,0.0,0.0,0.0,0.0,0.0,0.0,0.0,0.0,0.0,0.0,0.0,0.0,0.0,0.0,0.0,0.0,0.0,0.0,0.0,0.0,0.0,0.0,0.0,0.0,0.0,0.0,0.0,0.0,0.0,0.0,0.0,0.0,0.0,0.0,0.0,0.0,0.0,0.0,0.0,0.0,0.0,0.0,0.0,0.0,0.0,0.0,0.0,0.0,0.0,0.0,0.0,0.0,0.0,0.0,0.0,0.0,0.0,0.0,0.0,0.0,0.0,1.4202,1.5009,1.5266,1.5001,1.3989,1.321,0.0,0.0,0.0,0.0,0.0,0.0,0.0,0.0,0.0,0.0,0.0,0.0,0.0,0.0,0.0,0.0,0.0,0.0,0.0,0.0,0.0,0.0,0.0,0.0,0.0,0.0,0.0,0.0,0.0,0.0,0.0,0.0,0.0,0.0,0.0,0.0,0.0,0.0,0.0,0.0,0.0,0.0,0.0,0.0,0.0,0.0,0.0,0.0,0.0,0.0,0.0,0.0,0.0,0.0,0.0,0.0,0.0,0.0,0.0,0.0,0.0,0.0,0.0,0.0,0.0,0.0,0.0,0.0,0.0,0.0,0.0,0.0,0.0,0.0,0.0,0.0,0.0,0.0,0.0,0.0,0.0,0.0,0.0,0.0,0.0,0.0,0.0,0.0,0.0,0.0,0.0,0.0,0.0,0.0,0.0,0.0,0.0,0.0,0.0,0.0,0.0,0.0,0.0,0.0,0.0,0.0,0.0,0.0,1.3076,1.4513,1.5591,1.6058,1.5863,1.5038,1.4333,0.0,0.0,0.0,0.0,0.0,0.0,0.0,0.0,0.0,0.0,0.0,0.0,0.0,0.0,0.0,0.0,0.0,0.0,0.0,0.0,0.0,0.0,0.0,0.0,0.0,0.0,0.0,0.0,0.0,0.0,0.0,0.0,0.0,0.0,0.0,0.0,0.0,0.0,0.0,0.0,0.0,0.0,0.0,0.0,0.0,0.0,0.0,0.0,0.0,0.0,0.0,0.0,0.0,0.0,0.0,0.0,0.0,0.0,0.0,0.0,0.0,0.0,0.0,0.0,0.0,0.0,0.0,0.0,0.0,0.0,0.0,0.0,0.0,0.0,0.0,0.0,0.0,0.0,0.0,0.0,0.0,0.0,0.0,0.0,0.0,0.0,0.0,0.0,0.0,0.0,0.0,0.0,0.0,0.0,0.0,0.0,0.0,0.0,0.0,0.0,0.0,0.0,0.0,0.0,0.0,0.0,0.0,0.0,1.3787,1.4341,1.5886,1.652,1.6236,1.6207,1.5663,0.0,0.0,0.0,0.0,0.0,0.0,0.0,0.0,0.0,0.0,0.0,0.0,0.0,0.0,0.0,0.0,0.0,0.0,0.0,0.0,0.0,0.0,0.0,0.0,0.0,0.0,0.0,0.0,0.0,0.0,0.0,0.0,0.0,0.0,0.0,0.0,0.0,0.0,0.0,0.0,0.0,0.0,0.0,0.0,0.0,0.0,0.0,0.0,0.0,0.0,0.0,0.0,0.0,0.0,0.0,0.0,0.0,0.0,0.0,0.0,0.0,0.0,0.0,0.0,0.0,0.0,0.0,0.0,0.0,0.0,0.0,0.0,0.0,0.0,0.0,0.0,0.0,0.0,0.0,0.0,0.0,0.0,0.0,0.0,0.0,0.0,0.0,0.0,0.0,0.0,0.0,0.0,0.0,0.0,0.0,0.0,0.0,0.0,0.0,0.0,0.0,0.0,0.0,0.0,0.0,0.0,0.0,0.0,1.3527,1.4688,1.5559,1.6102,1.6297,1.6229,1.5663,0.0,0.0,0.0,0.0,0.0,0.0,0.0,0.0,0.0,0.0,0.0,0.0,0.0,0.0,0.0,0.0,0.0,0.0,0.0,0.0,0.0,0.0,0.0,0.0,0.0,0.0,0.0,0.0,0.0,0.0,0.0,0.0,0.0,0.0,0.0,0.0,0.0,0.0,0.0,0.0,0.0,0.0,0.0,0.0,0.0,0.0,0.0,0.0,0.705,0.0,0.0,0.0,0.0,0.0,0.0,0.0,0.0,0.0,0.0,0.0,0.0,0.0,0.0,0.0,0.0,0.0,0.0,0.0,0.0,0.0,0.0,0.0,0.0,0.0,0.0,0.0,0.0,0.0,0.0,0.0,0.0,0.0,0.0,0.0,0.0,0.0,0.0,0.0,0.0,0.0,0.0,0.0,0.0,0.0,0.0,0.0,0.0,0.0,0.0,0.0,0.0,0.0,0.0,0.0,0.0,0.0,0.0,0.0,1.3765,1.4781,1.5454,1.5955,1.6285,1.6256,1.5787,0.0,0.0,0.0,0.0,0.0,0.0,0.0,0.0,0.0,0.0,0.0,0.0,0.0,0.0,0.0,0.0,0.0,0.0,0.0,0.0,0.0,0.0,0.0,0.0,0.0,0.0,0.0,0.0,0.0,0.0,0.0,0.0,0.0,0.0,0.0,0.0,0.0,0.0,0.0,0.0,0.0,0.0,0.0,0.0,0.0,0.0,0.0,0.0,0.0,0.0,0.0,0.0,0.0,0.0,0.0,0.0,0.0,0.0,0.0,0.0,0.0,0.0,0.0,0.0,0.0,0.0,0.0,0.0,0.0,0.0,0.0,0.0,0.0,0.0,0.0,0.0,0.0,0.0,0.0,0.0,0.0,0.0,0.0,0.0,0.0,0.0,0.0,0.0,0.0,0.0,0.0,0.0,0.0,0.0,0.0,0.0,0.0,0.0,0.0,0.0,0.0,0.0,0.0,0.0,0.0,0.0,0.0,1.2781,1.4079,1.4931,1.55,1.5942,1.6219,1.6287,1.5908,1.5049,0.0,0.0,0.0,0.0,0.0,0.0,0.0,0.0,0.0,0.0,0.0,0.0,0.0,0.0,0.0,0.0,0.0,0.0,0.0,0.0,0.0,0.0,0.0,0.0,0.0,0.0,0.0,0.0,0.0,0.0,0.0,0.0,0.0,0.0,0.0,0.0,0.0,0.0,0.7825,0.9091,0.0,0.0,0.0,0.0,0.0,0.0,0.0,0.0,0.8087,0.0,0.0,0.0,0.0,0.0,0.0,0.0,0.0,0.0,0.0,0.0,0.0,0.0,0.0,0.0,0.0,0.0,0.0,0.0,0.0,0.0,0.0,0.0,0.0,0.0,0.0,0.0,0.0,0.0,0.0,0.0,0.0,0.0,0.0,0.0,0.0,0.0,0.0,0.0,0.0,0.0,0.0,0.0,0.0,0.0,0.0,0.0,0.0,0.0,0.0,0.0,0.0,0.0,0.0,0.0,0.0,1.2456,1.2801,1.3822,1.5574,1.5739,1.5827,1.5899,1.6136,1.578,1.4722,0.0,0.0,0.0,0.0,0.0,0.0,0.0,0.0,0.0,0.0,0.0,0.0,0.0,0.0,0.0,0.0,0.0,0.0,0.0,0.0,0.0,0.0,0.0,0.0,0.0,0.0,0.0,0.0,0.0,0.0,0.0,0.0,0.0,0.0,0.0,0.0,0.0,0.0,0.0,1.0878,1.1666,0.0,0.0,0.0,0.0,0.0,0.0,0.0,0.0,0.7849,0.0,0.0,0.0,0.0,0.0,0.0,0.0,0.0,0.0,0.0,0.0,0.0,0.0,0.0,0.0,0.0,0.0,0.0,0.0,0.0,0.0,0.0,0.0,0.0,0.0,0.0,0.0,0.0,0.0,0.0,0.0,0.0,0.0,0.0,0.0,0.0,0.0,0.0,0.0,0.0,0.0,0.0,0.0,0.0,0.0,0.0,0.0,0.0,0.0,0.0,0.0,0.0,0.0,0.0,0.0,1.2213,1.3072,1.4237,1.5739,1.5814,1.5814,1.5799,1.5621,1.518,0.0,0.0,0.0,0.0,0.0,0.0,0.0,0.0,0.0,0.0,0.0,0.0,0.0,0.0,0.0,0.0,0.0,0.0,0.0,0.0,0.0,0.0,0.0,0.0,0.0,0.0,0.0,0.0,0.0,0.0,0.0,0.0,0.0,0.0,0.0,0.0,0.0,0.0,0.0,0.0,1.1783,1.2283,1.2847,0.0,0.0,0.0,0.0,0.0,0.0,0.9147,0.8446,0.0,0.0,0.0,0.0,0.0,0.0,0.0,0.0,0.0,0.0,0.0,0.0,0.0,0.0,0.0,0.0,0.0,0.0,0.0,0.0,0.0,0.0,0.0,0.0,0.0,0.0,0.0,0.0,0.0,0.0,0.0,0.0,0.0,0.0,0.0,0.0,0.0,0.0,0.0,0.0,0.0,0.0,0.0,0.0,0.0,0.0,0.0,0.0,0.0,0.0,0.0,0.0,0.0,0.0,0.0,1.1766,1.3092,1.4385,1.5594,1.5668,1.5712,1.5799,1.5289,1.4749,0.0,0.0,0.0,0.0,0.0,0.0,0.0,0.0,0.0,0.0,0.0,0.0,0.0,0.0,0.0,0.0,0.0,0.0,0.0,0.0,0.0,0.0,0.0,0.0,0.0,0.0,0.0,0.0,0.0,0.0,0.0,0.0,0.0,0.0,0.0,0.0,0.0,0.0,0.0,0.0,0.0,1.2768,1.2818,1.1866,0.0,0.0,0.0,0.0,1.1167,1.0411,0.0,0.0,0.0,0.0,0.0,0.0,0.0,0.0,0.0,0.0,0.0,0.0,0.0,0.0,0.0,0.0,0.0,0.0,0.0,0.0,0.0,0.0,0.0,0.0,0.0,0.0,0.0,0.0,0.0,0.0,0.0,0.0,0.0,0.0,0.0,0.0,0.0,0.0,0.0,0.0,0.0,0.0,0.0,0.0,0.0,0.0,0.0,0.0,0.0,0.0,0.0,0.0,0.0,0.0,0.0,0.0,1.1668,1.2348,1.3487,1.5077,1.518,1.5374,1.5784,1.5724,1.5217,0.0,0.0,0.0,0.0,0.0,0.0,0.0,0.0,0.0,0.0,0.0,0.0,0.0,0.0,0.0,0.0,0.0,0.0,0.0,0.0,0.0,0.0,0.0,0.0,0.0,0.0,0.0,0.0,0.0,0.0,0.0,0.0,0.0,0.0,0.0,0.0,0.0,0.0,0.0,0.0,0.0,1.3651,1.3879,1.2798,1.2069,0.0,0.0,1.1445,1.212,1.1583,0.0,0.0,0.0,0.0,0.0,0.0,0.0,0.0,0.0,0.0,0.0,0.0,0.0,0.0,0.0,0.0,0.0,0.0,0.0,0.0,0.0,0.0,0.0,0.0,0.0,0.0,0.0,0.0,0.0,0.0,0.0,0.0,0.0,0.0,0.0,0.0,0.0,0.0,0.0,0.0,0.0,0.0,0.0,0.0,0.0,0.0,0.0,0.0,0.0,0.0,0.0,0.0,0.0,0.0,0.0,1.0304,1.1678,1.2749,1.3763,1.4708,1.4768,1.4967,1.5404,1.5037,1.4573,0.0,0.0,0.0,0.0,0.0,0.0,0.0,0.0,0.0,0.0,0.0,0.0,0.0,0.0,0.0,0.0,0.0,0.0,0.0,0.0,0.0,0.0,0.0,0.0,0.0,0.0,0.0,0.0,0.0,0.0,0.0,0.0,0.0,0.0,0.0,0.0,0.0,0.0,0.0,0.0,0.0,0.0,1.3665,1.3051,0.0,0.0,0.0,1.2808,1.3443,0.0,0.0,0.0,0.0,0.0,0.0,0.0,0.0,0.0,0.0,0.0,0.0,0.0,0.0,0.0,0.0,0.0,0.0,0.0,0.0,0.0,0.0,0.0,0.0,0.0,0.0,0.0,0.0,0.0,0.0,0.0,0.0,0.0,0.0,0.0,0.0,0.0,0.0,0.0,0.0,0.0,0.0,0.0,0.0,0.0,0.0,0.0,0.0,0.0,0.0,0.0,0.0,0.0,0.0,0.0,0.0,0.0,1.1884,1.3095,1.405,1.4716,1.4492,1.4665,1.5289,1.4702,0.0,0.0,0.0,0.0,0.0,0.0,0.0,0.0,0.0,0.0,0.0,0.0,0.0,0.0,0.0,0.0,0.0,0.0,0.0,0.0,0.0,0.0,0.0,0.0,0.0,0.0,0.0,0.4763,0.0,0.0,0.0,0.0,0.0,0.0,0.0,0.0,0.0,0.0,0.0,0.0,0.0,0.0,1.3551,1.3705,1.3429,1.3564,0.0,0.0,1.4075,1.4398,1.4029,1.3182,0.0,0.0,0.0,0.0,0.0,0.0,0.0,0.0,0.0,0.0,0.0,0.0,0.0,0.0,0.0,0.0,0.0,0.0,0.0,0.0,0.0,0.0,0.0,0.0,0.0,0.0,0.0,0.0,0.0,0.0,0.0,0.0,0.0,0.0,0.0,0.0,0.0,0.0,0.0,0.0,0.0,0.0,0.0,0.0,0.0,0.0,0.0,0.0,0.0,0.0,0.0,0.0,0.0,0.0,0.0,1.2301,1.2939,1.397,1.533,1.4457,1.4585,1.5873,1.5333,1.463,0.0,0.0,0.0,0.0,0.0,0.0,0.0,0.0,0.0,0.0,0.0,0.0,0.0,0.0,0.0,0.0,0.0,0.0,0.0,0.0,0.0,0.0,0.0,0.0,0.0,0.0,0.0,0.0,0.0,0.0,0.0,0.0,0.0,0.0,0.0,0.0,0.0,0.0,0.0,0.0,0.0,1.4842,1.4564,1.4288,1.4224,0.0,1.4778,1.4833,1.4624,1.4254,1.3451,1.1924,0.0,0.0,0.0,0.0,0.0,0.0,0.0,0.0,0.0,0.0,0.0,0.0,0.0,0.0,0.0,0.0,0.0,0.0,0.0,0.0,0.0,0.0,0.0,0.0,0.0,0.0,0.0,0.0,0.0,0.0,0.0,0.0,0.0,0.0,0.0,0.0,0.0,0.0,0.0,0.0,0.0,0.0,0.0,0.0,0.0,0.0,0.0,0.0,0.0,0.0,0.0,0.0,0.0,1.0734,1.2375,1.3283,1.4208,1.5069,1.4717,1.4747,1.5179,1.5211,1.4675,0.0,0.0,0.0,0.0,0.0,0.0,0.0,0.0,0.0,0.0,0.0,0.0,0.0,0.0,0.0,0.0,0.0,0.0,0.0,0.0,0.0,0.0,0.0,0.0,0.0,0.0,0.0,0.0,0.6555,0.7205,0.7097,0.0,0.0,0.0,0.0,0.0,0.0,0.0,0.0,0.0,0.0,1.4556,1.4583,1.4928,0.0,0.0,1.5428,1.5528,1.5632,1.4974,1.4073,1.305,1.2162,0.0,0.0,0.0,0.0,0.0,0.0,0.0,0.0,0.0,0.0,0.0,0.0,0.0,0.0,0.0,0.0,0.0,0.0,0.0,0.0,0.0,0.0,0.0,0.0,0.0,0.0,0.0,0.0,0.0,0.0,0.0,0.0,0.0,0.0,0.0,0.0,0.0,0.0,0.0,0.0,0.0,0.0,0.0,0.0,0.0,0.0,0.0,0.0,0.0,0.0,0.0,0.0,1.0809,1.2597,1.3589,1.4525,1.5374,1.506,1.4904,1.4962,1.5063,1.4543,0.0,0.0,0.0,0.0,0.0,0.0,0.0,0.0,0.0,0.0,0.0,0.0,0.0,0.0,0.0,0.0,0.0,0.0,0.0,0.0,0.0,0.0,0.0,0.0,0.0,0.0,0.0,0.0,0.7418,0.8124,0.8036,0.0,0.0,0.0,0.0,0.0,0.0,0.0,0.0,0.0,0.0,1.4603,1.4934,1.5445,1.5814,1.5814,1.5814,1.5823,1.5832,1.5271,1.4458,1.3346,0.0,0.0,0.0,0.0,0.0,0.0,0.0,0.0,0.0,0.0,0.0,0.0,0.0,0.0,0.0,0.0,0.0,0.0,0.0,0.0,0.0,0.0,0.0,0.0,0.0,0.0,0.0,0.989,0.0,0.0,0.9337,0.0,0.0,0.0,0.0,0.0,0.0,0.0,0.0,0.0,0.0,0.0,0.0,0.0,0.0,0.0,0.0,0.0,0.0,0.0,0.0,0.0,0.0,1.1008,1.3148,1.3815,1.4859,1.6371,1.5429,1.5108,1.5459,1.4993,1.4339,1.35,0.0,0.0,0.0,0.0,0.0,0.0,0.0,0.0,0.0,0.0,0.0,0.0,0.0,0.0,0.0,0.0,0.0,0.0,0.0,0.0,0.0,0.0,0.0,0.0,0.0,0.0,0.6816,0.6559,0.7055,0.0,0.0,0.0,0.0,0.0,0.0,0.0,0.0,0.0,1.392,1.4716,1.5325,1.569,1.5769,1.5784,1.5785,1.5799,1.5589,1.4974,1.5023,1.4501,0.0,0.0,0.0,0.0,0.0,0.0,0.0,0.0,0.0,0.0,0.0,0.0,0.0,0.0,0.0,0.0,0.0,0.0,0.0,0.0,0.0,0.0,0.0,0.0,0.0,0.0,0.0,1.243,1.1553,0.0,0.0,0.0,0.0,0.0,0.0,0.0,0.0,0.0,0.0,0.0,1.4097,1.4556,0.0,0.0,0.0,0.0,0.0,0.0,0.0,0.0,0.0,0.0,0.0,0.0,1.1942,1.3758,1.4708,1.5593,1.645,1.6158,1.5863,1.5623,1.5367,1.4634,1.3333,0.0,0.0,0.0,0.0,0.0,0.0,0.0,0.0,0.0,0.0,0.0,0.0,0.0,0.0,0.0,0.0,0.0,0.0,0.0,0.0,0.0,0.0,0.0,0.0,0.0,0.8826,0.0,0.0,0.0,0.0,0.0,0.0,0.0,0.0,0.0,0.0,0.0,1.3385,1.4667,1.4745,1.4949,1.5694,1.5814,1.5595,0.0,0.0,0.0,0.0,0.0,0.0,0.0,0.0,0.0,0.0,0.0,0.0,0.0,0.0,1.203,1.0031,0.9529,0.9381,0.9317,0.0,0.0,0.0,0.0,0.0,0.0,0.0,0.0,0.0,0.0,0.0,0.0,0.0,0.0,1.4329,1.3859,1.3222,0.0,0.0,0.0,0.0,0.0,0.0,0.0,0.0,1.5427,1.6158,1.5797,1.612,1.6116,1.5751,1.5185,1.379,0.0,0.0,0.0,0.0,0.0,0.0,0.0,0.0,1.2696,1.4343,1.5248,1.5969,1.6475,1.6513,1.6258,1.5706,1.5261,1.4413,1.3136,1.1965,1.1221,0.0,0.0,0.0,0.0,0.0,0.0,0.0,0.0,0.0,0.0,0.0,0.0,0.0,0.0,0.0,0.0,0.0,0.0,0.0,0.0,0.0,0.0,0.0,0.9579,0.0,0.0,0.0,0.0,0.0,0.0,0.0,0.0,0.0,1.3893,1.3872,1.4197,1.5344,1.5198,1.5067,1.5315,0.0,0.0,0.0,0.0,0.0,0.0,0.0,1.466,1.4845,1.452,1.4318,1.4688,1.4177,1.388,1.4397,0.0,0.0,1.1247,1.1119,1.1253,1.0927,1.0733,1.0773,1.1286,1.1418,1.1483,0.0,0.0,0.0,0.0,1.5923,0.0,0.0,0.0,1.6003,1.6264,0.0,1.6078,0.0,0.0,0.0,0.0,1.2705,1.4796,0.0,0.0,1.7285,1.799,1.7536,1.7524,1.7498,1.7436,1.6873,1.6007,1.4859,1.2835,0.0,0.0,0.0,0.0,0.0,0.0,1.327,1.489,1.5454,1.5982,1.6475,1.6513,1.6224,1.5693,1.4689,1.3782,1.3032,1.3275,1.2775,1.1362,1.0956,0.0,0.0,0.0,0.0,0.0,0.0,0.0,0.0,0.0,0.0,0.0,0.0,0.0,0.0,0.0,0.0,0.0,0.0,0.0,0.0,0.9423,0.0,0.0,0.0,0.0,0.0,0.0,0.0,0.0,0.0,0.0,1.4648,1.4887,1.5292,1.6007,0.0,0.0,0.0,0.0,1.5984,1.6408,1.5625,1.5036,1.5194,1.5673,1.5806,1.5146,0.0,0.0,1.5817,1.5784,1.5738,1.5769,1.5016,1.4327,1.3826,1.3268,1.3125,1.3523,1.3187,1.3067,1.315,1.3253,1.3597,2.0893,0.0,0.0,0.0,0.0,1.8091,1.855,1.9314,1.9314,1.8727,1.7757,1.7603,0.0,0.0,0.0,0.0,0.0,0.0,1.7591,1.7879,1.9309,1.9899,1.9749,1.9749,1.9535,1.9095,1.8531,1.7739,1.6694,1.6053,1.4381,1.1751,0.0,0.0,0.0,0.0,1.4607,1.5462,1.6007,1.6337,1.6509,1.6513,1.6237,1.5706,1.5035,1.4527,1.4196,1.3478,1.2999,1.2816,1.1716,0.0,0.0,0.0,0.0,0.0,0.0,0.0,0.0,0.0,0.0,0.0,0.0,0.0,0.0,0.0,0.0,0.0,0.0,0.0,0.9703,1.0148,1.0477,0.0,0.0,0.0,0.0,0.0,0.0,0.0,0.0,0.0,1.5083,1.5539,1.5858,0.0,0.0,1.596,1.5688,1.6005,1.6355,1.6485,1.6258,0.0,1.5459,1.5425,1.5534,1.5741,1.597,1.6034,1.5832,1.5814,1.5814,1.5785,1.4594,1.3664,1.3909,1.3263,1.2891,1.3217,1.301,1.2685,1.2719,1.3165,1.3642,2.354,2.124,2.045,2.0324,2.0625,2.0625,2.1001,2.1644,2.1644,2.1079,2.0124,1.9924,1.8844,1.7172,1.6732,0.0,0.0,0.0,1.9359,1.9723,2.0603,2.1018,2.1018,2.1018,2.0815,2.0439,1.9698,1.8995,1.8342,1.7915,1.6597,1.445,0.0,0.0,1.487,1.5542,1.6153,1.6672,1.6798,1.6873,1.6848,1.6613,1.6258,1.5706,1.5185,1.4752,1.4469,1.3709,1.3295,1.3258,1.254,1.1845,0.0,0.0,0.0,0.0,0.0,0.0,0.0,0.0,0.0,0.0,0.0,0.6148,0.504,0.0,0.0,0.0,0.8993,1.0337,1.0977,1.1615,0.0,0.0,0.0,0.0,0.0,0.0,0.0,1.4099,1.4797,1.5438,1.6035,1.6409,1.6527,1.629,1.625,1.627,1.625,0.0,1.6513,1.6513,1.6513,1.6368,1.5947,1.5801,1.5836,1.6204,1.6418,1.6396,1.6132,1.5986,1.5662,1.4917,1.4271,1.3841,1.376,1.3552,1.3474,1.3668,1.3498,1.325,1.3087,1.3491,1.3853,2.5988,2.4963,2.3923,2.3384,2.3233,2.3246,2.3233,2.3246,2.3246,2.3221,2.3133,2.2644,2.1857,2.083,1.9785,0.0,1.9459,2.0453,2.0918,2.0968,2.1446,2.1619,2.1619,2.1609,2.1571,2.1518,2.0451,1.9936,1.9886,1.8907,1.8141,1.7662,1.7039,1.6986,1.7373,1.7436,1.7702,1.8191,1.7702,1.7448,1.7385,1.6861,1.6321,1.5781,1.5211,1.4676,1.4191,1.3955,1.3565,1.2975,1.327,1.2802,1.1336,0.0,0.0,0.0,0.0,0.0,0.0,0.0,0.0,0.0,0.0,0.0,0.0,0.0,0.0,0.0,1.0747,0.0,1.2879,1.3523,0.0,0.0,0.0,1.3927,1.3992,1.5015,1.583,1.6068,0.0,0.0,1.7272,1.7412,1.7262,1.6688,1.655,1.6513,1.6513,1.6509,1.6513,1.6513,1.6513,1.6513,1.643,1.6439,1.6435,1.6469,1.6816,1.685,1.6542,1.631,1.5387,1.4016,1.4299,1.4632,1.3566,1.4223,1.482,1.4539,1.4456,1.4287,1.3868,1.4017,1.4033,2.7557,2.727,2.703,2.5929,2.4399,2.4399,2.4399,2.4418,2.4399,2.4148,2.3791,2.3665,2.317,2.2506,2.2243,2.2368,2.2811,2.2606,2.2786,2.3175,2.2874,2.2706,2.2723,2.2293,2.2108,2.2071,2.1418,2.1091,2.1054,2.044,2.005,1.9887,1.9296,1.8468,1.7461,1.779,1.8078,1.8204,1.8066,1.7802,1.7423,1.7237,1.6898,1.6312,1.5399,1.4853,1.4683,1.3841,1.3293,1.312,1.3073,1.2661,1.1828,1.0636,0.0,0.0,0.0,0.0,0.0,0.0,0.0,0.0,0.0,0.853,0.6824,0.0,1.0196,0.0,1.1426,1.3056,1.4212,1.4466,0.0,0.0,1.492,1.4926,1.5494,1.5438,1.5737,1.6814,1.705,1.7369,1.7883,1.7985,1.7965,1.7779,1.7039,1.6513,1.6513,1.6513,1.6513,1.6513,1.6513,1.6513,1.6513,1.6513,1.6513,1.65,1.6574,1.6591,1.6539,1.6456,1.6214,1.5764,1.5422,1.5184,1.4895,1.4915,1.4878,1.4787,1.45,1.4045,1.3493,1.3472,1.3459,2.8323,2.8109,2.8109,2.7394,2.6264,2.6025,2.5774,2.5561,2.5561,2.5234,2.4695,2.4469,2.4161,2.3873,2.3847,2.4023,2.4299,2.3998,2.4023,2.433,2.3747,2.3484,2.3489,2.2907,2.2656,2.2631,2.2121,2.1857,2.1832,2.1333,2.1056,2.1043,2.049,1.9761,1.8906,1.8894,1.892,1.892,1.8681,1.8317,1.7765,1.7536,1.7099,1.6522,1.5693,1.5035,1.4563,1.3941,1.3483,1.3215,1.2873,1.2587,1.2389,1.1268,1.0487,0.0,0.0,0.0,0.0,0.0,0.0,0.0,0.0,0.0,0.0,0.0,1.1346,1.1625,1.2979,1.4312,1.5546,1.598,1.6364,1.6746,1.6559,1.6619,1.7224,1.7019,1.7145,1.7921,1.8,1.8141,1.8514,1.8544,1.8668,1.8869,1.8166,1.7328,1.6688,1.6923,1.7099,1.6622,1.6513,1.6513,1.6513,1.6513,1.6513,1.6513,1.6513,1.6513,1.6513,1.6513,1.6513,1.6475,1.6162,1.5773,1.5485,1.5567,1.5467,1.4997,1.4878,1.4507,1.376,1.3391,1.321,2.8712,2.8323,2.8323,2.8285,2.8185,2.7695,2.7168,2.67,2.6637,2.6273,2.5674,2.5222,2.5034,2.5001,2.5021,2.5001,2.5021,2.4926,2.4888,2.4863,2.4356,2.4079,2.3979,2.3446,2.3183,2.3083,2.2619,2.2393,2.2397,2.1857,2.1594,2.1568,2.1069,2.0754,2.0666,2.0162,1.9874,1.9798,1.9359,1.8857,1.8317,1.78,1.7225,1.6626,1.5957,1.516,1.4267,1.4141,1.3815,1.3235,1.2826,1.2672,1.2808,1.1793,1.1203,0.0,1.0607,0.0,0.0,0.0,0.0,0.0,0.0,0.0,0.0,1.2235,1.2853,1.3882,1.4877,1.5846,1.6788,1.7563,1.8006,1.797,1.8096,1.8358,1.87,1.8783,1.8862,1.8983,1.9015,1.904,1.9082,1.9096,1.9284,1.9623,1.9309,1.8544,1.7365,1.7727,1.7852,1.6873,1.6713,1.6839,1.6688,1.6638,1.6613,1.6538,1.6513,1.6513,1.6513,1.6513,1.6513,1.6513,1.6475,1.6262,1.5648,1.6074,1.6145,1.5361,1.5437,1.5299,1.4437,1.3866,1.3403,2.9566,2.9478,2.9478,2.9202,2.8725,2.8624,2.8298,2.7758,2.7318,2.6851,2.6336,2.6235,2.6185,2.6185,2.6185,2.6197,2.6147,2.5661,2.5448,2.5423,2.4908,2.4431,2.4004,2.3891,2.359,2.312,2.2995,2.2945,2.2945,2.2393,2.2159,2.2146,2.1606,2.1131,2.0717,0.0,0.0,0.0,1.9698,1.9371,1.8845,1.8306,1.779,1.7234,1.5801,0.0,1.4752,1.4324,1.3821,1.3248,1.3564,0.0,0.0,0.0,0.0,0.0,0.0,0.0,0.0,0.0,0.0,0.0,1.3692,1.3262,1.3018,1.4651,1.5535,1.5031,1.6369,1.7426,1.7734,1.8291,1.8665,1.8767,1.8804,1.8713,1.8364,1.8331,1.8501,1.8952,1.9016,1.9181,1.956,1.966,1.9685,1.9773,1.971,1.9547,1.9196,1.8794,1.843,1.7978,1.7766,1.7689,1.7275,1.7222,1.7011,1.6663,1.6513,1.6513,1.6513,1.6513,1.6513,1.6513,1.6513,1.6463,1.63,1.6412,1.6425,1.6212,1.5932,1.5525,1.4871,1.4676,1.4299,2.9779,2.9779,2.9779,2.9628,0.0,2.9352,2.9189,2.8888,2.8047,2.7381,2.6889,2.6612,2.6487,2.6487,2.6487,2.6487,2.6487,2.6185,2.6059,2.5988,2.546,2.5059,2.477,2.4243,2.3841,2.3521,2.3246,2.3095,2.3083,2.2832,2.2681,2.2669,2.2171,2.1619,2.1106,2.0541,2.0087,1.9798,1.9798,1.9673,1.9371,1.8618,1.794,1.7375,1.6283,0.0,0.0,0.0,0.0,0.0,0.0,0.0,0.0,0.0,0.0,1.3233,1.3113,1.3032,1.3107,1.3624,1.4139,1.4567,1.53,1.5271,1.4264,1.5858,1.6824,1.6629,1.7454,1.8241,1.881,1.893,1.9048,1.9331,1.8918,1.8676,1.8906,1.8744,1.8807,1.9296,1.9384,1.9522,1.9761,1.9798,1.9798,1.9798,1.9798,1.9798,1.9748,1.9271,1.8731,1.8279,1.8204,1.8103,1.785,1.7549,1.7325,1.6999,1.6688,1.6525,1.6513,1.6513,1.6513,1.6513,1.6513,1.6513,1.6513,1.6513,1.6513,1.6488,1.6274,1.6045,1.5706,1.5273,1.4695,2.9779,2.9779,2.9779,2.9779,2.9779,2.9779,2.9779,2.9716,2.8699,0.0,0.0,2.6876,2.6637,2.6625,2.6537,2.6487,2.6487,2.6487,2.6487,2.6474,2.6009,2.5699,2.5548,2.4607,2.4092,2.3979,2.3384,2.3095,2.3095,2.3095,2.3095,2.307,2.2644,2.2133,2.1496,2.0464,1.9899,1.9811,1.9798,1.9798,1.9773,1.8857,1.8078,1.7574,1.6873,1.6045,1.5085,1.5454,1.5248,1.4286,1.3878,1.3822,1.4198,1.3772,1.4072,1.5276,1.5391,1.5214,1.4776,1.5326,1.5447,1.4859,1.663,1.709,1.556,1.6745,1.7716,1.7997,1.8291,1.8813,1.958,1.9377,1.9311,1.9731,1.901,1.8857,1.9623,1.9409,1.9321,1.971,1.9773,1.9798,1.9798,1.9798,1.9798,1.9798,1.9798,1.9798,1.9748,1.9459,1.9058,1.8681,1.8643,1.8518,1.8317,1.8041,1.7626,1.7375,1.6974,1.6638,1.6525,1.6513,1.6513,1.6513,1.6513,1.6513,1.6513,1.6513,1.6513,1.6513,1.6513,1.6513,1.6437,1.5819,1.509,2.9792,2.9779,2.9779,2.9779,2.9779,2.9779,2.9779,2.9741,2.9089,2.8461,2.7959,2.7406,2.7216,2.7178,2.67,2.6487,2.6487,2.6487,2.6487,2.6487,2.6411,2.6109,2.5573,2.4996,2.4424,2.3979,2.3384,2.3095,2.3095,2.3095,2.3095,2.3095,2.3032,2.2468,2.1546,2.088,2.0327,1.9811,1.9798,1.9798,1.9786,1.9196,1.8619,1.8078,1.7052,1.6212,1.5605,1.5668,1.5404,1.484,1.5141,1.5178,1.4796,1.4695,1.4758,1.4967,1.498,1.4955,1.4904,1.5795,1.6737,1.7594,1.8742,1.8556,1.6595,1.8203,1.9083,1.8336,1.8973,1.9432,1.92,1.9446,1.9687,1.9775,1.9661,1.9648,1.9798,1.9723,1.9685,1.9786,1.9798,1.9798,1.9798,1.9798,1.9798,1.9798,1.9798,1.9798,1.9786,1.9736,1.966,1.9585,1.9572,1.9384,1.897,1.8845,1.838,1.7513,1.7373,1.7074,1.6563,1.6513,1.6513,1.6513,1.6513,1.6513,1.6513,1.6513,1.6513,1.6513,1.6513,1.6513,1.6513,1.6308,1.5986,3.0068,2.9792,2.9779,2.9779,2.9779,2.9779,2.9779,2.9767,2.9515,2.9051,2.8524,2.7971,2.7733,2.7682,2.719,2.6939,2.6927,2.6625,2.6487,2.6487,2.6487,2.6361,2.6034,2.5209,2.4695,2.4393,2.3521,2.3095,2.3095,2.3095,2.3095,2.3083,2.2819,2.2284,2.1506,2.0968,2.0402,1.9811,1.9798,1.9798,1.9786,1.9271,1.8882,1.8632,1.7852,1.7325,1.7061,1.6773,1.6367,1.5793,1.5726,1.558,1.5361,1.5336,1.56,1.6204,1.6254,1.6392,1.666,1.7162,1.7652,1.8166,1.893,1.8986,1.7951,1.9054,1.9472,1.8765,1.9343,1.9711,1.9472,1.966,1.9798,1.9798,1.9798,1.9798,1.9798,1.9798,1.9798,1.9798,1.9798,1.9798,1.9798,1.9798,1.9798,1.9798,1.9798,1.9811,1.9823,1.9811,1.9811,1.9798,1.9798,1.971,1.9472,1.9171,1.8807,1.8329,1.8028,1.7501,1.6738,1.6513,1.6513,1.6513,1.6513,1.6513,1.6513,1.6513,1.6513,1.6513,1.6513,1.6513,1.6513,1.6513,1.6174,3.0382,2.998,2.9842,2.9779,2.9779,2.9779,2.9779,2.9779,2.9779,2.9541,2.9076,2.8536,2.8298,2.8222,2.7582,2.7329,2.7241,2.6751,2.6487,2.6487,2.6487,2.6487,2.6399,2.5448,2.4996,2.4838,2.3866,2.3296,2.3283,2.317,2.3095,2.3058,2.2669,2.2192,2.1669,2.1157,2.0591,2.0024,1.9861,1.9798,1.9786,1.9397,1.9121,1.8983,1.8594,1.8318,1.8191,1.779,1.7363,1.6889,1.6497,1.6258,1.6258,1.6258,1.6647,1.7463,1.7576,1.7815,1.8329,1.8368,1.8442,1.8568,1.8933,1.9183,1.9221,1.9542,1.964,1.9321,1.9585,1.9811,1.9773,1.9798,1.9798,1.9798,1.9798,1.9798,1.9811,1.9936,1.9936,1.9874,1.9937,1.9974,1.9836,1.9798,1.9861,1.9999,1.9999,2.0024,2.0137,2.01,1.9999,1.9974,1.9899,1.9798,1.9786,1.951,1.9158,1.9045,1.8657,1.8005,1.7215,1.6751,1.6513,1.6513,1.6513,1.6513,1.6513,1.6513,1.6513,1.6513,1.6513,1.6513,1.6513,1.6513,1.6287,3.0595,3.047,3.0018,2.9779,2.9779,2.9779,2.9779,2.9779,2.9779,2.9779,2.9616,2.9114,2.8813,2.8675,2.777,2.7354,2.7304,2.6751,2.6487,2.6487,2.6487,2.6487,2.6436,2.5799,2.5523,2.5372,2.4418,2.3904,2.3828,2.3346,2.3095,2.3095,2.3058,2.2732,2.2234,2.1681,2.1169,2.0616,2.0075,1.9798,1.9798,1.9761,1.9497,1.902,1.897,1.8694,1.8292,1.8154,1.8103,1.8053,1.7965,1.7953,1.7928,1.7953,1.8003,1.8116,1.8141,1.8367,1.8857,1.892,1.9121,1.9585,1.966,1.9698,1.971,1.9762,1.9774,1.9723,1.9748,1.9798,1.9798,1.9798,1.9798,1.9798,1.9798,1.9798,1.9874,2.0399,2.0562,1.9861,2.0314,2.0427,2.0024,1.9949,2.0062,2.0465,2.0578,2.0715,2.1029,2.0828,2.0566,2.049,2.0175,1.9861,1.9798,1.9786,1.951,1.9121,1.8983,1.8632,1.8067,1.7303,1.6513,1.6538,1.6638,1.6663,1.6513,1.6513,1.6525,1.6513,1.6513,1.6513,1.6513,1.6513,1.6375,3.1185,3.0608,3.0369,3.0093,2.9817,2.9779,2.9779,2.9779,2.9779,2.9779,2.9767,2.9541,2.944,2.9377,2.8273,2.777,2.7708,2.6901,2.6487,2.6487,2.6487,2.6487,2.6436,2.5908,2.5586,2.5536,2.4833,2.4286,2.3941,2.3384,2.3095,2.3095,2.3095,2.2819,2.2305,2.2083,2.1543,2.0717,2.0465,2.015,1.9849,1.9798,1.9698,1.951,1.9472,1.9371,1.9145,1.8845,1.8669,1.8644,1.838,1.8204,1.8204,1.8204,1.8355,1.8644,1.8982,1.9246,1.9459,1.9484,1.9572,1.9786,1.9798,1.9798,1.9798,1.9798,1.9798,1.9798,1.9798,1.9798,1.9798,1.9798,1.9798,1.9798,1.9798,1.9811,1.9811,2.0401,2.0654,2.0415,2.083,2.1079,2.0893,2.079,2.0752,2.0817,2.0943,2.1307,2.1455,2.132,2.1056,2.0754,2.0478,2.0175,1.9899,1.9798,1.9685,1.9547,1.9484,1.9334,1.9108,1.8845,1.8141,1.6826,1.714,1.714,1.6563,1.6835,1.6961,1.6785,1.6525,1.6513,1.6513,1.6513,1.6513,3.1675,3.0846,3.0532,3.0168,2.9792,2.9779,2.9779,2.9779,2.9779,2.9779,2.9779,2.9779,2.9779,2.9654,2.8762,2.826,2.7996,2.714,2.6637,2.6512,2.6487,2.6487,2.6436,2.6072,2.5824,2.5749,2.5297,2.4682,2.4029,2.3572,2.3271,2.3133,2.3095,2.2907,2.256,2.241,2.192,2.1207,2.0867,2.0478,2.0101,1.9886,1.9798,1.9798,1.9798,1.9798,1.9786,1.9421,1.9208,1.9208,1.8857,1.8643,1.8643,1.8643,1.8819,1.9171,1.9585,1.9798,1.9798,1.9798,1.9798,1.9798,1.9798,1.9798,1.9798,1.9798,1.9798,1.9798,1.9798,1.9798,1.9798,1.9798,1.9861,1.9987,1.9924,1.9886,2.0263,2.0704,2.093,2.0968,2.1408,2.1644,2.1518,2.143,2.1358,2.1295,2.1493,2.1807,2.1857,2.1832,2.1531,2.1006,2.0817,2.044,1.9924,1.9798,1.9798,1.9798,1.9761,1.9748,1.9798,1.9773,1.9673,1.8242,1.8468,1.8392,1.7928,1.7877,1.7438,1.7099,1.6886,1.6789,1.6814,1.6663,1.6525,3.1876,3.1235,3.0269,2.9854,2.9779,2.9779,2.9779,2.9779,2.9779,2.9779,2.9779,2.9779,2.9779,2.9741,2.9151,2.8574,2.8072,2.7482,2.6964,2.6524,2.6487,2.6487,2.6487,2.6461,2.6436,2.6336,2.5824,2.5046,2.4079,2.3966,2.3678,2.3133,2.3095,2.3095,2.2957,2.2556,2.2297,2.2058,2.1242,2.0704,2.0603,2.0112,1.9874,1.9861,1.9798,1.9798,1.9798,1.9773,1.9748,1.9761,1.9685,1.9685,1.9698,1.9685,1.9685,1.9748,1.9773,1.9798,1.9798,1.9798,1.9798,1.9798,1.9798,1.9798,1.9798,1.9798,1.9798,1.9798,1.9798,1.9798,1.9874,1.9911,2.0087,2.0503,2.015,2.0363,2.1242,2.1343,2.1443,2.1531,2.1945,2.2058,2.1606,2.1481,2.1782,2.202,2.2221,2.241,2.2694,2.2548,2.2096,2.1594,2.1119,2.0515,1.9974,1.9798,1.9798,1.9798,1.9798,1.9798,1.9798,1.9773,1.9623,1.9572,1.9472,1.9384,1.9321,1.8857,1.8091,1.7664,1.7488,1.74,1.7338,1.6835,1.6575,3.2227,3.1336,3.062,3.0118,2.9804,2.9779,2.9779,2.9779,2.9779,2.9779,2.9779,2.9779,2.9779,2.9779,2.9578,2.8976,2.8097,2.7532,2.7027,2.6537,2.6487,2.6487,2.6487,2.6487,2.6487,2.6461,2.626,2.5586,2.4582,2.418,2.3703,2.3195,2.3095,2.3095,2.307,2.292,2.2644,2.228,2.1895,2.1556,2.1232,2.0978,2.0754,2.0377,1.9987,1.9798,1.9798,1.9798,1.9798,1.9798,1.9798,1.9798,1.9798,1.9798,1.9798,1.9798,1.9798,1.9798,1.9798,1.9798,1.9798,1.9798,1.9798,1.9798,1.9798,1.9798,1.9798,1.9811,1.9811,1.9924,2.0302,2.0377,2.0465,2.0641,2.0842,2.1016,2.143,2.1782,2.2008,2.2096,2.2485,2.2581,2.2246,2.2309,2.2485,2.2359,2.2569,2.2857,2.3007,2.2907,2.2681,2.2493,2.2071,2.1531,2.0966,2.0188,1.9811,1.9798,1.9798,1.9798,1.9798,1.9798,1.9698,1.9673,1.9786,1.9623,1.9334,1.8945,1.8292,1.8191,1.8028,1.7953,1.7903,1.7325,1.6814,3.2365,3.1612,3.0896,3.0407,3.0055,2.9867,2.9779,2.9779,2.9779,2.9779,2.9779,2.9779,2.9779,2.9779,2.9779,2.9289,2.8398,2.7971,2.7431,2.6788,2.6763,2.6663,2.6499,2.6487,2.6487,2.6487,2.6487,2.59,2.4863,2.4456,2.3879,2.3145,2.3095,2.3095,2.3095,2.3095,2.2895,2.2581,2.241,2.2108,2.1782,2.1581,2.1317,2.0943,2.0415,1.9987,1.9823,1.9798,1.9798,1.9798,1.9798,1.9798,1.9798,1.9798,1.9798,1.9798,1.9798,1.9798,1.9798,1.9798,1.9798,1.9798,1.9798,1.9798,1.9811,1.9962,2.0088,2.01,2.0288,2.0566,2.0867,2.1119,2.1232,2.1245,2.1481,2.1782,2.1995,2.2318,2.2518,2.2594,2.2832,2.2869,2.2711,2.2895,2.2882,2.2581,2.2882,2.3083,2.3095,2.3095,2.3095,2.307,2.2757,2.2196,2.1581,2.0828,2.0351,2.0288,1.9899,1.9861,1.9798,1.9798,1.9798,1.9798,1.9698,1.951,1.9233,1.8894,1.8744,1.8681,1.8568,1.8456,1.8168,1.7752,1.734,3.224,3.2026,3.1072,3.0633,3.047,3.0005,2.9779,2.9779,2.9779,2.9779,2.9779,2.9779,2.9779,2.9779,2.9779,2.9465,2.9001,2.8838,2.8235,2.7304,2.7253,2.6964,2.6512,2.6487,2.6487,2.6487,2.6487,2.59,2.4901,2.477,2.4186,2.3321,2.312,2.3095,2.3095,2.3095,2.3095,2.2945,2.2581,2.233,2.2259,2.1882,2.1594,2.1455,2.1029,2.0566,1.9936,1.9836,1.9798,1.9798,1.9798,1.9798,1.9798,1.9798,1.9798,1.9798,1.9798,1.9798,1.9798,1.9798,1.9798,1.9823,1.9823,1.9886,2.0013,2.039,2.0691,2.0754,2.1081,2.1458,2.1518,2.187,2.2159,2.2272,2.2105,2.2343,2.2819,2.3058,2.3083,2.3045,2.3083,2.3095,2.3083,2.3083,2.3045,2.3032,2.3058,2.3095,2.3095,2.3095,2.3095,2.3095,2.2982,2.2619,2.2033,2.1455,2.1169,2.0842,2.0302,1.9962,1.9836,1.9798,1.9798,1.9798,1.9798,1.9623,1.9623,1.9346,1.9422,1.9359,1.9171,1.8983,1.8744,1.843,1.8005,3.2579,3.2152,3.1461,3.0934,3.0557,3.003,2.9779,2.9779,2.9779,2.9779,2.9779,2.9779,2.9779,2.9779,2.9779,2.9691,2.9528,2.9478,2.8712,2.7542,2.7341,2.704,2.6587,2.6487,2.6487,2.6487,2.6487,2.6122,2.541,2.4976,2.4399,2.3772,2.3296,2.3108,2.3095,2.3095,2.3095,2.3083,2.2932,2.2857,2.2844,2.2681,2.2447,2.2121,2.2205,2.1933,2.1004,2.0225,1.9823,1.9823,1.9798,1.9798,1.9798,1.9798,1.9798,1.9798,1.9798,1.9798,1.9798,1.9811,1.9823,1.9874,2.0162,2.0402,2.0478,2.0943,2.1245,2.1257,2.1405,2.1606,2.1983,2.2184,2.2305,2.2322,2.2569,2.2794,2.3032,2.3095,2.3095,2.3095,2.3095,2.3095,2.3095,2.3095,2.3095,2.3095,2.3095,2.3095,2.3095,2.3095,2.3095,2.3095,2.3045,2.302,2.2543,2.2146,2.1845,2.1433,2.0867,2.0263,2.0075,1.9798,1.9798,1.9798,1.9798,1.9798,1.9798,1.9798,1.9798,1.9798,1.956,1.9472,1.9472,1.9158,1.8644,3.2867,3.2466,3.1712,3.121,3.0809,3.0131,2.9779,2.9779,2.9779,2.9779,2.9779,2.9779,2.9779,2.9779,2.9779,2.9779,2.9779,2.9779,2.9126,2.7984,2.7645,2.7293,2.6813,2.6575,2.6487,2.6487,2.6487,2.6197,2.5598,2.5247,2.4732,2.4042,2.3627,2.3296,2.3133,2.3095,2.3095,2.3095,2.3095,2.3095,2.3095,2.3095,2.2945,2.2669,2.2732,2.2443,2.1769,2.0903,2.0326,2.0125,1.9936,1.9811,1.9798,1.9798,1.9798,1.9798,1.9798,1.9798,1.9811,2.0024,2.0151,2.0251,2.0679,2.0993,2.1094,2.1509,2.1769,2.1794,2.202,2.2246,2.2518,2.2623,2.2581,2.2623,2.2882,2.3083,2.3095,2.3095,2.3095,2.3095,2.3095,2.3095,2.3095,2.3095,2.3095,2.3095,2.3095,2.3095,2.3095,2.3095,2.3095,2.3095,2.3083,2.307,2.307,2.2794,2.2518,2.2033,2.1496,2.0903,2.0475,2.0012,1.9798,1.9798,1.9798,1.9798,1.9798,1.9798,1.9798,1.9798,1.9798,1.9736,1.9635,1.951,1.9158,3.3124,3.293,3.1851,3.1373,3.1198,3.0231,2.9779,2.9779,2.9779,2.9779,2.9779,2.9779,2.9779,2.9779,2.9779,2.9779,2.9779,2.9779,2.9528,2.89,2.8398,2.7821,2.7205,2.6725,2.6499,2.6487,2.6487,2.621,2.5762,2.5573,2.5096,2.4293,2.4042,2.3728,2.3308,2.3145,2.3095,2.3095,2.3095,2.3095,2.3095,2.3095,2.3095,2.3032,2.2669,2.2447,2.2309,2.1769,2.1257,2.0754,2.0239,1.9974,1.9924,1.9886,1.9911,2.0024,1.9924,1.9999,2.0062,2.0465,2.0742,2.0767,2.1204,2.1559,2.1606,2.202,2.2359,2.2385,2.2706,2.2995,2.3032,2.3032,2.3032,2.3083,2.307,2.3095,2.3095,2.3095,2.3095,2.3095,2.3095,2.3145,2.3195,2.3195,2.3133,2.3208,2.3183,2.3095,2.3095,2.3095,2.3095,2.3095,2.3108,2.3095,2.3083,2.3045,2.2769,2.2569,2.2096,2.1656,2.0926,2.0376,1.9811,1.9798,1.9886,1.9861,1.9811,1.9811,1.9811,1.9798,1.9798,1.9798,1.9748,1.9635,1.9585,3.3124,3.2998,3.1863,3.1386,3.1235,3.0256,2.9779,2.9779,2.9779,2.9779,2.9779,2.9779,2.9779,2.9779,2.9779,2.9779,2.9779,2.9779,2.9754,2.9503,2.8938,2.8172,2.7344,2.6776,2.6499,2.6499,2.6487,2.6424,2.6235,2.5858,2.5448,2.5172,2.4393,2.3966,2.3753,2.3321,2.3108,2.3095,2.3095,2.3095,2.3095,2.3095,2.3095,2.3083,2.2945,2.2869,2.2832,2.2385,2.1845,2.1292,2.0767,2.0666,2.0903,2.0652,2.0577,2.0891,2.0991,2.1016,2.1029,2.1194,2.1295,2.1333,2.1782,2.2083,2.2108,2.2569,2.2844,2.2907,2.3058,2.3095,2.3095,2.3095,2.3095,2.3095,2.3145,2.3158,2.3145,2.3095,2.3095,2.3095,2.3108,2.3409,2.3659,2.3521,2.3358,2.3615,2.3446,2.3183,2.3246,2.3108,2.312,2.3108,2.3108,2.3108,2.3095,2.3095,2.3045,2.2995,2.2719,2.2443,2.1628,2.0776,2.0213,1.9798,2.01,2.0162,1.9949,1.9836,1.9823,2.0049,1.9999,2.0075,1.9899,1.9773,1.9773,3.3124,3.3023,3.1863,3.1386,3.1248,3.0244,2.9779,2.9779,2.9779,2.9779,2.9779,2.9779,2.9779,2.9779,2.9779,2.9779,2.9779,2.9779,2.9779,2.9691,2.9176,2.831,2.7431,2.6952,2.6738,2.6499,2.6487,2.6487,2.6436,2.6135,2.5896,2.5523,2.4983,2.4469,2.3954,2.3703,2.3333,2.3158,2.3095,2.3095,2.3095,2.3095,2.3095,2.3095,2.3095,2.3095,2.3045,2.2794,2.2309,2.1631,2.1232,2.1194,2.1418,2.1232,2.1182,2.1481,2.1481,2.1468,2.1543,2.171,2.1832,2.192,2.2347,2.2581,2.2669,2.2945,2.3095,2.3095,2.3095,2.3095,2.3095,2.3095,2.3095,2.3145,2.3371,2.3509,2.3514,2.3496,2.3333,2.3283,2.3521,2.3935,2.4424,2.4036,2.4023,2.4123,2.391,2.3722,2.3609,2.3358,2.3195,2.3271,2.3158,2.3108,2.3095,2.3095,2.3095,2.307,2.302,2.2844,2.2368,2.149,2.1377,2.1016,2.074,2.0464,2.0376,2.0376,2.0614,2.0715,2.0526,2.0464,2.0426,2.0275,2.0225,3.3074,3.2935,3.1825,3.1361,3.1135,3.0231,2.9779,2.9779,2.9779,2.9779,2.9779,2.9779,2.9779,2.9779,2.9779,2.9779,2.9779,2.9779,2.9779,2.9654,2.9264,2.8561,2.7708,2.7341,2.704,2.6688,2.6549,2.6487,2.6474,2.6449,2.621,2.5799,2.5611,2.5084,2.4469,2.4155,2.3747,2.3346,2.3283,2.3208,2.3133,2.3095,2.3095,2.3095,2.3095,2.3095,2.3095,2.3007,2.2644,2.1732,2.1647,2.1644,2.1669,2.1669,2.1656,2.1757,2.1832,2.1807,2.1769,2.2196,2.2368,2.2472,2.2807,2.3095,2.3058,2.3083,2.3095,2.3095,2.3095,2.3158,2.3296,2.3271,2.3421,2.3547,2.3948,2.418,2.4192,2.413,2.3891,2.3471,2.4286,2.4675,2.4958,2.4895,2.4788,2.4745,2.4437,2.4098,2.401,2.391,2.3722,2.3609,2.3409,2.3095,2.3095,2.3095,2.3095,2.3095,2.3083,2.3007,2.3007,2.2594,2.2819,2.2656,2.1954,2.1455,2.1154,2.1255,2.1368,2.128,2.1029,2.1204,2.1368,2.1114,2.0989,3.2817,3.234,3.1662,3.1148,3.0708,3.008,2.9779,2.9779,2.9779,2.9779,2.9779,2.9779,2.9779,2.9779,2.9779,2.9779,2.9779,2.9779,2.9779,2.9767,2.9704,2.9239,2.8461,2.7795,2.7256,2.7027,2.6675,2.6499,2.6487,2.6474,2.6436,2.6273,2.5824,2.5485,2.5222,2.477,2.4368,2.3904,2.3803,2.354,2.3195,2.312,2.3095,2.3095,2.3095,2.3095,2.3095,2.3095,2.2982,2.2719,2.2397,2.2284,2.2493,2.2305,2.2309,2.2573,2.2669,2.2694,2.2744,2.2782,2.292,2.2895,2.2982,2.3095,2.3095,2.3095,2.3095,2.3095,2.3108,2.3346,2.3766,2.4186,2.4274,2.4336,2.4512,2.4845,2.5071,2.4883,2.4682,2.482,2.4858,2.5146,2.5887,2.5247,2.5159,2.5247,2.4996,2.4499,2.4462,2.4525,2.4437,2.4368,2.3785,2.3534,2.3484,2.3434,2.3321,2.3233,2.317,2.3095,2.3095,2.3095,2.3095,2.3083,2.2932,2.2456,2.192,2.1681,2.1694,2.1606,2.1594,2.1719,2.182,2.1716,2.1754,3.2114,3.1775,3.1248,3.0871,3.0557,3.003,2.9779,2.9779,2.9779,2.9779,2.9779,2.9779,2.9779,2.9779,2.9779,2.9779,2.9779,2.9779,2.9779,2.9779,2.9767,2.9628,2.9277,2.8473,2.7858,2.7318,2.6751,2.6512,2.6487,2.6487,2.6487,2.6487,2.616,2.5837,2.5624,2.5322,2.4908,2.4387,2.4117,2.3828,2.3577,2.3233,2.3095,2.3095,2.3095,2.3095,2.3095,2.3095,2.3095,2.3032,2.2832,2.2769,2.3007,2.2844,2.2857,2.302,2.3095,2.3095,2.3095,2.3095,2.3083,2.3095,2.3095,2.3095,2.3095,2.3095,2.3095,2.317,2.3384,2.3778,2.4318,2.4582,2.4788,2.485,2.5026,2.531,2.5485,2.5347,2.5372,2.5732,2.5757,2.5946,2.6021,2.5661,2.5699,2.5875,2.5933,2.5498,2.5573,2.5598,2.546,2.5184,2.4424,2.4023,2.3948,2.3822,2.3665,2.3484,2.3308,2.3195,2.3095,2.3095,2.3095,2.3083,2.3058,2.2982,2.2506,2.2297,2.2171,2.2347,2.2368,2.2309,2.2297,2.238,2.2443,3.1348,3.1235,3.0796,3.057,3.0419,2.998,2.9779,2.9779,2.9779,2.9779,2.9779,2.9779,2.9779,2.9779,2.9779,2.9779,2.9779,2.9779,2.9779,2.9779,2.9779,2.9754,2.9541,2.9038,2.8323,2.7419,2.6939,2.6675,2.6524,2.6487,2.6487,2.6487,2.6487,2.6223,2.5858,2.5711,2.546,2.4958,2.4456,2.4092,2.3853,2.3396,2.312,2.3095,2.3095,2.3095,2.3095,2.3095,2.3095,2.3095,2.3095,2.3095,2.3095,2.3095,2.3095,2.3095,2.3095,2.3095,2.3095,2.3095,2.3095,2.3095,2.3095,2.3095,2.3095,2.3233,2.3333,2.3534,2.3835,2.4469,2.485,2.5172,2.5159,2.5209,2.5523,2.5686,2.5737,2.5724,2.6009,2.6273,2.6248,2.6323,2.6399,2.626,2.6399,2.6487,2.6487,2.6487,2.6487,2.6436,2.616,2.6047,2.536,2.4587,2.4424,2.433,2.413,2.3828,2.3559,2.3321,2.3158,2.3095,2.3095,2.3095,2.307,2.2995,2.2982,2.2794,2.2807,2.3083,2.3007,2.2744,2.2832,2.307,2.3007,3.1135,3.0733,3.0645,3.0357,2.9955,2.9829,2.9779,2.9779,2.9779,2.9779,2.9779,2.9779,2.9779,2.9779,2.9779,2.9779,2.9779,2.9779,2.9779,2.9779,2.9779,2.9779,2.9679,2.9302,2.8599,2.7996,2.7406,2.6977,2.6575,2.6487,2.6487,2.6487,2.6487,2.6361,2.6323,2.6311,2.6009,2.546,2.4895,2.4443,2.4042,2.3446,2.3095,2.3095,2.3095,2.3095,2.3095,2.3095,2.3095,2.3095,2.3095,2.3095,2.3095,2.3095,2.3095,2.3095,2.3095,2.3095,2.3095,2.3095,2.3095,2.3095,2.3158,2.317,2.3271,2.3559,2.3853,2.4142,2.4682,2.5335,2.546,2.5774,2.6135,2.6223,2.6185,2.6285,2.6298,2.6298,2.6298,2.6461,2.6487,2.6487,2.6487,2.6487,2.6487,2.6487,2.6487,2.6487,2.6487,2.6487,2.6399,2.6373,2.6323,2.5548,2.4921,2.4782,2.4594,2.423,2.3929,2.3496,2.3321,2.3158,2.3095,2.3095,2.3095,2.307,2.307,2.3095,2.3095,2.3095,2.3095,2.3095,2.3095,2.3095,2.3095,3.0432,3.0181,3.0181,3.0043,2.9804,2.9779,2.9779,2.9779,2.9779,2.9779,2.9779,2.9779,2.9779,2.9779,2.9779,2.9779,2.9779,2.9779,2.9779,2.9779,2.9779,2.9779,2.9779,2.9478,2.885,2.826,2.7795,2.7231,2.6562,2.6487,2.6487,2.6487,2.6487,2.6487,2.6487,2.6449,2.6336,2.5933,2.5272,2.4675,2.4356,2.3597,2.3158,2.3108,2.3108,2.3095,2.3095,2.3095,2.3095,2.3095,2.3095,2.3095,2.3095,2.3095,2.3095,2.3095,2.3095,2.3095,2.3095,2.312,2.3221,2.3552,2.3547,2.371,2.3935,2.4261,2.4519,2.4883,2.5109,2.5724,2.6047,2.6336,2.6461,2.6487,2.6487,2.6487,2.6487,2.6487,2.6487,2.6487,2.6487,2.6487,2.6487,2.6487,2.6487,2.6487,2.6487,2.6487,2.6487,2.6487,2.6487,2.6487,2.6474,2.6185,2.5523,2.5322,2.5096,2.4732,2.4305,2.3904,2.3384,2.3158,2.3095,2.3095,2.3095,2.3095,2.3095,2.3095,2.3095,2.3095,2.3095,2.3095,2.3095,2.3095,2.3095,2.9779,2.9779,2.9779,2.9779,2.9779,2.9779,2.9779,2.9779,2.9779,2.9779,2.9779,2.9779,2.9779,2.9779,2.9779,2.9779,2.9779,2.9779,2.9779,2.9779,2.9779,2.9779,2.9779,2.9654,2.9202,2.821,2.8059,2.7532,2.6675,2.6487,2.6487,2.6487,2.6487,2.6487,2.6487,2.6487,2.6487,2.6185,2.5548,2.4983,2.4562,2.3847,2.3283,2.3233,2.317,2.3095,2.3095,2.3095,2.3095,2.3095,2.3095,2.3095,2.3095,2.3095,2.3095,2.3095,2.3095,2.3095,2.312,2.3308,2.3565,2.3866,2.4079,2.4393,2.4669,2.4858,2.5184,2.5636,2.5845,2.595,2.6336,2.6474,2.6487,2.6487,2.6487,2.6487,2.6487,2.6487,2.6487,2.6487,2.6487,2.6487,2.6487,2.6487,2.6487,2.6487,2.6487,2.6487,2.6487,2.6487,2.6487,2.6487,2.6487,2.6487,2.6185,2.5925,2.5649,2.5285,2.4808,2.4343,2.3672,2.3108,2.3145,2.3233,2.3095,2.3095,2.3095,2.3108,2.3095,2.3095,2.3095,2.3095,2.3095,2.3095,2.3095,2.9779,2.9779,2.9779,2.9779,2.9779,2.9779,2.9779,2.9779,2.9779,2.9779,2.9779,2.9779,2.9779,2.9779,2.9779,2.9779,2.9779,2.9779,2.9779,2.9779,2.9779,2.9779,2.9779,2.9779,2.9126,2.8285,2.8109,2.7469,2.6725,2.6487,2.6487,2.6487,2.6487,2.6487,2.6487,2.6487,2.6487,2.6373,2.5812,2.5272,2.4775,2.4205,2.3941,2.3778,2.3484,2.3258,2.3321,2.3321,2.3258,2.317,2.3145,2.312,2.3095,2.3095,2.3095,2.3095,2.3095,2.3108,2.3183,2.3509,2.3879,2.4155,2.4456,2.4687,2.5046,2.536,2.5737,2.6323,2.6361,2.6348,2.6449,2.6487,2.6487,2.6487,2.6487,2.6487,2.6487,2.6487,2.6487,2.6487,2.6487,2.6487,2.6487,2.6487,2.6487,2.6487,2.6487,2.6487,2.6487,2.6487,2.6487,2.6487,2.6487,2.6487,2.6474,2.6285,2.6122,2.5795,2.5285,2.4808,2.4381,2.3853,2.3409,2.3464,2.3346,2.3283,2.3333,2.3308,2.317,2.3095,2.3095,2.3095,2.3095,2.3095,2.3095,2.9779,2.9779,2.9779,2.9779,2.9779,2.9779,2.9779,2.9779,2.9779,2.9779,2.9779,2.9779,2.9779,2.9779,2.9779,2.9779,2.9779,2.9779,2.9779,2.9818,2.9818,2.9818,2.9779,2.9716,2.9189,2.836,2.7996,2.7494,2.6826,2.6487,2.6487,2.6487,2.6487,2.6487,2.6487,2.6487,2.6487,2.6323,2.5908,2.5347,2.4895,2.4607,2.4469,2.4424,2.4161,2.4036,2.401,2.4061,2.3873,2.371,2.3627,2.3409,2.3195,2.3095,2.3108,2.3133,2.3477,2.3464,2.3233,2.374,2.413,2.4531,2.4946,2.5398,2.5707,2.5946,2.616,2.6449,2.6487,2.6487,2.6487,2.6487,2.6487,2.6487,2.6487,2.6487,2.6487,2.6487,2.6487,2.6487,2.6487,2.6487,2.6487,2.6487,2.6487,2.6487,2.6487,2.6487,2.6487,2.6487,2.6487,2.6487,2.6487,2.6487,2.6487,2.6411,2.6386,2.6109,2.5699,2.531,2.5242,2.484,2.4406,2.423,2.433,2.4136,2.3797,2.3434,2.3221,2.3145,2.3095,2.3095,2.3095,2.3095,2.3095,2.9779,2.9779,2.9779,2.9779,2.9779,2.9779,2.9779,2.9779,2.9779,2.9779,2.9779,2.9779,2.9779,2.9779,2.9779,2.9779,2.9779,2.9779,2.9779,2.9818,2.9998,3.0037,2.9998,2.9845,2.9479,2.8122,2.8109,2.7482,2.6813,2.6487,2.6487,2.6487,2.6487,2.6487,2.6487,2.6487,2.6487,2.6449,2.6122,2.5686,2.5347,2.5121,2.5034,2.4971,2.4863,2.48,2.48,2.475,2.4506,2.4305,2.4004,2.3753,2.3446,2.3439,2.3409,2.3509,2.3891,2.4054,2.3966,2.4217,2.4569,2.5008,2.5485,2.5963,2.6298,2.6487,2.6487,2.6487,2.6487,2.6487,2.6487,2.6487,2.6487,2.6487,2.6487,2.6487,2.6487,2.6487,2.6487,2.6487,2.6487,2.6487,2.6487,2.6487,2.6487,2.6487,2.6487,2.6487,2.6487,2.6487,2.6487,2.6487,2.6487,2.6487,2.6487,2.6487,2.6487,2.6411,2.6034,2.5858,2.5757,2.5682,2.5418,2.531,2.5247,2.4983,2.4644,2.3954,2.3271,2.317,2.3095,2.3095,2.3095,2.3095,2.3095,2.9779,2.9779,2.9779,2.9779,2.9779,2.9779,2.9779,2.9779,2.9779,2.9779,2.9779,2.9779,2.9779,2.9779,2.9779,2.9779,2.9779,2.9779,2.9779,3.0101,3.0558,3.0419,3.0317,3.0227,3.004,2.842,2.8122,2.7507,2.6801,2.6675,2.6575,2.6487,2.6524,2.6499,2.6487,2.6487,2.6487,2.6487,2.6336,2.6336,2.6084,2.5845,2.5548,2.5435,2.5121,2.48,2.4845,2.4983,2.4921,2.4738,2.4443,2.4142,2.3979,2.3941,2.391,2.4023,2.4424,2.46,2.4662,2.4946,2.5372,2.5707,2.6021,2.6336,2.6474,2.6487,2.6487,2.6487,2.6487,2.6487,2.6487,2.6487,2.6487,2.6487,2.6487,2.6487,2.6487,2.6487,2.6487,2.6487,2.6487,2.6487,2.6487,2.6487,2.6487,2.6487,2.6487,2.6487,2.6487,2.6487,2.6487,2.6487,2.6487,2.6487,2.6487,2.6487,2.6487,2.6487,2.6285,2.6273,2.6298,2.6223,2.6034,2.6084,2.5933,2.572,2.5431,2.4707,2.4042,2.3371,2.3133,2.3233,2.317,2.3095,2.3095,2.9779,2.9779,2.9779,2.9779,2.9779,2.9779,2.9779,2.9779,2.9779,2.9779,2.9779,2.9779,2.9779,2.9779,2.9779,2.9779,2.9779,2.9779,2.9818,3.0101,3.0558,3.0558,3.0419,3.0441,3.0305,2.8872,2.8285,2.8009,2.7557,2.7165,2.7014,2.6939,2.6744,2.6512,2.6487,2.6487,2.6487,2.6487,2.6487,2.6487,2.6449,2.6336,2.616,2.6122,2.6059,2.5871,2.5896,2.5837,2.5624,2.5335,2.5059,2.4782,2.4544,2.4519,2.4506,2.4525,2.5021,2.5259,2.5297,2.5536,2.5757,2.6147,2.6361,2.6487,2.6487,2.6487,2.6487,2.6487,2.6524,2.6562,2.6487,2.6487,2.6487,2.6487,2.6524,2.6562,2.6637,2.6713,2.6738,2.6851,2.665,2.6487,2.6487,2.6487,2.6487,2.6487,2.6487,2.6487,2.6487,2.6487,2.6487,2.6487,2.6487,2.6487,2.6487,2.6487,2.6487,2.6487,2.6487,2.6487,2.6487,2.6461,2.6348,2.6474,2.6487,2.6197,2.5833,2.5372,2.4795,2.4142,2.3697,2.354,2.3371,2.3221,2.3145,2.9779,2.9779,2.9779,2.9779,2.9779,2.9779,2.9779,2.9779,2.9779,2.9779,2.9779,2.9779,2.9779,2.9779,2.9779,2.9779,2.9779,2.9818,3.0037,3.052,3.1082,3.1119,3.1095,3.1027,3.096,2.951,2.8649,2.8298,2.7971,2.7682,2.7431,2.7226,2.7158,2.7023,2.6487,2.6487,2.6487,2.6487,2.6487,2.6487,2.6487,2.6474,2.6461,2.6449,2.6399,2.6386,2.6348,2.6311,2.621,2.5921,2.5624,2.5372,2.5184,2.5059,2.5046,2.5222,2.5498,2.5858,2.585,2.59,2.6072,2.6373,2.6449,2.6487,2.6487,2.6499,2.6487,2.6512,2.66,2.67,2.6625,2.6637,2.6612,2.6625,2.6939,2.704,2.7165,2.7253,2.7241,2.7205,2.7077,2.704,2.6688,2.6688,2.6537,2.6524,2.6487,2.6487,2.6487,2.6487,2.6487,2.6487,2.6487,2.6487,2.6487,2.6487,2.6487,2.6487,2.6487,2.6487,2.6487,2.6487,2.6487,2.6487,2.6487,2.6487,2.6273,2.5896,2.5385,2.4858,2.4481,2.4092,2.3991,2.3822,2.3384,2.9779,2.9779,2.9779,2.9779,2.9779,2.9779,2.9779,2.9779,2.9779,2.9856,2.9921,2.9934,2.9934,2.9921,3.0037,2.996,2.9779,2.983,3.0216,3.1007,3.1609,3.2164,3.2272,3.206,3.1382,3.0398,2.9345,2.8561,2.8273,2.8147,2.7846,2.7982,2.8239,2.7871,2.6674,2.6512,2.6499,2.6487,2.6487,2.6487,2.6487,2.6487,2.6487,2.6487,2.6487,2.6487,2.6487,2.6487,2.6411,2.6298,2.5946,2.5711,2.5624,2.5598,2.5598,2.5624,2.6122,2.6386,2.6436,2.6449,2.6449,2.6474,2.6487,2.6537,2.6537,2.6549,2.6688,2.6876,2.7065,2.7027,2.6952,2.6889,2.6839,2.6989,2.7316,2.7454,2.758,2.7844,2.7808,2.7632,2.7795,2.7846,2.7329,2.6927,2.6675,2.6562,2.6512,2.6487,2.6487,2.6487,2.6487,2.6487,2.6487,2.6487,2.6487,2.6487,2.6487,2.6487,2.6487,2.6487,2.6487,2.6487,2.6487,2.6487,2.6487,2.6487,2.6487,2.6424,2.5933,2.5435,2.5059,2.4745,2.46,2.4299,2.3772,2.9779,2.9779,2.9779,2.9779,2.9779,2.9779,2.9779,2.9779,2.9818,3.0139,3.0658,3.072,3.0733,3.0733,3.062,3.0381,2.9869,2.9818,3.0317,3.118,3.1683,3.2069,3.2272,3.21,3.1476,3.069,2.9716,2.9151,2.9264,2.8863,2.9103,2.9363,2.9539,2.9013,2.7762,2.7114,2.6914,2.6562,2.6487,2.6487,2.6499,2.6524,2.6512,2.6524,2.6524,2.6487,2.6487,2.6487,2.6487,2.6487,2.616,2.6147,2.6147,2.6147,2.616,2.6172,2.6474,2.6474,2.6487,2.6474,2.6487,2.6512,2.6549,2.6713,2.6952,2.704,2.718,2.7431,2.7645,2.7645,2.7695,2.7318,2.7256,2.7544,2.7783,2.7781,2.7907,2.8273,2.8423,2.8097,2.8072,2.8134,2.7821,2.7379,2.7077,2.6813,2.6763,2.6562,2.6499,2.6499,2.6487,2.6487,2.6487,2.6487,2.6487,2.6487,2.6487,2.6487,2.6487,2.6487,2.6487,2.6487,2.6487,2.6487,2.6487,2.6487,2.6577,2.6633,2.6408,2.6047,2.5678,2.5267,2.5021,2.4525,2.3898,2.9779,2.9779,2.9779,2.9779,2.9779,2.9779,2.9779,2.9779,2.9818,3.0305,3.097,3.0871,3.0895,3.1068,3.1143,3.0696,2.9895,3.0216,3.0419,3.1241,3.1596,3.2343,3.2593,3.2164,3.1933,3.1232,3.0211,2.944,2.9654,2.939,2.9786,3.0548,3.1103,3.0532,2.9517,2.9046,2.8365,2.8015,2.7794,2.7538,2.723,2.6977,2.6813,2.6751,2.6637,2.6487,2.6487,2.6487,2.6487,2.6487,2.6487,2.6487,2.6487,2.6487,2.6487,2.6487,2.6487,2.6487,2.6487,2.6776,2.6826,2.6839,2.6776,2.6952,2.7316,2.7431,2.7695,2.7971,2.826,2.8235,2.8109,2.7708,2.7896,2.8197,2.8147,2.8122,2.8386,2.8787,2.9038,2.8712,2.8599,2.8549,2.8348,2.7896,2.753,2.7266,2.7027,2.681,2.6571,2.6499,2.6487,2.6487,2.6521,2.6521,2.6521,2.6487,2.6487,2.6487,2.6611,2.6769,2.6487,2.6487,2.6487,2.6487,2.6487,2.6555,2.6769,2.6799,2.668,2.6561,2.6316,2.5916,2.5456,2.5021,2.4556,2.9779,2.9779,2.9779,2.9779,2.9779,2.9779,2.9779,2.9779,2.9779,3.0355,3.1241,3.052,3.0846,3.1328,3.1352,3.0833,3.0241,3.0809,3.1156,3.1536,3.2055,3.3017,3.338,3.2982,3.2607,3.1974,3.1016,2.9974,2.9921,3.0227,3.0797,3.151,3.2151,3.2141,3.1943,3.1537,3.0467,2.9435,2.913,2.876,2.8264,2.7931,2.78,2.7611,2.724,2.6873,2.6728,2.6562,2.6512,2.6487,2.6487,2.6487,2.6487,2.6487,2.6487,2.6487,2.6487,2.6499,2.6675,2.704,2.7243,2.7293,2.7394,2.7369,2.7557,2.7946,2.8235,2.8499,2.875,2.8549,2.8348,2.8461,2.8549,2.8574,2.8549,2.8699,2.8976,2.9277,2.9553,2.9541,2.9515,2.9365,2.895,2.8499,2.7984,2.7557,2.7314,2.7107,2.6844,2.6533,2.6533,2.6487,2.6521,2.6568,2.6555,2.6645,2.6748,2.685,2.7183,2.7317,2.6939,2.6748,2.685,2.685,2.6589,2.6679,2.717,2.7237,2.7082,2.6984,2.7207,2.6599,2.6176,2.6093,2.5833,2.9779,2.9779,2.9779,2.9779,2.9779,2.9779,2.9779,2.9779,2.9818,3.0633,3.2164,3.1924,3.2155,3.3101,3.2486,3.1646,3.118,3.1156,3.1646,3.2069,3.2379,3.365,3.3939,3.3533,3.322,3.2749,3.1865,3.0733,3.097,3.1291,3.1765,3.2372,3.3479,3.4098,3.425,3.4265,3.2171,3.0685,3.0501,3.0065,2.9711,2.9507,2.9249,2.8791,2.8213,2.776,2.7196,2.6779,2.6678,2.6555,2.6521,2.6521,2.6487,2.6487,2.6487,2.6487,2.6524,2.6625,2.7014,2.7241,2.754,2.7981,2.8221,2.8386,2.8474,2.8636,2.8888,2.9063,2.9227,2.9101,2.8976,2.9038,2.9113,2.9151,2.9051,2.9051,2.9315,2.9528,2.9779,2.9779,2.9779,2.9716,2.9327,2.9051,2.8536,2.7996,2.765,2.7487,2.7208,2.693,2.6726,2.6714,2.6748,2.685,2.6918,2.7007,2.7108,2.7263,2.7736,2.8168,2.8233,2.8019,2.7584,2.7229,2.7027,2.7291,2.7782,2.7729,2.7657,2.8214,2.8387,2.7611,2.696,2.6714,2.6521,2.9779,2.9779,2.9779,2.9779,2.9779,2.9779,2.9779,2.9856,3.0177,3.123,3.2486,3.2558,3.3087,3.3739,3.331,3.2464,3.1254,3.1646,3.1924,3.1779,3.2558,3.3498,3.3856,3.3905,3.3636,3.3206,3.2464,3.1328,3.1815,3.2607,3.3157,3.3317,3.4839,3.5311,3.535,3.502,3.3906,3.254,3.1729,3.1468,3.1302,3.1083,3.0601,3.0041,2.9401,2.8669,2.7958,2.7456,2.7242,2.7037,2.6973,2.6782,2.6645,2.6487,2.67,2.6738,2.6876,2.7165,2.7519,2.7883,2.8341,2.8816,2.915,2.9453,2.9517,2.958,2.958,2.9603,2.9691,2.9716,2.9616,2.9553,2.9641,2.9716,2.9541,2.9365,2.9541,2.9729,2.9779,2.9779,2.9779,2.9779,2.9616,2.9416,2.9101,2.8622,2.838,2.83,2.7923,2.7478,2.7294,2.7196,2.7162,2.7196,2.7317,2.755,2.7703,2.8084,2.8812,2.9178,2.9397,2.9348,2.8939,2.8201,2.7458,2.7926,2.847,2.84,2.8427,2.9034,2.9254,2.846,2.7571,2.6824,2.6645,2.9779,2.9779,2.9779,2.9779,2.9779,2.9779,2.9856,3.0037,3.0945,3.1792,3.2522,3.27,3.3345,3.4143,3.3925,3.2912,3.2213,3.2272,3.2236,3.1499,3.289,3.3871,3.4245,3.4143,3.4245,3.3567,3.277,3.2141,3.2629,3.3101,3.3498,3.4013,3.4971,3.5457,3.5489,3.5489,3.471,3.4018,3.3595,3.3405,3.273,3.2208,3.1674,3.0904,3.0258,2.9632,2.9069,2.8662,2.8416,2.8066,2.7767,2.7522,2.7027,2.6801,2.7052,2.7168,2.7366,2.767,2.8084,2.8461,2.933,2.9775,3.0098,3.0239,3.0252,2.9961,2.9793,2.9741,2.9779,2.9779,2.9704,2.9666,2.9741,2.9767,2.9679,2.9591,2.9666,2.9779,2.9779,2.9895,3.0177,3.0177,3.033,3.0187,3.0411,2.9641,2.9398,2.9398,2.9113,2.8605,2.8166,2.8013,2.7868,2.7953,2.8201,2.8395,2.846,2.8925,2.9628,2.9597,2.9366,2.9752,3.0284,2.9521,2.8784,2.8803,2.9073,2.9132,2.9411,2.995,2.995,2.9223,2.8414,2.7808,2.696,2.9779,2.9779,2.9779,2.9779,2.9779,2.9779,3.0216,3.0932,3.1852,3.2393,3.27,3.338,3.4143,3.4872,3.4245,3.3241,3.2664,3.277,3.2912,3.2996,3.3685,3.4375,3.5019,3.4938,3.5019,3.4773,3.4007,3.3031,3.2912,3.3101,3.3463,3.4095,3.4986,3.5489,3.5489,3.5489,3.5279,3.4938,3.4872,3.4509,3.3785,3.4221,3.4176,3.3237,3.2444,3.1638,3.108,3.0541,2.9916,2.9297,2.9125,2.8594,2.7828,2.7754,2.7794,2.7883,2.7957,2.8235,2.8636,2.9076,2.9801,3.0345,3.0567,3.0657,3.052,3.0075,2.9869,2.9856,2.9779,2.9779,2.9779,2.9779,2.9779,2.9779,2.9856,2.9856,2.9856,2.9818,2.9818,3.0062,3.0457,3.0696,3.0871,3.1148,3.1429,3.1422,3.1235,3.1151,3.0987,3.0545,2.967,2.9366,2.8867,2.8876,2.9097,2.9178,2.924,2.9566,3.0163,2.9905,2.9442,3.0133,3.0852,3.0659,3.03,3.0104,2.9983,3.0103,3.0464,3.0822,3.0866,3.0224,3.0329,2.9936,2.8446,2.9779,2.9779,2.9779,2.9779,2.9779,2.9779,3.0355,3.1241,3.22,3.2855,3.3345,3.4225,3.4986,3.5311,3.4428,3.3533,3.2876,3.3087,3.2925,3.322,3.409,3.4854,3.5279,3.5489,3.5424,3.5279,3.4953,3.4225,3.3415,3.3856,3.4442,3.4658,3.5279,3.5489,3.5489,3.5489,3.5489,3.5457,3.5489,3.5166,3.461,3.5052,3.4986,3.4153,3.3643,3.3043,3.2634,3.1979,3.1237,3.0282,2.972,2.9755,2.9219,2.8973,2.8921,2.891,2.8893,2.8687,2.9177,2.9744,3.0357,3.1037,3.1462,3.1683,3.1719,3.1304,3.0533,3.0419,2.9856,2.9779,2.9779,2.9779,2.9779,2.9779,3.0266,3.0582,3.0343,3.0101,2.9998,2.9895,3.0381,3.097,3.1254,3.1779,3.2031,3.2183,3.2215,3.2224,3.2221,3.2405,3.155,3.0833,3.037,2.9845,2.9797,2.9919,3.0011,3.0359,3.0733,3.0673,3.0539,3.0984,3.1365,3.1102,3.0984,3.0984,3.0955,3.0866,3.097,3.1234,3.1351,3.1307,3.1496,3.1496,3.0254,2.9779,2.9779,2.9779,2.9779,2.9779,2.9779,3.0355,3.1254,3.22,3.3136,3.4007,3.5001,3.5424,3.5166,3.4643,3.3685,3.3255,3.3636,3.3255,3.3206,3.3925,3.4839,3.5344,3.5489,3.5489,3.5359,3.5067,3.4758,3.4245,3.4543,3.4806,3.5344,3.5489,3.5489,3.5489,3.5489,3.5489,3.5489,3.5489,3.5489,3.5457,3.5489,3.4971,3.4495,3.4119,3.3922,3.3589,3.3196,3.2544,3.1616,3.0711,3.0682,3.0717,3.047,3.0219,3.0131,2.9748,2.9605,2.9796,3.0479,3.1396,3.22,3.2486,3.2664,3.2629,3.2249,3.1476,3.0945,3.0419,3.0062,3.0062,2.9856,2.9856,2.996,3.0545,3.1143,3.0796,3.0394,3.0113,2.9908,3.0495,3.1143,3.1706,3.2236,3.2729,3.2891,3.2986,3.2953,3.3066,3.344,3.3279,3.2645,3.2157,3.1581,3.0889,3.0554,3.0644,3.0866,3.1175,3.1365,3.1496,3.1496,3.1496,3.1467,3.1394,3.1351,3.138,3.1278,3.1438,3.1511,3.1511,3.1496,3.1496,3.1496,3.1496,2.9779,2.9779,2.9779,2.9779,2.9779,2.9779,3.0343,3.1241,3.2213,3.3136,3.4075,3.4986,3.5504,3.5472,3.5359,3.4624,3.3719,3.4075,3.4109,3.4013,3.4576,3.5133,3.5424,3.5489,3.5489,3.5311,3.5034,3.4725,3.4725,3.4624,3.4773,3.5472,3.5489,3.5489,3.5489,3.5489,3.5489,3.5489,3.5489,3.5489,3.5489,3.5489,3.5457,3.5231,3.5198,3.5124,3.5035,3.5035,3.4376,3.3473,3.2514,3.2215,3.2103,3.1922,3.1527,3.0954,3.057,3.0113,3.0241,3.0908,3.1815,3.25,3.2784,3.3206,3.3171,3.3066,3.25,3.2177,3.1646,3.1119,3.0908,3.0355,3.0177,3.0254,3.0633,3.1082,3.1156,3.0608,3.0113,3.0355,3.0884,3.1513,3.2141,3.2925,3.4041,3.4235,3.4518,3.4489,3.438,3.4631,3.4786,3.4277,3.3679,3.3005,3.2184,3.1309,3.1204,3.1409,3.154,3.163,3.163,3.1511,3.1555,3.2228,3.1824,3.1453,3.1511,3.163,3.1496,3.1496,3.1496,3.1496,3.1496,3.1496,3.1496]}]]